[[[{"header":{"parameterUnit":"kt","parameterCategory":2,"dx":1,"dy":1,"la1":29.285339999999998,"la2":30.599998999999997,"lo1":-89.70041500000002,"lo2":-87.6738589999976,"nx":112,"ny":82,"refTime":"2022-09-30T18:00:00:Z","depth":0,"parameterNumber":1,"parameterNumberName":"U-component_of_WINDS"},"data":[2.7081,2.6065,2.5317,2.6372,2.595,2.5855,2.8086,2.9463,3.063,3.1395,3.2423,3.2887,3.2229,3.3143,3.3603,3.2352,3.3239,3.3467,0.0,3.171,3.1816,3.211,3.339,3.4204,3.418,3.4316,3.3635,3.1997,3.0929,2.9213,2.6818,2.5561,2.4222,2.2667,2.388,2.5747,2.7935,2.8128,2.9184,3.1148,2.9079,2.8028,2.7618,2.646,2.5684,2.4982,2.4533,2.4105,2.3836,2.4181,2.3611,2.2613,2.1455,2.0689,2.0017,1.8936,1.8751,1.9092,1.9092,1.9092,1.9092,1.9092,1.9092,1.9092,1.9092,1.9092,1.9092,1.9092,1.9092,1.9092,1.9092,1.9092,1.9092,1.9092,1.9092,1.9092,1.9092,1.9092,1.9092,1.9092,1.9092,1.9092,1.9092,1.9429,1.9692,1.9692,1.9943,2.0127,2.0127,1.9963,1.9636,1.9433,1.9243,1.9204,1.9099,1.9092,1.9092,1.9092,1.9092,1.9092,1.9092,1.9092,1.9138,1.9125,1.9145,1.9138,1.9244,1.9138,1.9092,1.9092,1.9092,1.9092,2.7221,2.6432,2.6076,2.7797,2.7585,2.7514,3.0049,3.0705,3.1328,3.3523,3.3429,3.3063,3.3506,3.3752,3.3469,3.2042,3.2914,3.3183,0.0,3.1737,3.2241,3.2965,3.4288,3.5374,3.618,3.5384,0.0,0.0,3.2875,0.0,2.8915,2.8022,2.6672,2.4872,2.6549,2.8377,3.0317,3.0589,3.1335,3.2347,3.0334,2.8992,2.8044,2.6757,2.5734,2.5106,2.4056,2.3509,2.3465,2.3333,2.2748,2.1875,2.1205,2.035,1.9544,1.8968,1.887,1.9092,1.9092,1.9092,1.9092,1.9092,1.9092,1.9092,1.9092,1.9092,1.9092,1.9092,1.9092,1.9092,1.9092,1.9092,1.9092,1.9092,1.9092,1.9092,1.9092,1.9092,1.9092,1.9092,1.9092,1.9092,1.9092,1.9138,1.9295,1.94,1.9705,1.987,1.9969,1.9811,1.9646,1.9426,1.9236,1.9198,1.9099,1.9092,1.9092,1.9092,1.9092,1.9092,1.9092,1.9092,1.9092,1.9092,1.9092,1.9092,1.9092,1.9092,1.9092,1.9092,1.9092,1.9092,2.8651,2.7735,2.742,3.1561,3.1494,3.0907,3.3069,3.3829,3.4002,3.3899,3.3882,3.3613,3.3038,3.3308,3.2962,3.0923,3.195,0.0,0.0,3.1839,3.2982,3.4112,3.5755,3.668,3.6775,3.7769,3.8286,0.0,3.5941,3.4337,3.3177,3.1364,3.0221,2.9742,3.0957,3.2672,3.513,3.4189,3.3896,3.4177,3.227,2.996,2.7297,2.626,2.546,2.4833,2.3746,2.3543,2.3779,2.2435,2.2,2.214,2.0265,1.9713,1.9903,1.9505,1.9217,1.9092,1.9092,1.9092,1.9092,1.9092,1.9092,1.9092,1.9092,1.9092,1.9092,1.9092,1.9092,1.9092,1.9092,1.9092,1.9092,1.9092,1.9092,1.9092,1.9092,1.9092,1.9092,1.9092,1.9092,1.9092,1.9092,1.9092,1.9191,1.9354,1.94,1.9505,1.9916,1.9956,1.9844,1.9433,1.94,1.9282,1.9112,1.9092,1.9092,1.9092,1.9092,1.9092,1.9092,1.9092,1.9092,1.9092,1.9092,1.9092,1.9092,1.9092,1.9092,1.9092,1.9092,1.9092,2.675,2.6839,2.7393,3.0117,3.1102,3.1674,3.2672,3.3355,3.3963,3.4632,3.4223,0.0,0.0,0.0,3.2912,3.2094,0.0,3.3042,3.2119,3.3329,3.4551,3.54,3.6263,3.6919,3.7366,3.7756,3.7854,3.7753,3.7208,3.5944,3.3831,3.2972,3.1679,2.9752,3.1752,3.3675,3.5111,3.348,3.3175,3.4031,2.9849,2.7465,2.6634,2.5464,2.4737,2.4479,2.3445,2.3246,2.3433,2.3326,2.224,2.0716,2.1442,2.0212,1.8283,1.8964,1.9165,1.9092,1.9092,1.9092,1.9092,1.9092,1.9092,1.9092,1.9092,1.9092,1.9092,1.9092,1.9092,1.9092,1.9092,1.9092,1.9092,1.9092,1.9092,1.9092,1.9092,1.9092,1.9092,1.9092,1.9092,1.9092,1.9092,1.9092,1.9119,1.9198,1.9211,1.9237,1.9323,1.9336,1.9303,1.9218,1.9211,1.9178,1.9099,1.9092,1.9092,1.9092,1.9092,1.9092,1.9092,1.9092,1.9092,1.9092,1.9092,1.9092,1.9092,1.9092,1.9092,1.9092,1.9092,2.003,2.7706,2.8024,2.9038,3.1757,3.2603,3.2885,3.3417,3.4009,3.455,3.539,0.0,0.0,0.0,0.0,0.0,0.0,3.3291,3.3553,3.2978,3.4358,3.564,3.626,3.6746,3.7266,3.7644,3.7895,3.7916,3.7782,3.7893,3.7143,3.526,3.5175,3.4617,3.3148,3.4917,3.6385,3.7289,3.525,3.4173,3.3962,2.9831,2.744,2.642,2.5413,2.4806,2.4545,2.3604,2.3883,2.5174,2.3081,2.2044,2.1769,2.3687,2.2776,2.0615,2.1848,2.1545,2.0612,2.0612,1.9912,1.9092,1.9092,1.9092,1.9092,1.9092,1.9092,1.9092,1.9092,1.9092,1.9092,1.9092,1.9092,1.9092,1.9092,1.9092,1.9092,1.9092,1.9092,1.9092,1.9092,1.9092,1.9092,1.9092,1.9092,1.9092,1.9092,1.9092,1.9092,1.9092,1.9092,1.9092,1.9092,1.9092,1.9092,1.9092,1.9092,1.9092,1.9092,1.9092,1.9092,1.9092,1.9092,1.9092,1.9092,1.9092,1.9092,1.9092,1.9092,2.0023,2.1773,2.0729,2.1442,3.0252,3.0341,3.1456,3.4629,3.4684,3.4087,3.469,0.0,3.5508,3.5975,0.0,3.5669,3.5976,0.0,0.0,3.3346,3.4011,3.428,3.381,3.512,3.626,3.6675,3.7379,3.7644,3.7631,3.8034,3.8273,3.7769,3.8147,3.7895,3.6877,3.7379,3.7756,3.7756,3.8663,3.9527,4.0179,3.7718,3.5555,3.3848,3.0671,2.8164,2.6073,2.5483,2.5169,2.5149,2.4271,2.5674,2.8082,2.3012,2.2246,2.4507,2.6119,2.5968,2.4798,2.6097,2.4932,2.2727,2.2727,2.109,1.9092,1.9092,1.9092,1.9092,1.9092,1.9092,1.9092,1.9092,1.9092,1.9092,1.9092,1.9092,1.9092,1.9092,1.9092,1.9092,1.9092,1.9092,1.9092,1.9092,1.9092,1.9092,1.9092,1.9092,1.9092,1.9092,1.9092,1.9092,1.9092,1.9092,1.9092,1.9092,1.9092,1.9092,1.9092,1.9092,1.9092,1.9092,1.9092,1.9092,1.9092,1.9092,1.9092,1.9092,1.9322,1.944,1.944,1.944,2.1663,2.5739,2.3539,2.3547,3.0177,3.1134,3.2156,3.4227,3.4759,3.4787,0.0,0.0,0.0,3.548,3.5505,3.5342,3.5086,3.5154,3.5073,3.4721,3.5553,3.6085,3.5527,3.6579,3.7224,3.6738,3.7379,3.7505,3.7002,3.7505,3.7769,3.7756,3.7769,3.7769,3.7518,3.7644,3.7756,3.7756,3.8754,3.9355,3.9501,3.5685,3.3395,3.2681,2.7546,2.4626,2.3955,2.3844,2.484,2.6929,2.7072,2.885,3.1403,2.885,2.7616,2.7086,2.5879,2.5142,2.4798,2.6097,2.4932,2.2727,2.2727,2.109,1.9092,1.9092,1.9092,1.9092,1.9092,1.9092,1.9092,1.9092,1.9092,1.9092,1.9092,1.9092,1.9092,1.9092,1.9092,1.9092,1.9092,1.9092,1.9092,1.9092,1.9092,1.9092,1.9092,1.9092,1.9092,1.9092,1.9092,1.9092,1.9092,1.9092,1.9092,1.9092,1.9092,1.9092,1.9092,1.9092,1.9092,1.9092,1.9092,1.9092,1.9092,1.9092,1.9092,1.9092,2.0965,2.2022,2.2022,2.2022,2.3539,2.6446,2.5981,2.7027,3.1612,3.2557,3.3735,3.565,3.5994,0.0,0.0,3.6133,3.6212,3.5984,3.5742,3.5701,3.5737,3.5449,3.5253,3.4982,3.5777,3.6358,3.6358,3.6897,3.7007,3.643,3.6632,3.6724,3.6386,3.6877,3.7253,3.7253,3.7518,3.7756,3.7756,3.7756,3.7769,3.8147,3.8605,3.9197,3.9763,3.4863,3.2441,3.2419,2.6712,2.374,2.3339,2.3284,2.4802,2.7397,2.7287,2.9889,3.3723,2.9888,2.9729,3.1682,2.9115,2.8264,2.8523,2.9111,2.8186,2.6437,2.6204,2.3756,2.0847,2.0847,2.003,1.9092,1.9092,1.9092,1.9092,1.9092,1.9092,1.9092,1.9092,1.9092,1.9092,1.9092,1.9092,1.9092,1.9092,1.9092,1.9092,1.9092,1.9092,1.9092,1.9092,1.9092,1.9092,1.9092,1.9092,1.9092,1.9092,1.9092,1.9092,1.9092,1.9092,1.9092,1.9092,1.9092,1.9092,1.9092,1.9092,1.9092,1.9092,1.9092,1.9676,2.0847,2.3422,2.4707,2.4707,2.5981,2.7723,2.9824,2.8533,2.9111,3.3311,3.4305,3.5597,3.7262,3.7125,0.0,3.6811,3.6853,3.67,3.6082,3.5887,3.5899,3.6165,3.5635,3.5213,3.5227,3.5807,3.6319,3.6436,3.648,3.6419,3.5865,3.591,3.5859,3.5789,3.6337,3.6764,3.6713,3.7379,3.7756,3.7756,3.7756,3.7895,3.8286,3.8418,3.8945,3.9881,3.45,3.1894,3.2224,2.6608,2.4075,2.4198,2.4271,2.6086,2.9163,2.879,3.167,3.6192,3.0793,3.1293,3.5137,3.2479,3.1594,3.1916,3.2146,3.1331,2.9918,2.9447,2.6437,2.2609,2.2727,2.1082,1.9092,1.9092,1.9092,1.9092,1.9092,1.9092,1.9092,1.9092,1.9092,1.9092,1.9092,1.9092,1.9092,1.9092,1.9092,1.9092,1.9092,1.9092,1.9092,1.9092,1.9092,1.9092,1.9092,1.9092,1.9092,1.9092,1.9092,1.9092,1.9092,1.9092,1.9092,1.9092,1.9092,1.9092,1.9092,1.9092,1.9092,1.9092,1.9092,2.0265,2.2727,2.4824,2.633,2.7375,2.9814,3.1791,3.3199,3.1195,3.108,3.4398,3.6354,3.7397,3.7679,3.7024,0.0,3.6374,3.5794,3.511,3.4609,3.4839,3.5002,3.4566,3.5244,3.589,3.5833,3.6855,3.6942,3.5369,3.5661,3.5846,3.5198,3.5633,3.5685,3.5123,3.6085,3.6749,3.6724,3.7379,3.7756,3.7756,3.7756,3.7756,3.7769,3.8293,3.8566,3.8696,3.4217,3.1973,3.1661,2.6829,2.5533,2.7486,2.77,3.0667,3.558,3.5739,3.7595,4.0136,3.6299,3.4563,3.4026,3.2535,3.1709,3.149,3.2523,3.1112,2.8659,2.9216,2.6204,2.2148,2.2609,2.1082,1.9092,1.9092,1.9092,1.9092,1.9092,1.9092,1.9092,1.9092,1.9092,1.9092,1.9092,1.9092,1.9092,1.9092,1.9092,1.9092,1.9092,1.9092,1.9092,1.9092,1.9092,1.9092,1.9092,1.9092,1.9092,1.9092,1.9092,1.9092,1.9092,1.9092,1.9092,1.9092,1.9092,1.9092,1.9092,1.9092,1.9092,1.9092,1.9092,2.0265,2.2727,2.3078,2.5399,2.9918,3.2364,3.3748,3.3874,3.3634,3.3634,3.5369,3.6929,3.7605,3.7374,0.0,0.0,3.6693,3.6358,3.6244,3.533,3.5349,3.5556,3.567,3.5835,3.6011,3.5951,3.6384,3.6293,3.5123,3.5163,3.5191,3.4605,3.4733,3.4985,3.4985,3.5796,3.6441,3.6698,3.7379,3.7756,3.7756,3.7756,3.7756,3.7756,3.7942,3.7552,3.6325,3.427,3.2562,3.1335,2.9024,2.8422,2.9321,2.949,3.1723,3.5574,3.5679,3.7111,3.9395,3.7273,3.5988,3.5321,3.3061,3.2146,3.226,3.1698,3.1123,3.0515,3.0861,2.888,2.6088,2.5282,2.3304,2.0972,1.944,1.9092,1.9092,1.9092,1.9092,1.9092,1.9092,1.9092,1.9092,1.9092,1.9092,1.9092,1.9092,1.9092,1.921,1.9558,1.9558,1.9558,1.9558,1.9558,1.944,1.9086,1.9092,1.9092,1.9092,1.9092,1.9092,1.9092,1.9092,1.9092,1.9092,1.9092,1.9092,1.9092,1.9092,1.9092,1.9092,1.9092,2.0265,2.2727,2.424,2.6785,3.0275,3.4169,3.567,3.5001,3.5783,3.6111,3.6208,0.0,0.0,0.0,0.0,0.0,3.7177,3.6916,3.6808,3.621,3.5874,3.5809,3.6166,3.5938,3.5666,3.5683,3.5615,3.5306,3.4786,3.4721,3.4787,3.4678,3.4638,3.487,3.5448,3.6301,3.6937,3.725,3.7769,3.816,3.816,3.7895,3.7379,3.6738,3.6676,3.5741,3.3542,3.3209,3.2352,3.0934,3.0735,3.099,3.1699,3.1699,3.3284,3.6085,3.6085,3.6868,3.8152,3.7153,3.6653,3.6122,3.2728,3.1894,3.2467,3.0295,2.995,3.0746,3.1687,3.0264,2.7935,2.6911,2.4824,2.2257,1.9794,1.9092,1.9092,1.9092,1.9092,1.9092,1.9092,1.9092,1.9092,1.9092,1.9092,1.9092,1.9092,1.9447,2.003,2.0736,2.0736,2.0619,2.0619,2.0383,2.003,1.944,1.921,1.9092,1.9092,1.8856,1.8738,1.8738,1.8738,1.8738,1.862,1.862,1.862,1.862,1.862,1.862,1.862,1.8738,2.0487,2.3982,2.6079,2.8629,3.1883,3.5305,3.6576,3.5808,3.6689,3.7015,0.0,0.0,0.0,3.8546,3.7652,3.6768,3.793,3.7028,3.6014,3.654,3.5822,3.502,3.5019,3.501,3.506,3.4978,3.4592,3.4228,3.4203,3.4203,3.4652,3.5578,3.5693,3.5925,3.6622,3.8191,3.8976,3.8525,3.9043,3.9435,3.9435,3.8286,3.6613,3.4224,3.4176,3.2902,3.0515,3.0693,3.0785,3.0688,3.1135,3.2673,3.5193,3.5193,3.6654,3.9188,3.9188,3.8566,3.7708,3.699,3.643,3.5366,3.1069,3.0505,3.1676,2.8649,2.7143,2.7259,3.0871,2.888,2.5032,2.6213,2.4824,2.2257,1.9794,1.9092,1.9092,1.9092,1.9092,1.9092,1.9092,1.9092,1.9092,1.9092,1.9092,1.9092,1.9092,2.0501,2.203,2.2734,2.2382,2.1913,2.1913,2.1325,2.0736,2.0147,1.9447,1.9092,1.9092,1.8502,1.8147,1.8147,1.8147,1.7916,1.7449,1.733,1.733,1.733,1.733,1.733,1.733,1.7798,2.0936,2.7174,2.7993,3.0786,3.5569,3.5808,3.5808,3.5808,3.5808,3.5808,3.7322,3.7924,3.8249,3.8702,3.8794,3.8824,3.9443,3.8162,3.6971,3.728,3.6152,3.5092,3.4956,3.5282,3.5529,3.5533,3.6048,3.6434,3.6434,3.6434,3.6563,3.691,3.7289,3.7837,3.8326,3.9368,4.0001,4.0267,4.0489,3.9935,3.8247,3.7002,3.5235,3.2854,3.1928,3.1153,3.0379,3.3647,3.4543,3.2911,3.4733,3.5994,3.6927,3.6927,3.7387,3.8241,3.8605,3.6446,3.3051,3.612,3.5272,3.2113,3.1403,3.1069,3.0505,2.6901,2.5972,2.6562,2.6544,2.573,2.4565,2.3748,2.3179,2.2257,1.9794,1.9092,1.9092,1.9092,1.9092,1.9092,1.9092,1.9092,1.921,1.9558,1.9676,1.9912,2.0854,2.1207,2.1325,2.156,2.1795,2.1913,2.1913,2.1795,2.109,1.9558,1.921,1.8738,1.8035,1.8197,1.8429,1.8429,1.8429,1.8435,1.8195,1.767,1.7527,1.8182,1.8021,1.8116,1.8663,1.9198,2.1185,2.4889,2.7202,3.1141,3.694,3.783,3.7717,3.694,3.783,3.8168,3.5281,3.5961,3.6724,3.8049,3.884,3.955,4.0624,3.9471,3.8204,3.827,3.6786,3.5309,3.5073,3.3632,3.2701,3.3318,3.4048,3.4662,3.5097,3.6001,3.6807,3.7213,3.8472,3.9637,4.0127,4.1008,4.1159,4.0523,4.048,3.9423,3.6992,3.5785,3.4749,3.4098,3.2002,3.1337,3.233,3.4977,3.5633,3.405,3.5672,3.6375,3.6362,3.5485,3.5046,3.5054,3.5854,3.4167,3.1184,3.4408,3.3838,3.0839,3.0369,3.0254,2.9803,2.6088,2.4932,2.5282,2.5157,2.4448,2.3514,2.2586,2.2484,2.2257,1.9794,1.9092,1.9092,1.9092,1.9092,1.9092,1.9092,1.9092,1.9092,1.9329,1.9676,2.0501,2.203,2.2148,2.203,2.2265,2.25,2.2617,2.2617,2.239,2.1685,1.9683,1.9204,1.862,1.7449,1.7599,1.7985,1.8312,1.8003,1.8027,1.8461,1.7653,1.7557,1.8306,1.8423,1.8585,1.889,1.9666,2.1773,2.5587,2.7906,3.1839,3.7631,3.8419,3.8419,3.7631,3.8406,3.8855,3.1291,3.1937,3.3074,3.6558,3.7635,3.8515,4.1093,4.0215,3.8911,3.8956,3.707,3.5323,3.4798,3.0425,2.748,2.9051,2.9353,2.9886,3.0961,3.3483,3.5585,3.6575,3.9102,4.1072,4.1676,4.2693,4.2261,3.934,3.9148,3.8187,3.6056,3.4779,3.5126,3.7411,3.3946,3.3264,3.5608,3.4349,3.3812,3.3873,3.3873,3.3885,3.3796,3.1409,3.0196,3.0086,3.1292,3.1785,3.1747,3.1976,3.1976,3.1403,2.8061,2.807,2.9688,2.5999,2.3781,2.3195,2.6106,2.4807,2.1882,2.2367,2.2492,2.214,1.9794,1.9092,1.9092,1.9092,1.9092,1.9092,1.9092,1.9092,1.8856,1.8265,1.9092,2.0501,2.2382,2.3195,2.3789,2.4374,2.4023,2.3672,2.3672,2.3227,2.2178,2.0272,1.944,1.862,1.7449,1.6755,1.6733,1.7683,1.7019,1.6951,1.8042,1.7497,1.7313,1.7689,1.8536,1.8744,1.8172,1.9335,2.2921,2.9041,2.9626,3.2411,3.7531,3.7531,3.7644,3.7756,3.7756,3.7756,3.0687,3.2047,3.2948,3.5211,3.4915,3.4691,3.7143,3.5868,3.4309,3.4844,3.2771,3.0957,3.1452,3.1105,3.0798,3.1229,3.2839,3.4014,3.4347,3.5007,3.555,3.5829,3.6981,3.7712,3.7878,3.861,3.8819,3.8066,3.7976,3.788,3.7867,3.6622,3.6165,3.6754,3.4097,3.2811,3.3013,3.1804,3.1271,3.1299,3.1299,3.1528,3.1815,3.1162,2.919,2.6302,2.8378,2.8272,2.6795,3.0599,2.9908,2.6688,2.7616,2.7742,2.718,2.4374,2.3086,2.2609,2.1545,2.0258,1.9079,1.9204,1.9558,1.9912,1.921,1.9092,1.9092,1.9092,1.9092,1.9092,1.9092,1.9092,1.8968,1.8856,1.944,2.0265,2.1325,2.1207,2.1318,2.2382,2.25,2.2617,2.3086,2.2273,2.0979,1.9558,1.921,1.862,1.7449,1.7743,1.8136,1.8439,1.8148,1.8167,1.8545,1.7761,1.7557,1.8312,1.8303,1.8597,1.9055,2.0154,2.3171,2.8484,2.7925,3.0013,3.4965,3.4965,3.5897,3.7756,3.7756,3.7756,2.7532,2.931,3.0778,3.2842,3.3192,3.3582,3.5648,3.4991,3.3837,3.3838,3.0713,2.8199,2.8667,2.8976,2.9258,2.96,3.0927,3.2042,3.2598,3.3781,3.4535,3.45,3.6009,3.6953,3.7005,3.7353,3.7048,3.6036,3.693,3.7193,3.6541,3.5833,3.5873,3.6917,3.4116,3.2572,3.2867,3.1915,3.1278,3.0618,2.9878,2.9624,2.9905,2.8718,2.7212,2.5667,2.6999,2.6776,2.5784,2.8543,2.808,2.5667,2.7055,2.718,2.6492,2.5083,2.414,2.343,2.2022,2.0619,1.9329,1.9329,1.9204,1.9092,1.9092,1.9092,1.921,1.9794,1.9912,1.9912,1.9912,1.9912,1.9676,1.8856,1.9322,2.0265,2.1207,2.109,2.1207,2.2148,2.1913,2.1795,2.2734,2.1795,2.0501,1.921,1.9092,1.862,1.7449,1.77,1.8201,1.856,1.8346,1.825,1.8729,1.8379,1.8272,1.8681,1.9138,1.9639,2.0047,2.0948,2.3413,2.7472,2.9583,3.2364,3.5934,3.6224,3.7028,3.8081,3.8306,3.8531,2.399,2.5665,2.7827,3.0059,3.153,3.2786,3.4607,3.4844,3.4429,3.3584,2.9903,2.6787,2.6728,2.6242,2.609,2.6648,2.7262,2.7994,2.9002,3.1225,3.284,3.2822,3.5001,3.6549,3.6517,3.6541,3.5763,3.3717,3.5381,3.5867,3.4246,3.4152,3.5157,3.7517,3.4409,3.298,3.3599,3.3016,3.1861,3.0254,2.8685,2.7964,2.7953,2.5891,2.5614,2.6608,2.6608,2.6608,2.6608,2.6608,2.6608,2.6608,2.6608,2.6841,2.7064,2.7074,2.6357,2.5533,2.5066,2.343,2.1435,2.0972,2.0265,1.944,1.9322,1.944,1.9794,2.0972,2.1207,2.1207,2.109,2.0972,2.0501,1.862,1.9092,2.0147,2.1325,2.1678,2.203,2.25,2.1795,2.156,2.2382,2.156,2.0383,1.9204,1.9092,1.8738,1.7686,1.7567,1.7896,1.8612,1.8065,1.7988,1.894,1.9023,1.8967,1.8745,2.0182,2.1207,2.1428,2.2273,2.4023,2.6776,3.2364,3.6211,3.8074,3.867,3.8855,3.863,3.9178,3.9402,2.4743,2.5471,2.6198,2.7839,2.754,2.7266,2.8726,2.9072,2.9075,2.9242,2.8353,2.7484,2.702,2.7475,2.7855,2.7651,2.8865,2.9847,3.0076,3.0493,3.0786,3.085,3.1238,3.1511,3.1566,3.1576,3.1439,3.0946,3.1324,3.2501,3.4533,3.4654,3.5774,3.8238,3.6689,3.4725,3.2383,3.1266,2.9125,2.5811,2.6061,2.6115,2.6089,2.6268,2.6366,2.6608,2.6608,2.6608,2.6608,2.6608,2.6608,2.6608,2.6608,2.7867,2.9583,2.9026,2.9352,2.9657,2.7143,2.5273,2.3639,2.1082,2.0736,2.1325,2.0854,2.1442,2.2265,2.25,2.2617,2.2382,2.1325,2.0972,2.0619,1.9204,1.9092,1.9329,1.944,2.0383,2.109,2.0619,2.1678,2.2148,2.0736,1.9912,1.9322,1.9092,1.9092,1.8974,1.8738,1.8738,1.8757,1.8928,1.8889,1.8777,1.8993,1.9027,1.8994,1.8928,2.0293,2.189,2.3957,2.5612,2.6994,2.805,3.1071,3.3913,3.626,3.6362,3.7444,3.929,3.9402,3.9402,2.3931,2.4179,2.435,2.5699,2.5507,2.5316,2.674,2.734,2.7567,2.7773,2.7947,2.7962,2.764,2.8236,2.853,2.8094,2.8956,2.9594,2.9594,2.9594,2.9654,2.9619,2.9843,2.9877,2.9872,3.0159,3.0327,3.0327,3.1555,3.289,3.4353,3.4336,3.4904,3.6092,3.4302,3.2268,3.0127,2.9918,2.8609,2.6213,2.6813,2.6957,2.6743,2.6967,2.6967,2.6608,2.6608,2.6608,2.6608,2.6608,2.6608,2.6608,2.6608,2.7297,2.8331,2.8099,2.809,2.807,2.6581,2.5057,2.3539,2.2022,2.1442,2.1442,2.1442,2.1913,2.2617,2.3555,2.3906,2.3672,2.3078,2.25,2.1678,2.0383,2.109,2.1795,2.1207,2.156,2.1678,2.0736,2.1325,2.1442,1.9794,1.9794,1.9794,1.921,1.9092,1.9092,1.9092,1.9092,1.9092,1.9092,1.9092,1.8856,1.862,1.8856,1.885,1.862,2.003,2.1663,2.3163,2.6943,2.9634,3.1205,3.3643,3.5362,3.6262,3.7843,3.8994,3.9836,4.0199,4.0422,2.316,2.3169,2.318,2.3995,2.4475,2.5021,2.6228,2.6679,2.692,2.7027,2.7538,2.8009,2.7915,2.845,2.8789,2.822,2.8642,2.8935,2.8935,2.8935,2.8961,2.8958,2.9245,2.9375,2.9413,2.9925,3.017,3.018,3.2049,3.3172,3.3172,3.3197,3.3278,3.3278,3.131,2.9855,2.8794,2.9257,2.892,2.778,2.836,2.8244,2.7548,2.7896,2.7548,2.6841,2.6725,2.6608,2.6608,2.6608,2.6608,2.6608,2.6608,2.6841,2.7171,2.718,2.7055,2.6697,2.6241,2.5075,2.3781,2.2969,2.2265,2.1795,2.2265,2.2382,2.2852,2.4608,2.4958,2.4841,2.4724,2.4023,2.2969,2.1678,2.2852,2.4023,2.2734,2.2734,2.25,2.1207,2.0972,2.0619,1.9329,1.9912,2.0265,1.9204,1.9092,1.9092,1.9092,1.9092,1.9092,1.9092,1.9092,1.8856,1.8383,1.8738,1.8974,1.8738,2.0397,2.2022,2.3272,2.7847,3.1216,3.301,3.5525,3.6522,3.616,3.8985,4.0199,3.971,4.0756,4.123,2.3829,2.38,2.3674,2.3302,2.4285,2.5283,2.5774,2.5595,2.5413,2.5941,2.679,2.7369,2.6866,2.8025,2.8789,2.822,2.8642,2.8935,2.8935,2.8935,2.8925,2.9003,2.8956,2.8971,2.9068,2.9406,2.9576,2.9657,3.0275,3.063,3.063,3.0641,3.0652,3.0652,3.0432,3.0327,3.0201,3.0201,2.9614,2.8321,2.891,2.8698,2.7664,2.8688,2.8582,2.7432,2.6841,2.6608,2.6608,2.6608,2.6608,2.6608,2.6608,2.7626,2.9101,2.9131,2.9698,3.0233,2.8061,2.7143,2.6446,2.3078,2.3086,2.4257,2.3664,2.4023,2.4724,2.6026,2.6017,2.5434,2.4841,2.4608,2.4257,2.3086,2.2969,2.2734,2.1442,2.2148,2.25,2.1207,2.0972,2.0619,1.9329,1.921,1.921,1.9092,1.9092,1.9092,1.9092,1.9092,1.9092,1.9092,1.9092,1.8974,1.8974,1.8968,1.9558,2.0619,2.1958,2.424,2.7646,2.9406,3.0474,3.061,3.2969,3.418,3.4123,3.6651,3.7869,3.7791,4.0199,4.123,2.2624,2.2891,2.2728,2.2653,2.3603,2.4373,2.4138,2.4384,2.5057,2.6149,2.6982,2.7477,2.7301,2.7666,2.8066,2.7889,2.8004,2.8119,2.8119,2.8119,2.8119,2.8119,2.8359,2.846,2.8455,2.8945,2.9322,2.9505,2.9701,3.0043,3.0295,3.0327,3.0327,3.0327,3.0327,3.0327,3.0327,3.0327,3.0086,2.9498,2.9844,2.9739,2.9287,2.9267,2.9151,2.8582,2.7664,2.7199,2.7199,2.6841,2.6608,2.6608,2.6608,2.7064,2.7742,2.7761,2.7751,2.7723,2.6697,2.6115,2.5533,2.414,2.414,2.4724,2.4841,2.5075,2.5434,2.6375,2.6492,2.6142,2.59,2.5317,2.4491,2.3672,2.3438,2.2969,2.1325,2.1442,2.1325,2.003,1.9794,1.9676,1.9092,1.9092,1.9092,1.9092,1.9092,1.9092,1.9092,1.9092,1.9092,1.9092,1.9092,1.9329,2.0147,2.0265,2.0736,2.203,2.3337,2.4841,2.6641,2.6901,2.7083,2.7536,2.9855,3.1359,3.1718,3.4121,3.5305,3.5394,3.7791,3.894,2.1186,2.1943,2.2213,2.2675,2.3093,2.3409,2.3375,2.37,2.4354,2.5503,2.6433,2.7165,2.727,2.748,2.77,2.7795,2.7784,2.7889,2.7994,2.8109,2.8109,2.8109,2.8281,2.8472,2.8259,2.8672,2.9011,2.9129,2.9408,2.9837,3.0376,3.0588,3.0568,3.0557,3.0557,3.0557,3.0327,3.0327,3.0327,3.0327,3.0327,3.0327,3.0316,2.9855,2.9498,2.9267,2.8698,2.8128,2.7548,2.7306,2.6957,2.6608,2.6608,2.6492,2.6375,2.6608,2.6142,2.5434,2.555,2.5317,2.4958,2.4724,2.4841,2.5075,2.555,2.555,2.555,2.6375,2.6492,2.6375,2.6375,2.5667,2.4841,2.414,2.414,2.3898,2.2382,2.2022,2.1795,2.0847,2.0501,2.0147,2.0147,2.0147,2.003,1.9676,1.9676,1.9676,1.9676,1.9329,1.921,1.9578,1.9919,2.0619,2.1442,2.156,2.2148,2.3438,2.4031,2.4742,2.5343,2.4975,2.485,2.5343,2.7115,2.8233,2.8705,3.1255,3.2537,3.2537,3.5155,3.6425,2.0043,2.1162,2.2763,2.3644,2.3131,2.2756,2.4135,2.369,2.31,2.341,2.4753,2.5988,2.6524,2.7165,2.7795,2.8287,2.8391,2.86,2.9018,2.9122,2.9122,2.9122,2.9133,2.8924,2.8391,2.8853,2.8886,2.8278,2.9016,2.9787,3.0465,3.0979,3.1303,3.127,3.127,3.1029,3.0327,3.0327,3.0327,3.0327,3.0327,3.0327,3.0327,3.0327,2.997,2.9382,2.997,2.9277,2.7664,2.8099,2.7635,2.6608,2.6608,2.6259,2.5784,2.6375,2.5784,2.4724,2.5434,2.5667,2.555,2.4841,2.5083,2.5667,2.5667,2.52,2.4958,2.6259,2.6142,2.5667,2.5667,2.5667,2.5434,2.4841,2.5192,2.5434,2.4841,2.4608,2.4608,2.4608,2.3672,2.2852,2.2852,2.2852,2.25,2.1207,2.0972,2.0972,2.0972,1.9794,1.9578,2.0801,2.2178,2.2852,2.2969,2.2969,2.3438,2.4608,2.4048,2.4048,2.4608,2.4724,2.4724,2.4724,2.4724,2.4724,2.4724,2.7829,2.9437,2.9437,3.2422,3.3906,1.9608,2.1274,2.2608,2.2448,2.2698,2.3256,2.3965,2.357,2.3366,2.4463,2.5435,2.6245,2.7103,2.773,2.8047,2.834,2.8344,2.8345,2.8644,2.8308,2.8109,2.8109,2.8109,2.7994,2.7889,2.8015,2.8281,2.8691,2.8997,2.9493,3.0355,3.0578,3.0683,3.0673,3.0673,3.0557,3.0327,3.0327,3.0327,3.0327,3.0327,3.0327,3.0327,3.0327,3.0201,2.997,2.9729,2.9624,2.9403,2.8351,2.7877,2.7751,2.6957,2.6492,2.6375,2.6608,2.6375,2.6017,2.6259,2.6375,2.6259,2.6142,2.6142,2.6375,2.6375,2.6142,2.6133,2.6492,2.6492,2.625,2.5784,2.5667,2.5434,2.4257,2.414,2.414,2.3672,2.3438,2.3438,2.3438,2.3203,2.2969,2.2969,2.2969,2.2852,2.2382,2.2265,2.2265,2.2265,2.2015,2.1897,2.2288,2.2625,2.3086,2.3438,2.3438,2.3781,2.4608,2.4031,2.3789,2.4023,2.3688,2.3688,2.4023,2.4023,2.4257,2.4724,2.5649,2.6348,2.6929,2.9562,3.1048,1.9224,2.1362,2.2938,2.2738,2.2846,2.3117,2.3313,2.3428,2.3711,2.4524,2.5395,2.6228,2.6939,2.7614,2.8268,2.8609,2.8611,2.8536,2.8676,2.8391,2.8193,2.8203,2.8203,2.8099,2.7889,2.7889,2.809,2.8621,2.883,2.9371,3.0355,3.0578,3.0673,3.0673,3.0673,3.0557,3.0327,3.0327,3.0327,3.0327,3.0327,3.0327,3.0327,3.0327,3.0327,3.0327,3.0201,3.0086,2.997,2.9277,2.892,2.8678,2.7635,2.7064,2.6608,2.6608,2.6608,2.6608,2.6608,2.6608,2.6608,2.6608,2.6608,2.6608,2.6608,2.6608,2.6608,2.6608,2.6608,2.6492,2.6133,2.59,2.555,2.4958,2.4608,2.4491,2.4382,2.4382,2.4382,2.4382,2.4382,2.4382,2.4382,2.414,2.3906,2.3672,2.343,2.3304,2.3555,2.3179,2.3296,2.4257,2.3906,2.3906,2.4724,2.4608,2.4608,2.5075,2.4491,2.414,2.414,2.3805,2.3805,2.414,2.414,2.4257,2.4724,2.4958,2.5317,2.5667,2.751,2.8543,1.9023,2.1274,2.3456,2.3814,2.3346,2.2789,2.2621,2.3247,2.3966,2.3996,2.5045,2.6044,2.6137,2.7175,2.8331,2.9028,2.9146,2.9069,2.9095,2.91,2.9089,2.9018,2.9029,2.882,2.8391,2.8287,2.8269,2.8213,2.8642,2.9303,3.0328,3.0914,3.1184,3.1216,3.1216,3.0882,3.0327,3.0327,3.0327,3.0327,3.0327,3.0327,3.0327,3.0327,3.0327,3.0327,3.0914,3.0557,2.9614,3.0641,3.0526,2.9382,2.8784,2.7867,2.6841,2.6841,2.6725,2.6608,2.6608,2.6608,2.6608,2.6608,2.6608,2.6608,2.6608,2.6608,2.6608,2.6608,2.6608,2.6608,2.6608,2.6142,2.59,2.6492,2.6142,2.59,2.6492,2.6608,2.6608,2.6608,2.6608,2.6608,2.6608,2.6133,2.555,2.4958,2.4349,2.4107,2.4724,2.3881,2.4115,2.6366,2.555,2.5317,2.6492,2.6017,2.5667,2.5667,2.5075,2.4724,2.4724,2.4724,2.4724,2.4724,2.4724,2.4724,2.4724,2.5317,2.5667,2.5667,2.6259,2.6608,1.9304,2.0757,2.2346,2.2439,2.2849,2.3192,2.316,2.3536,2.4143,2.4974,2.5568,2.6137,2.6556,2.724,2.7878,2.8501,2.8461,2.848,2.8517,2.8193,2.7994,2.8005,2.8005,2.79,2.7795,2.7784,2.7879,2.8116,2.8349,2.8611,2.9292,2.9419,2.9651,2.9917,2.9927,3.0085,3.0316,3.0327,3.0327,3.0327,3.0327,3.0327,3.0327,3.0327,3.0327,3.0327,3.0442,3.0673,3.0788,3.0075,3.018,3.0756,2.9603,2.9267,2.9277,2.8331,2.7413,2.6608,2.6608,2.6608,2.6608,2.6608,2.6608,2.6608,2.6608,2.6608,2.6608,2.6608,2.6608,2.6608,2.6608,2.6492,2.6492,2.6608,2.6492,2.6492,2.6608,2.6608,2.6608,2.6608,2.6608,2.6608,2.6608,2.6492,2.6375,2.625,2.6017,2.6017,2.6142,2.59,2.6017,2.6608,2.6375,2.625,2.6608,2.6017,2.5667,2.5667,2.5075,2.4724,2.4724,2.4724,2.4724,2.4724,2.4724,2.4724,2.4724,2.4841,2.5192,2.5667,2.5784,2.6133,2.0106,2.1283,2.2232,2.2017,2.2496,2.313,2.3311,2.3652,2.4249,2.5073,2.5516,2.5887,2.6417,2.7125,2.7773,2.822,2.8189,2.8163,2.8047,2.7784,2.7596,2.7596,2.7596,2.7596,2.7596,2.7596,2.7773,2.8116,2.847,2.8789,2.9244,2.9265,2.9477,2.9953,2.9539,2.9636,3.0316,3.0352,3.0473,3.0459,3.0459,3.0336,3.0327,3.0327,3.0327,3.0327,0.0,3.0557,3.0799,3.0442,3.0662,3.1238,3.0536,3.0421,3.0652,2.9614,2.8457,2.7384,2.6628,2.6342,2.6342,2.6342,2.6342,2.6379,2.6553,2.6608,2.6608,2.6608,2.6608,2.6608,2.6608,2.6608,2.6608,2.6608,2.6608,2.6608,2.6608,2.6608,2.6608,2.6608,2.6608,2.6608,2.6608,2.6375,2.6259,2.6608,2.6375,2.625,2.6608,2.6608,2.6608,2.6608,2.6608,2.6608,2.6608,2.625,2.6017,2.5667,2.555,2.555,2.555,2.555,2.555,2.555,2.555,2.555,2.555,2.555,2.5784,2.6133,2.6133,2.625,2.1157,2.2039,2.2549,2.2118,2.2394,2.2987,2.3386,2.3867,2.4446,2.4927,2.5272,2.5712,2.612,2.6905,2.7669,2.8019,2.8191,2.8098,2.7795,2.77,2.7596,2.7596,2.7596,2.7596,2.7596,2.769,2.7848,2.8226,2.8803,2.9297,2.9577,2.9599,2.9847,3.0397,2.9613,2.9461,3.0336,3.0346,3.0394,3.0515,3.0478,3.0509,3.0442,3.0442,3.0547,3.0547,0.0,3.0547,3.0662,3.1134,3.1446,3.1496,3.1463,3.1408,3.1354,3.0794,2.9753,2.865,2.7063,2.6269,2.6042,2.5928,2.5928,2.6002,2.6397,2.6525,2.6651,2.6822,2.6841,2.6841,2.6841,2.6678,2.6535,2.6715,2.6678,2.6535,2.659,2.6608,2.6608,2.6608,2.6608,2.6608,2.6608,2.6142,2.6026,2.6608,2.6142,2.6017,2.6608,2.6608,2.6608,2.6608,2.6608,2.6608,2.6608,2.6608,2.6375,2.5784,2.6375,2.6608,2.6608,2.6608,2.6608,2.6608,2.6608,2.6608,2.6608,2.6608,2.6608,2.6608,2.6608,2.6608,2.1809,2.1976,2.209,2.1996,2.2664,2.3462,2.3915,2.4624,2.5283,2.5356,2.5754,2.611,2.6193,2.6622,2.7135,2.7648,2.8058,2.8332,2.8308,2.7889,2.7596,2.7596,2.7596,2.7596,2.7596,2.7994,2.8319,2.8383,2.8814,2.9172,2.9238,2.9249,2.9444,2.9791,2.9784,3.0023,3.0483,3.011,3.0052,3.0526,3.0366,3.0599,3.1155,3.1155,3.1364,3.1802,0.0,0.0,3.1802,3.1916,3.2015,3.2075,3.2075,3.2172,3.2246,3.1575,3.1123,3.077,2.894,2.7369,2.6166,2.572,2.5608,2.557,2.5993,2.6112,2.6415,2.7684,2.778,2.7548,2.8022,2.7176,2.6319,2.724,2.6821,2.6204,2.6535,2.6608,2.6608,2.6608,2.6608,2.6608,2.6608,2.6608,2.6492,2.6608,2.6608,2.6492,2.6608,2.6608,2.6608,2.6608,2.6608,2.6608,2.6608,2.6608,2.6608,2.6492,2.6608,2.6608,2.6608,2.6608,2.6608,2.6608,2.6608,2.6608,2.6608,2.6608,2.6608,2.6608,2.6608,2.6608,2.1976,2.2163,2.2288,2.2038,2.2562,2.3268,2.364,2.4069,2.4591,2.5296,2.5667,2.5998,2.6547,2.7078,2.7478,2.7931,2.8481,2.8809,2.8809,2.8402,2.7889,2.7585,2.7596,2.7596,2.7596,2.8088,2.8391,2.8391,2.9238,2.9666,2.9666,2.9666,2.9887,3.0281,2.9815,2.991,3.0616,3.0195,3.0201,3.0625,3.0528,3.0669,3.082,3.082,3.1044,3.1257,3.1257,0.0,3.1257,3.1257,3.1236,3.1357,3.1677,3.1871,3.1894,3.2015,3.1555,3.0888,3.0001,2.8429,2.6716,2.5832,2.5403,2.5313,2.627,2.6373,2.6322,2.6749,2.6646,2.6523,2.675,2.6279,2.5848,2.6373,2.627,2.6186,2.6363,2.6578,2.6728,2.6728,2.6683,2.6608,2.6608,2.6608,2.6608,2.6608,2.6608,2.6608,2.6608,2.6608,2.6608,2.6608,2.6608,2.6608,2.6608,2.6608,2.6608,2.6608,2.6608,2.6608,2.6608,2.6608,2.6608,2.6608,2.6608,2.6608,2.6608,2.6608,2.6608,2.6608,2.6608,2.6608,2.1976,0.0,2.2792,2.2247,2.2729,2.3383,0.0,2.3941,2.4307,2.5415,2.5649,2.5896,2.6855,2.7428,2.7894,2.8292,2.8865,2.9178,2.9111,2.8785,2.8396,2.7995,2.7815,2.7742,2.7742,2.8152,2.8485,2.86,2.9562,3.0198,3.0291,3.0301,3.0436,3.0695,2.9906,2.9759,3.0565,3.0348,3.0475,3.0706,3.0725,3.0661,3.0703,3.0703,3.0812,3.1042,3.1042,0.0,3.1042,3.1042,3.0855,3.0852,3.1384,3.1412,3.1417,3.2087,3.1644,3.0747,3.0639,2.9437,2.7863,2.6676,2.5934,2.5656,2.6611,2.7032,2.6924,2.6491,2.6173,2.6062,2.5951,2.5553,2.5396,2.5599,2.5775,2.5949,2.6043,2.6419,2.6637,2.6637,2.6674,2.6669,2.6669,2.6859,2.6808,2.6693,2.6785,2.6841,2.6608,2.6608,2.6608,2.6608,2.6608,2.6608,2.6608,2.6725,2.6957,2.7074,2.6957,2.6957,2.7074,2.6957,2.685,2.685,2.685,2.6841,2.6608,2.6608,2.6608,2.6608,2.6608,2.6608,0.0,2.2698,2.3352,2.2813,2.3682,2.4748,2.4827,2.5053,0.0,2.6025,2.6224,2.6368,2.6951,2.7428,2.7961,2.8362,2.8782,2.9122,2.9157,2.9146,2.9028,2.8898,2.8464,2.8095,2.8095,2.8228,2.86,2.9018,2.977,3.0291,3.0787,3.0716,3.0672,3.0706,3.029,3.0097,3.0132,3.0486,3.0638,3.0718,3.0654,3.0888,3.1446,3.1446,3.1785,0.0,3.2354,3.2354,0.0,3.2354,3.2049,3.1593,3.1593,3.1407,3.0996,3.1528,3.1632,3.1528,3.0996,3.0441,2.9781,2.8539,2.7805,2.7258,2.6677,2.763,2.8974,2.8799,2.8264,2.7712,2.7179,2.6017,2.5173,2.5977,2.556,2.5064,2.5433,2.5979,2.6331,2.6331,2.6693,2.7046,2.7046,2.7367,2.7517,2.694,2.7176,2.7315,2.6725,2.6608,2.6608,2.6608,2.6608,2.6608,2.6608,2.7199,2.778,2.8254,2.778,2.778,2.8254,2.778,2.7548,2.7548,2.7548,2.7199,2.6608,2.6608,2.6608,2.6608,2.6608,2.6608,2.2162,2.2764,2.295,2.2768,2.3577,2.4434,2.4817,2.5005,2.5396,2.645,2.6705,2.6844,2.7403,2.7945,2.8382,2.882,2.9032,2.9283,2.9609,2.9274,2.9092,2.9058,2.8653,2.8299,2.827,2.8394,2.8496,2.8705,2.9259,2.9705,2.9898,2.9897,2.9966,3.0393,3.0129,3.0198,3.0597,3.0462,3.0556,3.0869,3.0445,3.0536,3.1148,3.0748,3.096,3.1477,3.1477,3.1477,0.0,3.1477,3.136,3.1172,3.1172,3.1055,3.089,3.1098,3.1201,3.1201,3.0994,3.0579,2.9967,2.9122,2.8496,2.7994,2.733,2.8122,2.901,2.8334,2.7425,2.6578,2.6374,2.54,2.4566,2.5368,2.5497,2.5644,2.612,2.658,2.6985,2.6985,2.6993,2.7147,2.7411,2.771,2.7793,2.7837,2.7906,2.7916,2.7406,2.7025,2.6796,2.6796,2.6461,2.6351,2.659,2.685,2.7074,2.7315,2.7083,2.7315,2.7906,2.7674,2.7656,2.7731,2.7721,2.7471,2.6872,2.6872,2.6779,2.6796,2.6796,2.6706,2.2315,2.2826,2.3118,2.2998,2.3688,2.4612,2.4939,2.5303,2.5976,2.7251,2.7635,2.7788,2.7992,2.8614,2.9084,2.9243,2.9345,2.9602,3.0149,2.9575,2.9351,2.9547,2.9306,2.8974,2.8861,2.8557,2.8421,2.8463,2.8855,2.9167,2.9379,2.9468,2.9758,3.007,3.0386,3.0644,3.1158,3.0763,3.0858,3.1098,3.0591,3.0591,3.089,3.0487,3.0591,3.089,3.089,3.089,0.0,3.089,3.089,3.089,3.089,3.089,3.089,3.089,3.089,3.089,3.089,3.0695,3.0291,2.9863,2.9435,2.9111,2.8798,2.9111,2.9539,2.8798,2.7763,2.6724,2.5988,2.525,2.4712,2.4712,2.5038,2.5461,2.5777,2.6321,2.6636,2.6636,2.6668,2.6865,2.7371,2.7648,2.7999,2.8064,2.8441,2.8385,2.768,2.7391,2.7128,2.6892,2.657,2.6634,2.7384,2.7529,2.7529,2.7771,2.7645,2.7771,2.8476,2.8235,2.8214,2.8253,2.8243,2.7921,2.7264,2.7264,2.7119,2.6927,2.6927,2.6863,2.2317,2.3153,2.3948,2.3488,2.4424,2.5442,2.5485,2.6303,2.7329,2.8399,2.9002,2.9201,2.8708,2.9436,2.9952,2.9447,2.9717,3.015,3.0577,3.0153,2.9903,3.0462,3.0467,3.0307,2.9937,2.8956,2.8406,2.8598,2.8553,2.8762,2.9267,2.9727,3.0012,3.0153,3.1146,3.1729,3.1729,3.1671,3.1731,3.1627,3.1098,3.089,3.089,3.089,3.089,3.089,3.089,3.089,0.0,3.089,3.089,3.089,3.089,3.089,3.089,3.089,3.089,3.089,3.089,3.089,3.089,3.089,3.089,3.089,3.089,3.089,3.089,3.089,3.006,2.8705,2.6409,2.5882,2.5566,2.4395,2.4183,2.4078,2.4183,2.4606,2.5144,2.5144,2.5566,2.5988,2.6524,2.7465,2.8001,2.7465,2.853,2.8829,2.7297,2.7441,2.7582,2.6892,2.6892,2.7519,2.9216,2.9372,2.9614,3.0327,2.9739,2.9614,3.0316,2.9729,2.9382,2.9372,2.9372,2.8805,2.7808,2.7808,2.7592,2.7069,2.7069,2.7069,2.2698,2.3153,2.3334,2.4167,2.4718,2.5338,2.6295,2.6483,2.6813,2.784,2.7885,2.788,2.8472,2.8558,2.863,2.9232,2.9141,2.9024,2.9125,2.8952,2.9027,2.9602,2.966,2.9546,2.9506,2.8903,2.8326,2.7959,2.794,2.8296,2.8739,2.9248,2.9846,3.0607,3.1009,3.1273,3.1695,3.1337,3.1098,3.1098,3.0602,3.0591,3.089,3.0487,3.0591,3.089,3.089,3.089,0.0,2.9215,2.9528,3.0775,2.9215,2.9528,3.089,3.089,3.089,3.089,3.089,3.089,3.089,3.089,3.089,3.089,3.089,3.089,3.089,3.089,3.0683,3.006,2.86,2.7249,2.6409,2.6494,2.6188,2.5988,2.6524,2.6734,2.685,2.685,2.6955,2.7258,2.7674,2.832,2.8777,2.8863,2.9515,2.9763,2.8949,2.8652,2.8394,2.8158,2.8158,2.8337,2.8669,2.8708,2.8708,2.894,2.8824,2.893,2.9614,2.9498,2.9345,2.9505,2.9494,2.9154,2.8579,2.8579,2.8507,2.8384,2.8276,2.8193,2.3102,2.342,2.355,2.4571,2.5001,2.5253,2.6017,2.6388,2.6797,2.7638,2.8191,2.8653,2.8855,2.9114,2.9362,2.9353,2.9366,2.941,2.9203,2.9299,2.9437,2.961,2.9791,2.9685,2.9381,2.9092,2.8667,2.803,2.7833,2.803,2.8537,2.9048,2.9882,3.0823,3.1135,3.1502,3.2029,3.1512,3.1201,3.1201,3.0695,3.0591,3.089,3.0591,3.0591,3.089,3.089,3.089,0.0,2.8485,2.838,2.9424,2.8171,2.838,2.9736,3.0568,3.089,3.089,3.089,3.089,3.089,3.089,3.089,3.089,3.089,3.089,3.089,3.089,3.089,3.0787,3.006,2.8705,2.7564,2.7344,2.7134,2.7039,2.6945,2.706,2.7165,2.6945,2.6955,2.7026,2.7505,2.8036,2.8367,2.8371,2.9296,2.9711,2.8843,2.8968,2.8959,2.8733,2.8148,2.7679,2.7598,2.8484,2.9171,2.9171,2.9171,2.893,2.8321,2.8321,2.7848,2.6901,2.7825,2.8187,2.774,2.8762,2.9113,2.8935,2.8894,2.8795,2.3666,2.3865,2.4279,2.4904,2.5315,2.5378,2.5148,2.6017,2.7069,2.7753,2.9272,3.0338,2.961,3.0509,3.095,2.9682,3.0052,3.0417,3.0117,3.0307,3.0427,3.013,3.0481,3.0295,2.9382,2.9292,2.9052,2.86,2.8157,2.811,2.8509,2.9035,2.9706,3.0839,3.1302,3.1761,3.2343,3.1798,3.1627,3.1627,3.1098,3.0787,3.0579,3.0579,3.0464,3.0256,3.0256,3.0256,0.0,2.7847,2.7218,2.7543,2.7323,2.7428,2.7857,3.0048,3.0671,3.036,3.0787,3.0787,3.0671,3.089,3.0787,3.0579,3.0579,3.0648,3.0601,3.0601,3.0705,3.0717,3.0613,3.0025,2.9029,2.7354,2.7239,2.7229,2.6304,2.6198,2.6198,2.6103,2.5671,2.5662,2.6399,2.6653,2.6705,2.6328,2.7761,2.8378,2.7112,2.8044,2.8672,2.8211,2.6816,2.5892,2.5892,2.8093,2.9606,2.9606,2.9647,2.8609,2.6391,2.6302,2.5148,2.2804,2.5032,2.6041,2.5565,2.7828,2.8734,2.8425,2.8394,2.8394,2.4455,2.4565,2.4535,2.6161,2.6026,2.5652,2.6413,2.6186,2.6274,2.8063,2.8145,2.8381,3.0106,2.9791,2.9394,2.986,2.9453,2.9163,2.9469,2.928,2.9115,2.9477,2.9216,2.9167,2.9379,2.8951,2.8728,2.858,2.8448,2.8412,2.8532,2.8654,2.926,3.0273,3.0406,3.0681,3.1206,3.1103,3.1098,3.1098,3.0994,2.9944,2.8265,2.8265,2.7313,2.5613,2.5613,2.5613,0.0,2.3177,2.4349,2.7428,2.5623,2.5948,2.7857,3.0048,2.8672,2.6034,2.9621,2.9736,2.8589,3.0371,2.9736,2.8265,2.8265,2.8421,2.8423,2.8423,2.8842,2.916,2.8627,2.9751,3.0798,2.9666,2.8077,2.6998,2.7648,2.5527,2.4156,2.6734,2.4376,2.2648,2.5039,2.3906,2.2773,2.3199,2.3503,2.364,2.3367,2.3597,2.37,2.3588,2.3243,2.3019,2.3019,2.3543,2.3932,2.3932,2.4084,2.4,2.3427,2.3476,2.3272,2.2804,2.3272,2.3473,2.34,2.3805,2.3962,2.3877,2.3708,2.4527,2.4712,2.484,2.4763,2.5981,2.6241,2.6204,2.6263,2.6401,2.6858,2.798,2.8544,2.9182,3.0441,2.9307,2.8355,2.8606,2.7245,2.6265,2.6716,2.6555,2.6742,2.77,2.7886,2.8178,2.8935,2.8935,2.8935,2.891,2.8923,2.8085,2.6202,2.6077,2.6715,2.8262,2.8033,2.8194,2.8979,2.8921,2.8547,2.7616,2.7616,2.7093,2.5948,2.7114,2.6904,2.5728,2.5728,2.5728,2.5518,2.2232,2.2232,2.4243,2.2974,2.3292,2.456,2.6873,2.6139,2.4454,2.6873,2.6883,2.6184,2.7523,2.7282,2.626,2.626,2.6299,2.6406,2.6406,2.6608,2.682,2.6507,2.7406,2.8313,2.7712,2.6464,2.5624,2.6771,2.5391,2.4289,2.5776,2.4036,2.2877,2.433,2.3558,2.2545,2.2048,2.2337,2.2315,2.1533,1.9522,1.822,1.822,1.9454,2.0213,2.0213,2.1357,2.2193,2.2354,2.2416,2.2018,2.0907,2.0958,2.0458,1.9171,2.0348,2.0928,2.0928,2.2158,2.2644,2.2644,2.2469,2.3067,2.4968,2.5029,2.4919,2.4897,2.55,2.5906,2.479,2.5417,2.6446,2.6802,2.8016,2.9182,2.9597,2.8275,2.7015,2.6829,2.4805,2.3557,2.4442,2.4201,2.4455,2.5899,2.6356,2.6836,2.7688,2.8166,2.8446,2.8409,2.8539,2.7046,2.3657,2.3468,2.4103,2.5635,2.5228,2.5351,2.6167,2.6239,2.5563,2.4137,2.4137,2.3917,2.36,2.5518,2.6264,2.5958,2.5958,0.0,2.5853,2.2028,2.0752,2.1071,2.0957,2.0957,2.1391,2.3389,2.3715,2.3283,2.3959,2.4036,2.3699,2.3689,2.4056,2.4456,2.4456,2.4507,2.4547,2.4537,2.4547,2.4537,2.4348,2.4696,2.4955,2.4856,2.4446,2.4246,2.5065,2.5144,2.4994,2.4595,2.3733,2.3211,2.368,2.3324,2.243,2.1236,2.1478,2.1295,1.9865,1.6429,1.4106,1.3898,1.5895,1.7217,1.7217,1.9347,2.0747,2.1012,2.102,2.0178,1.824,1.8303,1.7298,1.5357,1.7346,1.8307,1.847,2.0409,2.1433,2.1433,2.1381,2.1498,2.5778,2.5455,2.4494,2.3018,2.2727,2.2429,2.0932,2.052,2.1059,2.2696,2.2777,2.3095,2.5102,2.4582,2.4378,2.5891,2.4343,2.3965,2.6737,2.5173,2.4239,2.5461,2.4833,2.4362,2.455,2.455,2.4645,2.4645,2.5031,2.4843,2.3901,2.3806,2.3752,2.3747,2.3242,2.3053,2.3401,2.412,2.4293,2.4137,2.4137,2.3071,2.1276,2.1595,2.0866,1.9502,1.9502,1.9716,2.0136,1.9502,2.0456,2.2266,2.1701,2.1816,2.2478,2.3618,2.2241,2.0204,2.3345,2.3529,2.1906,1.9664,2.0551,2.2569,2.2569,2.3021,2.3419,2.3027,2.3223,2.3311,2.2429,2.3875,2.5454,2.4955,2.4856,2.4556,2.3674,2.4104,2.4735,2.4664,2.1454,1.9469,2.1945,2.0032,1.8194,1.8775,1.7385,1.6244,1.625,1.5275,1.4348,1.3418,1.3647,1.3876,1.3876,1.4416,1.4781,1.4815,1.5109,1.5136,1.4834,1.5047,1.5144,1.5011,1.5361,1.5575,1.589,1.5921,1.6053,1.6048,1.5713,1.6636,2.4382,2.3632,2.2266,2.0879,2.1227,2.1633,2.0449,2.0895,2.1849,2.2962,2.3169,2.3371,2.4477,2.321,2.2053,2.2728,2.0849,2.0033,2.1883,2.0937,2.0771,2.2709,2.2586,2.268,2.3796,2.389,2.3985,2.4268,2.2481,2.1169,2.0978,2.0978,2.0797,2.0336,2.1095,2.1351,2.1208,2.1547,2.1292,2.0341,2.0341,1.9808,1.8845,2.0219,2.0432,1.9701,0.0,2.0021,2.0334,1.9074,1.9292,2.0266,1.9942,1.9939,2.0104,2.0908,2.0088,1.8739,2.0634,2.0955,2.0219,1.8888,1.9173,2.0148,2.0148,2.0422,2.0673,2.0383,2.048,2.0577,2.0093,2.0891,2.1697,2.1404,2.1404,2.1306,2.1119,2.1413,2.1768,2.201,2.0613,1.9896,2.1372,2.0224,1.9014,1.8742,1.7642,1.672,1.6521,1.5801,1.4837,1.393,1.3832,1.3674,1.3236,1.332,1.3594,1.4181,1.4393,1.4737,1.5348,1.5234,1.5226,1.5336,1.4883,1.4884,1.5117,1.5017,1.5032,1.5154,1.5048,1.5521,2.3326,2.2089,2.0295,1.8598,1.9401,2.0313,1.9168,1.9992,2.1215,2.1896,2.214,2.2273,2.2773,2.1359,2.0148,2.026,1.8431,1.7553,1.8852,1.8027,1.8308,2.0901,2.0996,2.1369,2.286,2.2955,2.2962,2.3018,2.0216,1.8542,1.8542,1.8447,1.8266,1.7981,1.9059,1.9526,1.9228,1.9243,1.8636,1.7472,1.7392,1.7399,1.7572,1.9341,2.0176,2.0281,2.0281,2.0597,2.1017,1.9356,1.869,1.8776,1.8673,1.8533,1.8539,1.8641,1.8641,1.8618,1.8842,1.901,1.9047,1.8794,1.8715,1.89,1.89,1.9068,1.9309,1.9124,1.926,1.9309,1.9116,1.9099,1.9099,1.9099,1.9164,1.9309,1.9779,1.9933,2.0059,2.0439,2.0692,2.0978,2.1268,2.087,2.0213,1.9337,1.8447,1.7598,1.6796,1.6007,1.5201,1.4414,1.442,1.4346,1.3755,1.3685,1.4084,1.4877,1.4963,1.5277,1.6108,1.5779,1.5466,1.5415,1.4971,1.4755,1.4879,1.4879,1.4964,1.5122,1.5122,1.5159,2.3631,2.2007,1.9766,1.6251,1.6469,1.7032,1.5162,1.5076,1.5704,1.6876,1.6271,1.6083,1.7556,1.8016,1.8669,2.0185,1.9398,1.9406,2.178,1.9658,1.8812,2.1378,2.0814,2.0336,2.0423,2.0423,1.9933,1.8679,1.8448,1.8266,1.8266,1.7911,1.7911,1.8266,1.7547,1.7251,1.7391,1.7273,1.7476,1.8081,1.7664,1.7678,1.8081,1.8183,1.8482,1.8991,1.8991,1.9296,1.9906,1.9805,1.9797,1.968,1.9062,1.9156,1.9656,1.8539,1.8844,1.9756,1.9479,1.914,1.8739,1.8619,1.9004,1.9379,1.9379,2.04,2.1199,2.0343,2.0796,2.1191,2.0335,2.0145,2.0145,2.0145,2.0426,2.0693,2.0893,2.121,2.1563,2.1677,2.1718,2.1727,2.1727,2.0936,2.0227,2.0322,1.852,1.6626,1.5118,1.5287,1.5179,1.4154,1.4576,1.4889,1.4872,1.5085,1.5234,1.5369,1.5394,1.5542,1.5571,1.5571,1.5466,1.5152,1.5157,1.4946,1.4636,1.4636,1.4641,1.4652,1.4652,1.4773,1.9631,1.8021,1.623,1.4545,1.465,1.5113,1.5428,1.5841,1.6288,1.6806,1.6709,1.662,1.7178,1.7567,1.8068,1.8779,1.8819,1.8978,1.9673,1.8776,1.8592,1.9883,1.9883,1.9875,1.9875,2.0427,2.0402,1.9221,1.8887,1.878,1.8744,1.8842,1.899,1.9129,1.8896,1.8804,1.8931,1.8507,1.8398,1.8705,1.8186,1.8006,1.803,1.803,1.8132,1.8336,1.8336,1.8641,1.9242,1.9242,1.9313,1.941,1.9203,1.9078,1.9086,1.8989,1.8989,1.9047,1.8995,1.8812,1.8619,1.8619,1.8996,1.9475,1.9475,2.0046,2.0613,2.0275,2.0439,2.0604,2.0275,2.0429,2.0617,2.0617,2.0719,2.0847,2.1238,2.0978,2.0839,2.1383,2.1342,2.1372,2.1633,2.1357,2.0841,1.9705,1.8422,1.7225,1.6312,1.5795,1.5206,1.4293,1.4445,1.4371,1.3846,1.3918,1.4237,1.4709,1.4807,1.5247,1.6164,1.5745,1.5463,1.5448,1.5448,1.5247,1.494,1.5281,1.5595,1.5754,1.5754,1.5805,1.7529,1.5861,1.4256,1.2923,1.2915,1.3339,1.3963,1.435,1.4729,1.5004,1.4682,1.4562,1.5018,1.5971,1.6756,1.6809,1.8151,1.9058,1.8735,1.8733,1.8977,1.9547,2.0096,2.0276,2.0006,2.0555,2.0485,1.9348,1.9154,1.9126,1.9104,1.9347,1.9567,1.9691,1.9684,1.9642,1.9642,1.9123,1.8962,1.889,1.8629,1.8432,1.8181,1.8209,1.8313,1.8313,1.8313,1.8513,1.8804,1.8804,1.8865,1.9047,1.9047,1.8913,1.8715,1.9099,1.9004,1.8619,1.8619,1.8619,1.8619,1.8619,1.8908,1.9187,1.9379,1.9854,2.0403,2.0466,2.0719,2.0885,2.0754,2.0911,2.1112,2.1112,2.1217,2.1339,2.1453,2.1182,2.1025,2.1401,2.136,2.1372,2.1545,2.175,2.1276,1.9876,1.9041,1.8314,1.7496,1.6367,1.5388,1.4545,1.4701,1.4516,1.409,1.3974,1.4255,1.4735,1.4741,1.5241,1.6164,1.5201,1.4657,1.4446,1.3794,1.3324,1.3031,1.3366,1.3556,1.3819,1.46,1.4979,1.7565,1.5908,1.4169,1.1401,1.132,1.1702,1.0461,1.0348,1.0563,1.0861,0.9998,0.9588,1.0781,1.2971,1.452,1.4331,1.7245,1.9559,1.9576,1.9658,1.9902,2.0562,2.1406,2.1495,2.0509,2.0476,1.9916,1.8656,1.8856,1.9075,1.9163,1.9185,1.9402,1.9835,1.9492,1.9328,1.9337,1.9148,1.8951,1.8734,1.8951,1.876,1.8316,1.8557,1.8684,1.87,1.8708,1.8619,1.8619,1.8619,1.8619,1.8619,1.8619,1.8619,1.8619,1.8523,1.8516,1.8516,1.8516,1.8516,1.8516,1.8516,1.8516,1.8612,1.9091,1.9915,2.0728,2.0824,2.157,2.2175,2.1869,2.1768,2.1777,2.1777,2.2098,2.2282,2.1878,2.2098,2.2255,2.1869,2.1777,2.1768,2.1777,2.1768,2.1577,2.1032,2.0232,1.9402,1.8444,1.6871,1.5522,1.4833,1.5189,1.5518,1.5518,1.5411,1.5411,1.5422,1.5315,1.5309,1.5303,1.3778,1.269,1.2155,1.0417,0.9231,0.8699,0.8804,0.8804,0.8808,1.1078,1.2261,1.2568,1.1679,1.1392,1.0736,1.0465,1.0648,1.1735,1.1751,1.143,1.0605,1.0311,1.0162,1.0185,1.0786,1.1508,1.232,1.3467,1.4918,1.6678,1.7192,1.8226,2.0333,2.0857,1.9714,1.6546,1.6872,1.6844,1.5757,1.5457,1.5882,1.7188,1.7664,1.8646,2.0285,2.0576,2.0773,2.1053,2.0677,2.034,2.0033,1.9718,1.9341,1.9003,1.8935,1.8927,1.8807,1.8693,1.7835,1.6569,1.8035,1.7739,1.6569,1.8035,1.8619,1.8323,1.5302,1.4137,1.4137,1.4137,1.4137,1.4137,1.4137,1.4421,1.4704,1.4897,1.6404,1.8119,1.8212,1.9428,2.0859,2.1127,2.1411,2.1731,2.2121,2.231,2.2429,2.2604,2.2273,2.2071,2.2548,2.2163,2.186,2.2163,2.1961,2.1672,2.1156,1.866,1.6452,1.5219,1.4306,1.3699,1.3527,1.3728,1.4134,1.4612,1.3113,1.2109,1.1943,1.0321,0.972,1.0451,1.0018,0.9858,1.0157,1.0056,0.9591,0.864,0.9486,0.9703,0.9282,1.0326,1.0855,1.2059,1.0772,0.9937,0.9357,0.8962,0.8967,0.9671,0.9917,0.9769,0.868,0.8388,0.8314,0.8328,0.8974,0.9503,0.9571,1.1587,1.3383,1.3982,1.5048,1.6228,1.7596,1.8113,1.7426,1.5021,1.5184,1.5254,1.4815,1.4302,1.4544,1.5611,1.6085,1.7,1.8275,1.8583,1.8774,1.9019,1.8536,1.8122,1.7965,1.7492,1.7122,1.6881,1.6808,1.6606,1.6395,1.6143,1.5502,1.4626,1.5695,1.5495,1.4626,1.5695,1.608,1.5791,1.3556,1.2583,1.2486,1.2685,1.2782,1.2782,1.2981,1.3391,1.3778,1.3969,1.522,1.6539,1.6821,1.7774,1.8726,1.8998,1.9257,1.9517,1.9802,1.9897,1.9956,1.9967,1.9579,1.931,1.9637,1.9476,1.9354,1.9571,1.9617,1.9282,1.8384,1.6285,1.453,1.3842,1.3091,1.2663,1.2462,1.1867,1.1655,1.1892,1.0659,0.9783,0.9578,0.8332,0.7879,0.8407,0.7797,0.7558,0.7882,0.7482,0.691,0.6263,0.7012,0.7142,0.6956,0.8213,0.8225,1.2987,1.1045,0.8734,0.7425,0.6995,0.671,0.0,0.6586,0.6972,0.6085,0.5714,0.5661,0.5947,0.7382,0.8068,0.6866,1.0374,1.274,1.133,1.2794,1.3752,1.3159,1.3904,1.4502,1.4392,1.4234,1.4307,1.4515,1.4121,1.3946,1.4138,1.4521,1.4837,1.5056,1.5098,1.5056,1.5203,1.4667,1.4454,1.4381,1.3969,1.3795,1.3636,1.3579,1.3409,1.3115,1.2693,1.2813,1.3136,1.2669,1.2588,1.2787,1.2588,1.2276,1.1869,1.2362,1.2245,1.193,1.2422,1.2519,1.262,1.3113,1.3529,1.3806,1.4193,1.4668,1.5274,1.5729,1.6002,1.6184,1.6274,1.6274,1.6274,1.6365,1.6365,1.6274,1.5736,1.5645,1.5547,1.5268,1.5386,1.5589,1.5652,1.5877,1.551,1.3797,1.333,1.3008,1.2922,1.2237,1.1637,1.1209,0.9918,0.8861,0.8483,0.8289,0.8101,0.8118,0.7842,0.7738,0.7806,0.6364,0.5579,0.5655,0.4001,0.3127,0.3132,0.3127,0.3153,0.321,0.5298,0.5088,0.0,0.0,0.0,0.0,0.0,0.0,0.0,0.6105,0.6259,0.6313,0.6814,0.7067,0.6361,0.6059,0.5844,0.562,0.597,0.6863,0.8738,0.9919,1.0062,0.8523,0.955,1.0268,0.9716,1.095,1.1468,1.0782,1.065,1.1294,1.2726,1.2256,1.2686,1.4516,1.4541,1.477,1.5126,1.5052,1.48,1.4388,1.4106,1.3889,1.3771,1.356,1.3457,1.3497,1.3212,1.3069,1.2991,1.2604,1.1521,1.027,1.2302,1.0942,0.795,0.8049,0.8158,0.8425,0.8518,0.8518,0.8518,0.8615,0.8682,0.884,0.8844,1.0101,1.1529,1.1616,1.2902,1.4279,1.4728,1.4819,1.491,1.5358,1.5449,1.5358,1.5268,1.5268,1.5268,1.5177,1.4629,1.4435,1.5126,1.415,1.2347,0.9857,0.9782,0.9576,0.8432,0.847,0.8532,0.8276,0.8406,0.8661,0.8981,0.7749,0.6838,0.6651,0.4965,0.4152,0.4418,0.4183,0.4253,0.4598,0.3938,0.3403,0.2975,0.2929,0.2746,0.2412,0.3228,0.3378,0.0,0.0,0.0,0.0,0.0,0.0,0.0,0.0,0.0,0.0,0.0,0.6441,0.7179,0.0,0.6179,0.5648,0.583,0.6217,0.6605,0.7717,0.7963,0.6349,0.7706,0.8654,0.8512,0.9295,0.9508,0.8598,0.8104,0.8308,0.9276,0.8908,0.9557,1.1451,1.1374,1.1502,1.1858,1.1619,1.1361,1.11,1.1052,1.0982,1.0838,1.0955,1.0803,1.0474,1.0396,1.005,0.9651,0.9742,0.9105,0.8216,0.8912,0.8329,0.7146,0.7424,0.7475,0.7415,0.7686,0.7778,0.7778,0.8059,0.8284,0.8395,0.8395,0.9138,1.0125,1.0125,1.0838,1.1727,1.1994,1.2083,1.2111,1.2503,1.2532,1.2475,1.2417,1.2348,1.2256,1.2079,1.1809,1.1681,1.2199,1.06,0.9043,0.8078,0.7933,0.7817,0.7556,0.7721,0.7965,0.8133,0.8051,0.7895,0.7595,0.644,0.5575,0.5284,0.4246,0.3593,0.3618,0.3648,0.3615,0.351,0.3329,0.3075,0.283,0.2802,0.2727,0.2501,0.1347,0.0626,0.0,0.0,0.0,0.0,0.0,0.0,0.0,0.0,0.0,0.0,0.0,0.0,0.0,0.0,0.0,0.5614,0.664,0.6885,0.513,0.5949,0.6097,0.453,0.6011,0.7199,0.7102,0.7421,0.7368,0.6726,0.6049,0.5772,0.5807,0.5641,0.617,0.7433,0.7292,0.7298,0.7463,0.7392,0.7372,0.7408,0.0,0.0,0.7942,0.8243,0.7962,0.7146,0.7084,0.6472,0.56,0.6011,0.6116,0.5905,0.5062,0.5372,0.6389,0.6818,0.6793,0.6592,0.7411,0.7684,0.7776,0.86,0.8962,0.911,0.911,0.9264,0.0,0.948,0.948,0.948,0.948,0.948,0.952,0.9594,0.9634,0.9585,0.9377,0.9321,0.9242,0.8922,0.8932,0.9035,0.9219,0.7761,0.6664,0.687,0.6993,0.6981,0.7101,0.7691,0.8179,0.8778,0.814,0.731,0.6389,0.5165,0.4545,0.4578,0.4115,0.3612,0.3237,0.3249,0.2776,0.193,0.192,0.1913,0.1992,0.1984,0.2002,0.1953,-0.0689,-0.2156,0.0,0.0,0.0,0.0,0.0,0.0,0.0,0.0,0.0,0.0,0.0,0.0,0.0,0.0,0.0,0.0,0.5326,0.5782,0.4959,0.4555,0.3446,0.1226,0.2653,0.3358,0.1955,0.3252,0.4217,0.4136,0.4317,0.4491,0.4485,0.3743,0.0,0.0,0.0,0.3397,0.3407,0.5055,0.5841,0.5858,0.7226,0.8019,0.8302,0.8012,0.7298,0.6324,0.6083,0.4974,0.3276,0.3057,0.2799,0.2331,0.2692,0.2687,0.2404,0.2811,0.3114,0.3504,0.5259,0.0,0.0,0.7889,0.8405,0.8476,0.8476,0.846,0.8531,0.8531,0.8531,0.8531,0.8531,0.8531,0.8535,0.8555,0.8559,0.8564,0.8496,0.8501,0.8549,0.862,0.8027,0.7927,0.8858,0.8464,0.7319,0.4973,0.6299,0.6726,0.442,0.6525,0.8214,0.8232,0.0,0.0,0.7306,0.4819,0.395,0.556,0.3373,0.1829,0.1436,0.1552,0.073,-0.1073,-0.1054,-0.0948,-0.0762,-0.0582,-0.0832,-0.1445,-0.3529,-0.3611,0.0,0.0,0.0,0.0,0.0,0.0,0.0,0.0,0.0,0.0,0.0,0.0,0.0,0.0,0.0,0.0,0.4195,0.4726,0.461,0.4182,0.3486,0.2559,0.2459,0.244,0.2197,0.2665,0.2663,0.196,0.204,0.2131,0.2238,0.1856,0.2134,0.3114,0.294,0.2869,0.3073,0.3589,0.3787,0.3747,0.4444,0.4734,0.4872,0.5004,0.4826,0.4262,0.4208,0.3711,0.3022,0.2864,0.2595,0.0,0.0,0.0,0.0,0.0,0.2025,0.2262,0.3101,0.3352,0.3518,0.4271,0.5408,0.6407,0.6407,0.7326,0.8097,0.7052,0.6792,0.6528,0.5393,0.5043,0.5411,0.6627,0.6914,0.7206,0.8464,0.8663,0.8687,0.8762,0.8387,0.0,0.9139,0.9163,0.8675,0.7486,0.8012,0.8201,0.731,0.8164,0.8679,0.8225,0.842,0.8051,0.6756,0.5518,0.0,0.0,0.0,0.3396,0.3417,0.2238,0.0,0.0,0.0,0.0,0.0,0.0,0.0,0.0,-0.6488,-0.6019,0.0,0.0,0.0,0.0,0.0,0.0,0.0,0.0,0.0,0.0,0.0,0.0,0.0,0.0,0.0,0.0,0.366,0.3823,0.2711,0.2476,0.2012,0.1005,0.1012,0.1007,0.0906,0.091,0.061,-0.0382,-0.0305,-0.0231,-0.0156,-0.0157,0.04,0.1654,0.1477,0.1481,0.1671,0.1839,0.1855,0.1713,0.2347,0.2626,0.2539,0.2889,0.2802,0.2367,0.2367,0.2123,0.1704,0.1704,0.1525,0.0892,-0.1505,-0.2526,-0.2526,-0.1545,-0.0814,-0.0326,0.0739,0.1156,0.1328,0.1826,0.3176,0.4639,0.4639,0.5858,0.6932,0.565,0.5238,0.4905,0.3512,0.3173,0.3536,0.5067,0.5432,0.5806,0.7322,0.7614,0.7807,0.83,0.7728,0.732,0.7986,0.8048,0.7893,0.7333,0.7924,0.0,0.8176,0.8862,0.8899,0.7531,0.782,0.7017,0.4584,0.4089,0.3765,0.3409,0.2691,0.2704,0.3511,0.1389,-0.0511,-0.1814,-0.233,-0.3011,0.0,0.0,0.0,0.0,0.0,0.0,0.0,0.0,0.0,0.0,0.0,0.0,0.0,0.0,0.0,0.0,0.0,0.0,0.0,0.0,0.0,0.0,0.0,0.0,-0.1623,-0.1765,-0.2721,-0.6253,-0.3385,-0.2043,-0.4572,-0.3687,-0.2979,-0.2979,-0.2674,-0.2445,-0.2446,-0.2422,-0.2375,-0.2378,-0.2348,-0.2375,-0.2376,-0.0573,0.0245,0.0245,0.2048,0.2868,0.2868,0.295,0.213,0.0819,0.0819,-0.0164,-0.1808,-0.1808,-0.2055,-0.2711,-0.6359,-0.8053,-0.8462,-0.8462,-0.7412,-0.5484,-0.1757,-0.0256,0.0348,0.2084,0.3087,0.3547,0.3547,0.3913,0.4423,0.4341,0.4305,0.4339,0.4275,0.4218,0.4247,0.4277,0.4346,0.4346,0.443,0.4432,0.4871,0.6575,0.5157,0.385,0.4341,0.4421,0.3793,0.1937,0.4479,0.0,0.4501,0.7358,0.8514,0.5808,0.5643,0.429,0.0715,-0.1165,-0.1511,-0.0261,-0.2093,-0.2314,-0.0328,-0.2592,-0.3887,-0.3965,-0.5214,-0.679,-0.8493,0.0,0.0,0.0,0.0,0.0,0.0,0.0,0.0,0.0,0.0,0.0,0.0,0.0,0.0,0.0,0.0,0.0,0.0,0.0,0.0,0.0,0.0,0.0,0.0,-0.2276,-0.3178,-0.5112,-0.4082,-0.3713,-0.4921,-0.4743,-0.4764,-0.5282,-0.5584,-0.5782,-0.5782,-0.5749,-0.5242,-0.4091,-0.4046,-0.3595,-0.2503,-0.1953,-0.1575,-0.1599,-0.0964,-0.0725,-0.0725,-0.0739,-0.0912,-0.0995,-0.1001,-0.1161,-0.1557,-0.2906,-0.4712,-0.6619,-0.786,-0.8485,-0.8644,-0.8644,-0.7947,-0.6957,-0.5864,-0.4968,-0.4198,-0.2869,-0.0555,0.1615,0.1373,0.2679,0.4004,0.2694,0.2378,0.1974,0.0573,0.0164,0.0411,0.1308,0.1552,0.1878,0.3104,0.3349,0.3603,0.4454,0.2721,0.1868,0.3895,0.452,0.4454,0.3781,0.4527,0.498,0.4403,0.5344,0.5465,0.3831,0.4002,0.3512,0.1603,0.118,0.1008,0.0918,-0.0083,-0.0497,0.0,-0.2108,-0.3069,-0.2585,-0.4346,-0.6261,-0.8398,0.0,0.0,0.0,0.0,0.0,0.0,0.0,0.0,0.0,0.0,0.0,0.0,0.0,0.0,0.0,0.0,0.0,0.0,0.0,0.0,0.0,0.0,0.0,0.0,0.0,0.0,-0.6177,-0.5204,0.0,-0.536,-0.4981,-0.5058,-0.5712,-0.6321,-0.6735,-0.6812,-0.7237,-0.6852,-0.5332,-0.5256,-0.4878,-0.3967,-0.3812,-0.3918,-0.4289,-0.4077,-0.4111,-0.4234,-0.4352,-0.4208,-0.3885,-0.4067,-0.3879,-0.3671,-0.5175,-0.7052,-0.9091,-0.9836,-1.0502,-1.1022,-1.0756,-0.9887,-0.8789,-0.8566,-0.7554,-0.6195,-0.4924,-0.2771,-0.0631,-0.0947,-0.0079,0.0876,0.0,-0.0239,-0.0478,-0.1438,-0.1677,-0.1438,-0.0479,-0.0319,0.0,0.1196,0.1116,0.0956,0.1515,0.0389,-0.0152,0.1368,0.1825,0.2053,0.2205,0.262,0.3115,0.3664,0.4109,0.3679,0.2095,0.1289,0.0566,-0.0082,-0.0648,-0.0886,-0.0645,-0.0881,-0.12,-0.1693,-0.292,-0.3677,-0.3781,-0.5085,-0.6797,0.0,0.0,0.0,0.0,0.0,0.0,0.0,0.0,0.0,0.0,0.0,0.0,0.0,0.0,0.0,0.0,0.0,0.0,0.0,0.0,0.0,0.0,0.0,0.0,0.0,0.0,0.0,-0.9332,-0.6754,0.0,0.0,0.0,0.0,-0.489,-0.5388,-0.5822,-0.6116,-0.7251,-0.7357,-0.62,-0.6131,-0.6216,-0.6537,-0.6154,-0.6457,-0.7294,-0.6847,-0.6882,-0.7315,-0.7336,-0.7314,-0.7314,-0.7693,-0.7837,-0.7895,-0.8486,-0.928,-1.0284,-1.2304,-1.4104,-1.5398,-1.4651,-1.3044,-1.102,-0.9981,-0.8203,-0.597,-0.4264,-0.3543,-0.3304,-0.3228,-0.3952,0.0,0.0,-0.3199,-0.2895,-0.1603,-0.1297,-0.1298,-0.1221,-0.1221,-0.1221,-0.1221,-0.2212,-0.282,0.0,-0.1908,-0.2213,-0.3123,0.0,-0.3122,-0.2741,-0.1216,0.0456,0.2055,0.3275,0.2997,0.0471,-0.2277,-0.412,-0.4387,-0.6294,-0.6686,-0.4649,-0.44,-0.4547,-0.4972,-0.5019,-0.5777,-0.7474,-0.7535,0.0,0.0,0.0,0.0,0.0,0.0,0.0,0.0,0.0,0.0,0.0,0.0,0.0,0.0,0.0,0.0,0.0,0.0,0.0,0.0,0.0,0.0,0.0,0.0,0.0,0.0,-0.6771,-0.6854,-0.8266,-0.7374,-0.6877,0.0,0.0,0.0,0.0,0.0,0.0,-0.9891,-0.9832,-0.9242,-0.8092,-0.7416,-0.6494,-0.5486,-0.5705,-0.6054,-0.6389,-0.6612,-0.6793,-0.6768,-0.6634,-0.6457,-0.6389,-0.6587,-0.6357,-0.6366,-1.155,-1.3357,-1.2905,-1.4011,-1.4742,-1.5027,-1.4584,-1.3747,-1.2708,-1.174,-1.0761,-0.9517,-0.7132,0.0,-0.6159,-0.4512,0.0,0.0,0.0,0.0,-0.4184,-0.3277,-0.3049,-0.2898,-0.2291,-0.2214,-0.2214,-0.2214,-0.2443,-0.2976,0.0,-0.4495,-0.5025,-0.5253,0.0,0.0,0.0,0.0,-0.1751,-0.1294,-0.099,-0.1145,-0.2151,-0.4139,-0.5605,-0.5956,-0.6231,-0.6058,-0.5222,-0.5423,-0.508,-0.4102,-0.6325,-0.7913,-0.8695,0.0,0.0,0.0,0.0,0.0,0.0,0.0,0.0,0.0,0.0,0.0,0.0,0.0,0.0,0.0,0.0,0.0,0.0,0.0,0.0,0.0,0.0,0.0,0.0,0.0,0.0,0.0,-0.7588,-0.7986,-0.9425,-0.9159,-0.8814,0.0,0.0,0.0,0.0,0.0,0.0,0.0,0.0,0.0,-0.898,-0.8401,-0.7785,-0.7112,-0.6919,-0.7263,-0.803,-0.7814,-0.7976,-0.8509,-0.8358,-0.8206,-0.8211,-0.8945,-0.9162,-0.9216,-1.2534,-1.4187,-1.4776,0.0,0.0,0.0,0.0,-1.4642,-1.418,-1.315,-1.252,0.0,-0.9776,0.0,0.0,0.0,0.0,0.0,0.0,0.0,0.0,0.0,0.0,0.0,-0.4726,-0.4119,-0.3588,-0.3588,-0.3967,-0.4574,0.0,-0.6016,-0.6544,-0.7298,0.0,0.0,0.0,0.0,-0.4564,-0.3652,-0.3576,-0.3654,-0.3882,-0.6003,-0.6984,-0.5927,-0.6984,-0.7063,-0.5782,-0.6374,-0.6531,-0.591,-0.8239,-1.0143,0.0,0.0,0.0,0.0,0.0,0.0,0.0,0.0,0.0,0.0,0.0,0.0,0.0,0.0,0.0,0.0,0.0,0.0,0.0,0.0,0.0,0.0,0.0,0.0,0.0,0.0,0.0,0.0,0.0,-0.9415,-1.1285,0.0,0.0,0.0,0.0,0.0,0.0,0.0,0.0,0.0,0.0,0.0,0.0,0.0,-0.9814,-1.0318,-0.9568,-0.9823,-1.1168,-1.0375,-1.0481,-1.1318,-1.1416,-1.1367,-1.1367,-1.3273,0.0,-1.4039,-1.3252,0.0,0.0,0.0,0.0,0.0,0.0,0.0,0.0,0.0,0.0,0.0,0.0,0.0,0.0,0.0,0.0,0.0,0.0,0.0,0.0,0.0,0.0,-0.7925,-0.7849,-0.6478,-0.5329,0.0,-0.6378,-0.6851,-0.7075,-0.7078,0.0,0.0,0.0,0.0,0.0,0.0,0.0,-0.5396,-0.5171,-0.5244,-0.532,-0.782,-0.8429,-0.6003,-0.8358,-0.9043,-0.6768,-0.7973,-0.8933,-0.943,-1.0939,0.0,0.0,0.0,0.0,0.0,0.0,0.0,0.0,0.0,0.0,0.0,0.0,0.0,0.0,0.0,0.0,0.0,0.0,0.0,0.0,0.0,0.0,0.0,0.0,0.0,0.0,0.0,0.0,0.0,0.0,0.0,0.0,0.0,0.0,0.0,0.0,0.0,0.0,0.0,0.0,0.0,0.0,0.0,0.0,0.0,0.0,0.0,0.0,0.0,0.0,-1.4999,-1.4989,-1.3764,-1.4144,-1.3875,-1.336,-1.6951,-1.7466,-1.5932,-1.8622,0.0,0.0,0.0,0.0,0.0,0.0,0.0,0.0,0.0,0.0,0.0,0.0,0.0,0.0,0.0,0.0,0.0,0.0,0.0,0.0,0.0,0.0,0.0,0.0,-0.8617,-0.7714,0.0,0.0,0.0,0.0,0.0,0.0,0.0,0.0,0.0,0.0,0.0,0.0,-0.6915,-0.6915,-0.7218,-0.7815,-0.9792,-1.1015,-1.0946,-1.1091,-1.0859,-1.0094,-1.2335,-1.3484,0.0,0.0,0.0,0.0,0.0,0.0,0.0,0.0,0.0,0.0,0.0,0.0,0.0,0.0,0.0,0.0,0.0,0.0,0.0,0.0,0.0,0.0,0.0,0.0,0.0,0.0,0.0,0.0,0.0,0.0,0.0,0.0,0.0,0.0,0.0,0.0,0.0,0.0,0.0,0.0,0.0,0.0,0.0,0.0,0.0,0.0,0.0,0.0,0.0,0.0,0.0,0.0,0.0,0.0,0.0,0.0,0.0,0.0,0.0,-1.9038,0.0,0.0,0.0,0.0,0.0,0.0,0.0,0.0,0.0,0.0,0.0,0.0,0.0,0.0,0.0,0.0,0.0,0.0,0.0,0.0,0.0,0.0,0.0,0.0,0.0,0.0,0.0,0.0,0.0,0.0,0.0,0.0,0.0,0.0,0.0,0.0,0.0,0.0,0.0,0.0,-0.9558,-0.8979,-0.9003,-1.0135,-1.1163,-1.2074,-1.2866,-1.2772,-1.2967,-1.3544,-1.5185,0.0,0.0,0.0,0.0,0.0,0.0,0.0,0.0,0.0,0.0,0.0,0.0,0.0,0.0,0.0,0.0,0.0,0.0,0.0,0.0,0.0,0.0,0.0,0.0,0.0,0.0,0.0,0.0,0.0,0.0,0.0,0.0,0.0,0.0,0.0,0.0,0.0,0.0,0.0,0.0,0.0,0.0,0.0,0.0,0.0,0.0,0.0,0.0,0.0,0.0,0.0,0.0,0.0,0.0,0.0,0.0,0.0,0.0,0.0,-1.8319,0.0,0.0,0.0,0.0,0.0,0.0,0.0,0.0,0.0,0.0,0.0,0.0,0.0,0.0,0.0,0.0,0.0,0.0,0.0,0.0,0.0,0.0,0.0,0.0,0.0,0.0,0.0,0.0,0.0,0.0,0.0,0.0,0.0,0.0,0.0,0.0,0.0,0.0,0.0,0.0,0.0,-1.1524,-1.0664,-1.0563,-1.1794,-1.2146,-1.2648,-1.3567,-1.3889,-1.469,-1.6082,-1.7795,0.0,0.0,0.0,0.0,0.0,0.0,0.0,0.0,0.0,0.0,0.0,0.0,0.0,0.0,0.0,0.0,0.0,0.0,0.0,0.0,0.0,0.0,0.0,0.0,0.0,0.0,0.0,0.0,0.0,0.0,0.0,0.0,0.0,0.0,0.0,0.0,0.0,0.0,0.0,0.0,0.0,0.0,0.0,0.0,0.0,0.0,0.0,0.0,0.0,0.0,0.0,0.0,0.0,0.0,0.0,0.0,0.0,0.0,0.0,0.0,0.0,0.0,0.0,0.0,0.0,0.0,0.0,0.0,0.0,0.0,0.0,0.0,0.0,0.0,0.0,0.0,0.0,0.0,0.0,0.0,0.0,0.0,0.0,0.0,0.0,0.0,0.0,0.0,0.0,0.0,0.0,0.0,0.0,0.0,0.0,0.0,0.0,0.0,0.0,0.0,0.0,-1.1498,-1.1378,-1.1524,-1.1991,-1.2668,-1.3321,-1.3759,-1.4553,-1.5377,-1.6245,0.0,0.0,0.0,0.0,0.0,0.0,0.0,0.0,0.0,0.0,0.0,0.0,0.0,0.0,0.0,0.0,0.0,0.0,0.0,0.0,0.0,0.0,0.0,0.0,0.0,0.0,0.0,0.0,0.0,0.0,0.0,0.0,0.0,0.0,0.0,0.0,0.0,0.0,0.0,0.0,0.0,0.0,0.0,0.0,0.0,0.0,0.0,0.0,0.0,0.0,0.0,0.0,0.0,0.0,0.0,0.0,0.0,0.0,0.0,0.0,0.0,0.0,0.0,0.0,0.0,0.0,0.0,0.0,0.0,0.0,0.0,0.0,0.0,0.0,0.0,0.0,0.0,0.0,0.0,0.0,0.0,0.0,0.0,0.0,0.0,0.0,0.0,0.0,0.0,0.0,0.0,0.0,0.0,0.0,0.0,0.0,0.0,0.0,0.0,0.0,0.0,0.0,-1.4013,-1.2927,-1.2489,-1.3395,-1.4458,-1.5476,-1.6528,-1.764,-1.9275,-2.1568,0.0,0.0,0.0,0.0,0.0,0.0,0.0,0.0,0.0,0.0,0.0,0.0,0.0,0.0,0.0,0.0,0.0,0.0,0.0,0.0,0.0,0.0,0.0,0.0,0.0,0.0,0.0,0.0,0.0,0.0,0.0,0.0,0.0,0.0,0.0,0.0,0.0,0.0,0.0,0.0,0.0,0.0,0.0,0.0,0.0,0.0,0.0,0.0,0.0,0.0,0.0,0.0,0.0,0.0,0.0,0.0,0.0,0.0,0.0,0.0,0.0,0.0,0.0,0.0,0.0,0.0,0.0,0.0,0.0,0.0,0.0,0.0,0.0,0.0,0.0,0.0,0.0,0.0,0.0,0.0,0.0,0.0,0.0,0.0,0.0,0.0,0.0,0.0,0.0,0.0,0.0,0.0,0.0,0.0,0.0,0.0,0.0,0.0,0.0,0.0,0.0,0.0,-1.6528,-1.5216,-1.4617,-1.5411,-1.6517,-1.7594,-1.8836,-2.0022,-2.2007,-2.5,0.0,0.0,0.0,0.0,0.0,0.0,0.0,0.0,0.0,0.0,0.0,0.0,0.0,0.0,0.0,0.0,0.0,0.0,0.0,0.0,0.0,0.0,0.0,0.0,0.0,0.0,0.0,0.0,0.0,0.0,0.0,0.0,0.0,0.0,0.0,0.0,0.0,0.0,0.0,0.0,0.0,0.0,0.0,0.0,0.0,0.0,0.0,0.0,0.0,0.0,0.0,0.0,0.0,0.0,0.0,0.0,0.0,0.0,0.0,0.0,0.0,0.0,0.0,0.0,0.0,0.0,0.0,0.0,0.0,0.0,0.0,0.0,0.0,0.0,0.0,0.0,0.0,0.0,0.0,0.0,0.0,0.0,0.0,0.0,0.0,0.0,0.0,0.0,0.0,0.0,0.0,0.0,0.0,0.0,0.0,0.0,0.0,0.0,0.0,0.0,0.0,0.0,-1.8396,-1.8213,-1.8213,-1.8202,-1.8708,-1.9307,-1.9973,-2.0805,-2.2418,0.0,0.0,0.0,0.0,0.0,0.0,0.0,0.0,0.0,0.0,0.0,0.0,0.0,0.0,0.0,0.0,0.0,0.0,0.0,0.0,0.0,0.0,0.0,0.0,0.0,0.0,0.0,0.0,0.0,0.0,0.0,0.0,0.0,0.0,0.0,0.0,0.0,0.0,0.0,0.0,0.0,0.0,0.0,0.0,0.0,0.0,0.0,0.0,0.0,0.0,0.0,0.0,0.0,0.0,0.0,0.0,0.0,0.0,0.0,0.0,0.0,0.0,0.0,0.0,0.0,0.0,0.0,0.0,0.0,0.0,0.0,0.0,0.0,0.0,0.0,0.0,0.0,0.0,0.0,0.0,0.0,0.0,0.0,0.0,0.0,0.0,0.0,0.0,0.0,0.0,0.0,0.0,0.0,0.0,0.0,0.0,0.0,0.0,0.0,0.0,0.0,0.0,0.0,-2.0796,-2.0002,-1.9265,0.0,-2.0407,-2.1696,-2.224,-2.3213,-2.5302,-2.8802,0.0,0.0,0.0,0.0,0.0,0.0,0.0,0.0,0.0,0.0,0.0,0.0,0.0,0.0,0.0,0.0,0.0,0.0,0.0,0.0,0.0,0.0,0.0,0.0,0.0,0.0,0.0,0.0,0.0,0.0,0.0,0.0,0.0,0.0,0.0,0.0,0.0,0.0,0.0,0.0,0.0,0.0,0.0,0.0,0.0,0.0,0.0,0.0,0.0,0.0,0.0,0.0,0.0,0.0,0.0,0.0,0.0,0.0,0.0,0.0,0.0,0.0,0.0,0.0,0.0,0.0,0.0,0.0,0.0,0.0,0.0,0.0,0.0,0.0,0.0,0.0,0.0,0.0,0.0,0.0,0.0,0.0,0.0,0.0,0.0,0.0,0.0,0.0,0.0,0.0,0.0,0.0,0.0,0.0,0.0,0.0,0.0,0.0,0.0,0.0,0.0,0.0,0.0,-2.2065,-2.1273,0.0,-2.2505,-2.3652,-2.3424,-2.5359,-2.7689,-3.031,0.0,0.0,0.0,0.0,0.0,0.0,0.0,0.0,0.0,0.0,0.0,0.0,0.0,0.0,0.0,0.0,0.0,0.0,0.0,0.0,0.0,0.0,0.0,0.0,0.0,0.0,0.0,0.0,0.0,0.0,0.0,0.0,0.0,0.0,0.0,0.0,0.0,0.0,0.0,0.0,0.0,0.0,0.0,0.0,0.0,0.0,0.0,0.0,0.0,0.0,0.0,0.0,0.0,0.0,0.0,0.0,0.0,0.0,0.0,0.0,0.0,0.0,0.0,0.0,0.0,0.0,0.0,0.0,0.0,0.0,0.0,0.0,0.0,0.0,0.0,0.0,0.0,0.0,0.0,0.0,0.0,0.0,0.0,0.0,0.0,0.0,0.0,0.0,0.0,0.0,0.0,0.0,0.0,0.0,0.0,0.0,0.0,0.0,0.0,0.0,0.0,0.0,0.0,-2.4219,-2.3859,-2.3559,-2.4856,-2.5239,-2.3964,-2.7217,-2.9558,-3.0007,-3.3092,0.0,0.0,0.0,0.0,0.0,0.0,0.0,0.0,0.0,0.0,0.0,0.0,0.0,0.0,0.0,0.0,0.0,0.0,0.0,0.0,0.0,0.0,0.0,0.0,0.0,0.0,0.0,0.0,0.0,0.0,0.0,0.0,0.0,0.0,0.0,0.0,0.0,0.0,0.0,0.0,0.0,0.0,0.0,0.0,0.0,0.0,0.0,0.0,0.0,0.0,0.0,0.0,0.0,0.0,0.0,0.0,0.0,0.0,0.0,0.0,0.0,0.0,0.0,0.0,0.0,0.0,0.0,0.0,0.0,0.0,0.0,0.0,0.0,0.0,0.0,0.0,0.0,0.0,0.0,0.0,0.0,0.0,0.0,0.0,0.0,0.0,0.0,0.0,0.0,0.0,0.0,0.0,0.0,0.0,0.0,0.0,0.0,0.0,0.0,0.0,0.0,0.0,-2.4995,-2.4637,-2.3859,-2.5458,-2.664,-2.6945,-2.8494,-3.0447,-3.2729,-3.4891,0.0,0.0,0.0,0.0,0.0,0.0,0.0,0.0,0.0,0.0,0.0,0.0,0.0,0.0,0.0,0.0,0.0,0.0,0.0,0.0,0.0,0.0,0.0,0.0,0.0,0.0,0.0,0.0,0.0,0.0,0.0,0.0,0.0,0.0,0.0,0.0,0.0,0.0,0.0,0.0,0.0,0.0,0.0,0.0,0.0,0.0,0.0,0.0,0.0,0.0,0.0,0.0,0.0,0.0,0.0,0.0,0.0,0.0,0.0,0.0,0.0,0.0,0.0,0.0,0.0,0.0,0.0,0.0,0.0,0.0,0.0,0.0,0.0,0.0,0.0,0.0,0.0,0.0,0.0,0.0,0.0,0.0,0.0,0.0,0.0,0.0,0.0,0.0,0.0,0.0,0.0,0.0,0.0,0.0,0.0,0.0,0.0,0.0,0.0,0.0,0.0,0.0,-2.5426,-2.5341,-2.4779,-2.6549,-2.7849,-2.7918,-3.0226,-3.2383,-3.41,-3.6231,0.0,0.0,0.0,0.0,0.0,0.0,0.0,0.0,0.0,0.0,0.0,0.0,0.0,0.0,0.0,0.0,0.0,0.0,0.0,0.0,0.0,0.0,0.0,0.0,0.0,0.0,0.0,0.0,0.0,0.0,0.0,0.0,0.0,0.0,0.0,0.0,0.0,0.0,0.0,0.0,0.0,0.0,0.0,0.0,0.0,0.0,0.0,0.0,0.0,0.0,0.0,0.0,0.0,0.0,0.0,0.0,0.0,0.0,0.0,0.0,0.0,0.0,0.0,0.0,0.0,0.0,0.0,0.0,0.0,0.0,0.0,0.0,0.0,0.0,0.0,0.0,0.0,0.0,0.0,0.0,0.0,0.0,0.0,0.0,0.0,0.0,0.0,0.0,0.0,0.0,0.0,0.0,0.0,0.0,0.0,0.0,0.0,0.0,0.0,0.0,0.0,0.0,0.0,-2.583,-2.5783,-2.7629,-2.8699,-2.8296,-3.186,-3.4331,-3.4983,0.0,0.0,0.0,0.0,0.0,0.0,0.0,0.0,0.0,0.0,0.0,0.0,0.0,0.0,0.0,0.0,0.0,0.0,0.0,0.0,0.0,0.0,0.0,0.0,0.0,0.0,0.0,0.0,0.0,0.0,0.0,0.0,0.0,0.0,0.0,0.0,0.0,0.0,0.0,0.0,0.0,0.0,0.0,0.0,0.0,0.0,0.0,0.0,0.0,0.0,0.0,0.0,0.0,0.0,0.0,0.0,0.0,0.0,0.0,0.0,0.0,0.0,0.0,0.0,0.0,0.0,0.0,0.0,0.0,0.0,0.0,0.0,0.0,0.0,0.0,0.0,0.0,0.0,0.0,0.0,0.0,0.0,0.0,0.0,0.0,0.0,0.0,0.0,0.0,0.0,0.0,0.0,0.0,0.0,0.0,0.0,0.0,0.0,0.0,0.0,0.0,0.0,0.0,0.0,-2.591,-2.6155,-2.7512,-2.9058,-3.051,-3.2316,-3.4442,-3.69,0.0,0.0,0.0,0.0,0.0,0.0,0.0,0.0,0.0,0.0,0.0,0.0,0.0,0.0]}],[{"header":{"parameterUnit":"kt","parameterCategory":2,"dx":1,"dy":1,"la1":29.285339999999998,"la2":30.599998999999997,"lo1":-89.70041500000002,"lo2":-87.6738589999976,"nx":112,"ny":82,"refTime":"2022-09-30T18:00:00:Z","depth":0,"parameterNumber":2,"parameterNumberName":"V-component_of_WINDS"},"data":[9.4054,9.3986,9.4073,9.3901,9.5593,9.6916,9.5581,9.2738,9.0558,9.1179,8.9689,8.8549,8.9154,8.894,8.8401,8.7694,8.7159,8.6339,0.0,8.453,8.4815,8.5597,9.0508,9.4616,9.652,9.7921,9.9441,10.1095,10.3172,10.4893,10.608,10.6468,10.6507,10.6073,10.2924,10.2787,10.6105,10.6839,10.8916,11.2315,11.2947,11.2939,11.2336,10.9687,10.8546,10.8748,10.8422,10.9296,11.0948,11.1961,11.2897,11.3682,11.437,11.3006,11.0697,11.0925,10.984,10.8278,10.8278,10.8278,10.8278,10.8278,10.8278,10.8278,10.8278,10.8278,10.8278,10.8278,10.8278,10.8278,10.8278,10.8278,10.8278,10.8278,10.8278,10.8278,10.8278,10.8278,10.8278,10.8278,10.8278,10.8278,10.8278,11.0185,11.168,11.168,11.3101,11.4148,11.4148,11.3213,11.2076,11.0917,10.9832,10.8914,10.8315,10.8278,10.8278,10.8278,10.8278,10.8278,10.8278,10.8278,10.854,10.9159,10.8577,10.854,10.9138,10.854,10.8278,10.8278,10.8278,10.8278,9.1165,9.0685,9.0195,8.9521,9.0936,9.2147,9.0792,8.9489,8.8468,8.7903,8.7086,8.6413,8.6161,8.6513,8.6623,8.5987,8.6307,8.6164,0.0,8.5452,8.652,8.7587,9.2321,9.6534,9.9069,9.992,0.0,0.0,10.3087,0.0,10.5606,10.5964,10.502,10.2611,9.9953,10.0199,10.3591,10.5805,10.883,11.2806,11.3206,11.3636,11.4069,11.1451,11.0367,11.0395,10.9074,10.9426,11.0988,11.2179,11.3074,11.3865,11.5111,11.3954,11.1552,11.1113,10.982,10.8278,10.8278,10.8278,10.8278,10.8278,10.8278,10.8278,10.8278,10.8278,10.8278,10.8278,10.8278,10.8278,10.8278,10.8278,10.8278,10.8278,10.8278,10.8278,10.8278,10.8278,10.8278,10.8278,10.8278,10.8278,10.8278,10.9234,11.0131,11.073,11.1755,11.269,11.3251,11.2353,11.1419,11.0879,10.9795,10.8876,10.8315,10.8278,10.8278,10.8278,10.8278,10.8278,10.8278,10.8278,10.8278,10.8278,10.8278,10.8278,10.8278,10.8278,10.8278,10.8278,10.8278,10.8278,9.0526,8.763,8.5021,8.3856,8.3678,8.3776,8.3682,8.6157,8.8004,8.6333,8.6014,8.5059,8.1772,8.2441,8.2621,8.0036,8.3505,0.0,0.0,8.7478,9.0617,9.3721,9.6919,10.0098,10.3133,10.3419,10.3432,0.0,10.4751,10.5288,10.4824,10.5459,10.3263,9.7661,9.7442,9.8002,9.9204,10.5616,11.0008,11.2225,11.2077,11.2795,11.425,11.2622,11.1949,11.2013,11.1122,11.1359,11.2474,11.2788,11.3841,11.5244,11.5666,11.4721,11.2877,11.1328,10.9683,10.8278,10.8278,10.8278,10.8278,10.8278,10.8278,10.8278,10.8278,10.8278,10.8278,10.8278,10.8278,10.8278,10.8278,10.8278,10.8278,10.8278,10.8278,10.8278,10.8278,10.8278,10.8278,10.8278,10.8278,10.8278,10.8278,10.8278,10.8839,11.0468,11.073,11.1328,11.2952,11.3176,11.254,11.0917,11.073,11.0056,10.839,10.8278,10.8278,10.8278,10.8278,10.8278,10.8278,10.8278,10.8278,10.8278,10.8278,10.8278,10.8278,10.8278,10.8278,10.8278,10.8278,10.8278,8.4199,8.3533,8.3073,8.0019,8.1554,8.3327,8.1633,8.3077,8.4592,8.3869,8.3914,0.0,0.0,0.0,8.5739,8.6413,0.0,8.9867,8.9153,9.251,9.5904,9.8261,10.0654,10.2476,10.3364,10.3384,10.4358,10.6612,10.5073,10.4389,10.5292,10.1101,9.8965,9.9641,9.8822,10.1749,10.8869,11.1682,11.3356,11.3974,11.3374,11.3311,11.3666,11.1403,11.0439,11.0419,10.9129,10.9365,11.0839,11.2142,11.3098,11.385,11.499,11.3902,11.1497,10.9649,10.8689,10.8278,10.8278,10.8278,10.8278,10.8278,10.8278,10.8278,10.8278,10.8278,10.8278,10.8278,10.8278,10.8278,10.8278,10.8278,10.8278,10.8278,10.8278,10.8278,10.8278,10.8278,10.8278,10.8278,10.8278,10.8278,10.8278,10.8278,10.8428,10.8876,10.8951,10.9101,10.9587,10.9661,10.9475,10.8988,10.8951,10.8764,10.8315,10.8278,10.8278,10.8278,10.8278,10.8278,10.8278,10.8278,10.8278,10.8278,10.8278,10.8278,10.8278,10.8278,10.8278,10.8278,10.8278,10.807,8.2208,8.0815,8.0053,7.885,7.9941,8.1138,8.0427,8.236,8.419,8.3882,0.0,0.0,0.0,0.0,0.0,0.0,9.0544,9.2187,9.1224,9.5368,9.9264,10.1341,10.2699,10.344,10.3425,10.3414,10.4174,10.5958,10.4465,10.3807,10.4622,10.108,9.9827,10.1642,10.1048,10.4558,11.267,11.3524,11.4447,11.5579,11.4831,11.4294,11.3871,11.231,11.1318,11.0715,10.9289,10.9423,11.0691,11.2193,11.2749,11.2648,11.2648,11.1325,10.9235,10.7988,10.7701,10.7922,10.7922,10.8092,10.8278,10.8278,10.8278,10.8278,10.8278,10.8278,10.8278,10.8278,10.8278,10.8278,10.8278,10.8278,10.8278,10.8278,10.8278,10.8278,10.8278,10.8278,10.8278,10.8278,10.8278,10.8278,10.8278,10.8278,10.8278,10.8278,10.8278,10.8278,10.8278,10.8278,10.8278,10.8278,10.8278,10.8278,10.8278,10.8278,10.8278,10.8278,10.8278,10.8278,10.8278,10.8278,10.8278,10.8278,10.8278,10.8278,10.8278,10.8278,10.8033,10.7616,10.7899,10.7799,8.2277,7.904,7.7129,7.9168,7.906,7.8865,8.0259,0.0,8.5725,8.553,0.0,8.8284,8.8488,0.0,0.0,8.7727,9.1574,9.4185,9.2578,9.7151,10.1341,10.3208,10.34,10.3425,10.3389,10.3444,10.3396,10.3419,10.3402,10.3414,10.3419,10.34,10.3384,10.3384,10.4102,10.7142,11.2681,11.2728,11.4065,11.6601,11.5984,11.5095,11.4068,11.3773,11.2949,11.1708,11.062,11.0654,11.1595,11.2478,11.2477,11.1696,10.9847,10.8166,10.6882,10.665,10.6928,10.7496,10.7496,10.7868,10.8278,10.8278,10.8278,10.8278,10.8278,10.8278,10.8278,10.8278,10.8278,10.8278,10.8278,10.8278,10.8278,10.8278,10.8278,10.8278,10.8278,10.8278,10.8278,10.8278,10.8278,10.8278,10.8278,10.8278,10.8278,10.8278,10.8278,10.8278,10.8278,10.8278,10.8278,10.8278,10.8278,10.8278,10.8278,10.8278,10.8278,10.8278,10.8278,10.8278,10.8278,10.8278,10.8278,10.8278,10.8199,10.8178,10.8178,10.8178,10.7677,10.6698,10.7283,10.732,7.8615,7.7791,7.8114,7.8017,7.9939,8.1952,0.0,0.0,0.0,8.7542,8.8432,9.0009,9.2305,9.2483,9.2879,9.4751,9.7681,9.9144,9.761,10.0499,10.2971,10.3387,10.34,10.3394,10.3414,10.3394,10.3419,10.3384,10.3419,10.3419,10.343,10.3425,10.3384,10.3384,10.8311,11.1523,11.2719,11.275,11.3648,11.5395,11.4737,11.3418,11.1505,11.0985,11.0338,10.9534,11.0633,11.1555,11.2284,11.1555,11.1281,11.1216,10.9904,10.8361,10.6882,10.665,10.6928,10.7496,10.7496,10.7868,10.8278,10.8278,10.8278,10.8278,10.8278,10.8278,10.8278,10.8278,10.8278,10.8278,10.8278,10.8278,10.8278,10.8278,10.8278,10.8278,10.8278,10.8278,10.8278,10.8278,10.8278,10.8278,10.8278,10.8278,10.8278,10.8278,10.8278,10.8278,10.8278,10.8278,10.8278,10.8278,10.8278,10.8278,10.8278,10.8278,10.8278,10.8278,10.8278,10.8278,10.8278,10.8278,10.8278,10.8278,10.7854,10.7643,10.7643,10.7643,10.7283,10.6564,10.6678,10.6418,7.9236,7.8359,7.852,8.0543,8.1802,0.0,0.0,8.7233,9.0194,8.9345,9.132,9.3615,9.5265,9.513,9.4919,9.5464,9.7963,9.9893,9.9893,10.103,10.1677,10.1119,9.9631,9.988,10.3109,10.3419,10.3405,10.3405,10.343,10.3384,10.3384,10.3384,10.3419,10.3402,10.6428,10.8798,11.037,11.1417,11.3134,11.5429,11.3998,11.2288,11.0394,11.0134,10.9607,10.887,10.8937,10.963,11.0736,11.0102,10.9988,11.0034,10.8187,10.6882,10.5988,10.5867,10.6117,10.6527,10.6585,10.7157,10.7877,10.7877,10.807,10.8278,10.8278,10.8278,10.8278,10.8278,10.8278,10.8278,10.8278,10.8278,10.8278,10.8278,10.8278,10.8278,10.8278,10.8278,10.8278,10.8278,10.8278,10.8278,10.8278,10.8278,10.8278,10.8278,10.8278,10.8278,10.8278,10.8278,10.8278,10.8278,10.8278,10.8278,10.8278,10.8278,10.8278,10.8278,10.8278,10.8278,10.8278,10.8278,10.8135,10.7877,10.7308,10.702,10.702,10.6678,10.6239,10.5747,10.6024,10.5867,8.1169,7.9846,7.9486,8.3691,8.3876,0.0,8.5422,8.9524,9.2575,9.1308,9.4722,9.7635,9.6727,9.7247,9.7077,9.4848,9.7386,9.9786,10.0107,9.9889,9.9386,9.8537,9.5728,9.5909,10.1065,10.1555,10.2047,10.3316,10.34,10.3384,10.3384,10.3384,10.3414,10.3432,10.3788,10.5212,10.774,11.0258,11.2619,11.4735,11.3555,11.2061,11.0286,11.062,11.0245,10.9314,10.8392,10.8654,10.9754,10.9182,10.8684,10.8142,10.6233,10.5391,10.5214,10.5144,10.535,10.5642,10.5735,10.6527,10.7521,10.7496,10.7831,10.8278,10.8278,10.8278,10.8278,10.8278,10.8278,10.8278,10.8278,10.8278,10.8278,10.8278,10.8278,10.8278,10.8278,10.8278,10.8278,10.8278,10.8278,10.8278,10.8278,10.8278,10.8278,10.8278,10.8278,10.8278,10.8278,10.8278,10.8278,10.8278,10.8278,10.8278,10.8278,10.8278,10.8278,10.8278,10.8278,10.8278,10.8278,10.8278,10.8026,10.7496,10.6992,10.6593,10.6329,10.5711,10.5213,10.4896,10.5312,10.5346,8.2281,8.1892,8.2298,8.4627,8.5661,0.0,8.9187,9.1748,9.3595,9.3498,9.8381,10.0939,9.5293,9.8841,10.1352,9.7457,10.0237,10.1498,9.7506,9.7318,9.7493,9.7366,9.5304,9.4189,9.4886,9.4931,9.7318,10.2989,10.34,10.3384,10.3384,10.3384,10.3384,10.3419,10.5209,10.6321,10.6678,11.0624,11.1965,11.087,11.3386,11.3412,11.1274,11.2668,11.2487,11.1151,11.2494,11.2769,11.2172,11.0079,10.7569,10.511,10.5184,10.5356,10.5462,10.5147,10.5455,10.603,10.5799,10.6585,10.7656,10.7521,10.7831,10.8278,10.8278,10.8278,10.8278,10.8278,10.8278,10.8278,10.8278,10.8278,10.8278,10.8278,10.8278,10.8278,10.8278,10.8278,10.8278,10.8278,10.8278,10.8278,10.8278,10.8278,10.8278,10.8278,10.8278,10.8278,10.8278,10.8278,10.8278,10.8278,10.8278,10.8278,10.8278,10.8278,10.8278,10.8278,10.8278,10.8278,10.8278,10.8278,10.8026,10.7496,10.7421,10.6819,10.5642,10.5038,10.4641,10.464,10.4678,10.4678,8.2323,8.2218,8.2996,8.6212,0.0,0.0,9.1105,9.2301,9.3202,9.481,9.8118,10.006,9.8002,9.879,9.9615,9.9112,9.9964,9.9714,9.6827,9.6611,9.6358,9.54,9.4464,9.3885,9.3885,9.3863,9.6501,10.2918,10.34,10.3384,10.3384,10.3384,10.3384,10.3384,10.4245,10.5314,10.6626,10.7464,10.8192,10.883,10.9273,10.8921,10.8014,10.8636,10.8836,10.8678,10.9403,10.9326,10.8605,10.7866,10.6781,10.5563,10.5258,10.5144,10.5109,10.532,10.5491,10.555,10.5449,10.593,10.6613,10.6846,10.7334,10.7891,10.8178,10.8278,10.8278,10.8278,10.8278,10.8278,10.8278,10.8278,10.8278,10.8278,10.8278,10.8278,10.8278,10.8278,10.8257,10.8156,10.8156,10.8156,10.8156,10.8156,10.8178,10.8241,10.8278,10.8278,10.8278,10.8278,10.8278,10.8278,10.8278,10.8278,10.8278,10.8278,10.8278,10.8278,10.8278,10.8278,10.8278,10.8278,10.8026,10.7496,10.7126,10.644,10.558,10.4385,10.3961,10.4229,10.3922,10.3769,8.2289,0.0,0.0,0.0,0.0,0.0,9.1729,9.253,9.3144,9.5574,9.724,9.8719,10.0043,9.9076,9.8326,9.9047,9.8184,9.7003,9.5899,9.5721,9.5253,9.3999,9.3892,9.3887,9.3873,9.5499,9.8465,10.3042,10.3419,10.3438,10.3438,10.3414,10.34,10.3387,10.357,10.4539,10.638,10.5729,10.6232,10.7879,10.7186,10.6756,10.6587,10.6587,10.678,10.7069,10.7069,10.6319,10.5179,10.6019,10.6072,10.5653,10.5402,10.5141,10.4966,10.5653,10.5751,10.5483,10.5283,10.5543,10.6105,10.6448,10.6992,10.7595,10.8113,10.8278,10.8278,10.8278,10.8278,10.8278,10.8278,10.8278,10.8278,10.8278,10.8278,10.8278,10.8278,10.8215,10.807,10.7937,10.7937,10.7959,10.7959,10.8004,10.807,10.8178,10.8257,10.8278,10.8278,10.8319,10.834,10.834,10.834,10.834,10.836,10.836,10.836,10.836,10.836,10.836,10.836,10.834,10.7907,10.7068,10.6576,10.592,10.5105,10.4006,10.3646,10.3994,10.3606,10.345,0.0,0.0,0.0,8.9718,8.7374,8.5068,9.1009,9.2812,9.382,9.5814,9.6773,9.7873,9.9928,10.0253,9.935,9.6759,9.5041,9.4042,9.3971,9.3971,9.3927,9.3905,9.3902,9.3895,9.387,9.9491,10.3214,10.3383,10.3392,10.3405,10.3405,10.3432,10.3391,10.3407,10.4023,10.4751,10.555,10.704,10.7803,10.791,10.948,10.9863,10.9122,10.9122,10.8759,10.8034,10.8034,10.6321,10.3603,10.5553,10.5426,10.4185,10.5309,10.5513,10.5247,10.5993,10.6389,10.6359,10.5486,10.593,10.6827,10.6622,10.6992,10.7595,10.8113,10.8278,10.8278,10.8278,10.8278,10.8278,10.8278,10.8278,10.8278,10.8278,10.8278,10.8278,10.8278,10.7982,10.768,10.7534,10.7607,10.7704,10.7704,10.7822,10.7937,10.8048,10.8215,10.8278,10.8278,10.8381,10.8441,10.8441,10.8441,10.8517,10.8632,10.8651,10.8651,10.8651,10.8651,10.8651,10.8651,10.8537,10.7705,10.6028,10.5854,10.5194,10.4036,10.3994,10.3994,10.3994,10.3994,10.3994,8.3581,8.4434,8.616,9.0353,9.0024,9.0094,9.5519,9.5957,9.5689,9.7116,9.7339,9.7404,9.7695,9.6608,9.5343,9.4409,9.3604,9.3088,9.3088,9.3088,9.3118,9.3104,9.2584,9.2198,9.2242,9.8991,10.2862,10.1575,10.1486,10.2032,10.3325,10.3414,10.3428,10.3412,10.3623,10.4334,10.551,10.5112,10.5141,10.5584,10.5718,10.5656,10.5374,10.5374,10.5212,10.5066,10.6428,10.6224,10.4823,10.4529,10.4658,10.5035,10.517,10.5309,10.5513,10.6411,10.6642,10.6535,10.6461,10.6661,10.6935,10.712,10.7322,10.7595,10.8113,10.8278,10.8278,10.8278,10.8278,10.8278,10.8278,10.8278,10.8257,10.8156,10.8135,10.8092,10.7914,10.7845,10.7822,10.7775,10.7728,10.7704,10.7704,10.7728,10.7868,10.8156,10.8257,10.834,10.8498,10.9472,11.0126,11.0126,11.0126,11.0163,11.0203,10.925,10.9119,11.0128,10.9154,10.8985,11.0048,10.8876,10.7733,10.6743,10.6138,10.513,10.3597,10.3235,10.3277,10.3597,10.3235,10.3111,8.4915,8.5495,8.678,9.1576,9.178,9.2055,9.6878,9.678,9.6062,9.7465,9.6777,9.6032,9.6361,9.5304,9.4303,9.4087,9.3865,9.364,9.3559,9.3785,9.4042,9.4168,9.3456,9.338,9.4533,9.9309,10.1872,10.0614,10.0508,10.105,10.2328,10.356,10.4233,10.4168,10.4672,10.4952,10.4929,10.4157,10.3854,10.4024,10.3599,10.3435,10.3399,10.3423,10.3613,10.401,10.5623,10.5942,10.5275,10.4346,10.4532,10.5377,10.5474,10.5507,10.5674,10.6613,10.6928,10.6846,10.6837,10.6962,10.7171,10.741,10.7509,10.7595,10.8113,10.8278,10.8278,10.8278,10.8278,10.8278,10.8278,10.8278,10.8278,10.8236,10.8135,10.7982,10.768,10.7656,10.768,10.7632,10.7583,10.7558,10.7558,10.7645,10.7789,10.8172,10.822,10.836,10.8632,10.9569,11.043,11.0915,11.0542,11.0692,11.1814,10.9906,10.9307,11.0877,10.9357,10.8867,10.9932,10.8754,10.7616,10.6578,10.5995,10.496,10.3389,10.3099,10.3099,10.3389,10.3063,10.2895,8.6263,8.5418,8.588,9.3406,9.2567,9.1011,9.5359,9.5609,9.5409,9.7029,9.5325,9.4164,9.6259,9.6496,9.6231,9.5768,9.5636,9.5511,9.5288,9.588,9.6456,9.6857,9.6479,9.7349,10.0306,10.0579,10.0473,10.0512,10.0668,10.0793,10.0769,10.3943,10.5748,10.5646,10.685,10.6308,10.3782,10.4166,10.4062,10.3483,10.3483,10.3519,10.3628,10.3543,10.4022,10.4923,10.5639,10.5611,10.5067,10.4998,10.4998,10.517,10.6111,10.6148,10.5707,10.6752,10.7268,10.7396,10.6687,10.6919,10.7555,10.7533,10.7546,10.7619,10.8113,10.8278,10.8278,10.8278,10.8278,10.8278,10.8278,10.8278,10.8319,10.8421,10.8278,10.7982,10.7607,10.7396,10.7305,10.7174,10.7253,10.7331,10.7331,10.7545,10.7805,10.8063,10.8178,10.836,10.8632,10.8856,10.9513,11.0863,10.9776,11.0132,11.3112,11.047,10.9307,11.09,10.9299,10.8377,10.859,10.8274,10.7261,10.5611,10.5487,10.4785,10.3466,10.3466,10.3425,10.3384,10.3384,10.3384,8.5472,8.7159,8.9012,9.4489,9.3384,9.2171,9.6762,9.8213,9.8245,9.7049,9.6887,9.7442,9.8998,9.9028,9.8806,9.867,9.8146,9.7745,9.7669,9.7838,9.8005,9.8106,9.9907,10.1539,10.2328,10.1242,10.047,10.0473,10.2939,10.4429,10.4394,10.5239,10.6159,10.7122,10.5725,10.4461,10.3521,10.3621,10.3902,10.4409,10.4409,10.5173,10.6553,10.5202,10.5255,10.6482,10.5909,10.5976,10.6477,10.5407,10.5605,10.6543,10.6306,10.6313,10.6536,10.7174,10.7459,10.7521,10.7701,10.7989,10.8203,10.822,10.8156,10.8092,10.8257,10.8278,10.8278,10.8278,10.8278,10.8278,10.8278,10.8278,10.8261,10.8319,10.8178,10.8026,10.7822,10.7845,10.7785,10.7607,10.7583,10.7558,10.7459,10.7669,10.7928,10.8156,10.8257,10.836,10.8632,10.97,11.0597,11.0932,11.0672,11.0785,11.1569,10.9812,10.9307,11.0915,10.9377,10.8942,11.0173,10.8742,10.7285,10.5841,10.6068,10.5536,10.4121,10.4121,10.3883,10.3384,10.3384,10.3384,8.6659,8.8237,8.9705,9.4374,9.3406,9.258,9.7282,9.8811,9.8971,9.7927,9.8156,9.875,9.9563,10.0225,10.038,9.9528,9.9601,9.9726,9.9586,9.9872,10.0297,10.0911,10.2397,10.3633,10.4138,10.3328,10.2833,10.283,10.4649,10.5763,10.5749,10.4066,10.345,10.425,10.3842,10.37,10.3846,10.3984,10.4336,10.5046,10.5061,10.5922,10.7381,10.625,10.6175,10.6911,10.6308,10.6403,10.6883,10.6061,10.6184,10.6911,10.6529,10.6536,10.6748,10.7049,10.7227,10.7345,10.7643,10.7959,10.8236,10.8236,10.822,10.8278,10.8278,10.8278,10.8257,10.8113,10.8092,10.8092,10.8092,10.8092,10.8135,10.8319,10.8199,10.8026,10.7845,10.7868,10.7845,10.7656,10.7704,10.7728,10.7534,10.7728,10.7982,10.8257,10.8278,10.836,10.8632,10.9437,11.024,11.0912,11.037,11.054,11.1923,10.9826,10.9189,11.0892,10.9234,10.8605,10.9495,10.8399,10.7271,10.6226,10.5776,10.5038,10.3991,10.3729,10.3486,10.3224,10.3141,10.3057,8.8375,8.8773,8.9273,9.3903,9.3219,9.2583,9.7053,9.8057,9.8244,9.8937,9.9358,9.9535,9.9315,10.1015,10.1799,9.9887,10.0862,10.1804,10.1561,10.2131,10.2979,10.4099,10.4229,10.4661,10.5677,10.5749,10.5734,10.5728,10.5743,10.5659,10.5398,10.207,10.0322,10.068,10.2465,10.381,10.4569,10.4715,10.5032,10.5507,10.5669,10.6215,10.7121,10.6817,10.6689,10.6719,10.6719,10.6719,10.6719,10.6719,10.6719,10.6719,10.6719,10.6661,10.6565,10.6602,10.6703,10.6865,10.6975,10.7345,10.7761,10.7891,10.8026,10.8178,10.8199,10.8178,10.8113,10.7891,10.7845,10.7845,10.7868,10.7891,10.7982,10.836,10.8278,10.8048,10.7822,10.7752,10.768,10.7583,10.7728,10.7775,10.7607,10.7775,10.8004,10.822,10.8278,10.834,10.8594,10.8613,10.9136,11.048,10.9416,10.9698,11.2427,10.9986,10.8955,11.0534,10.8891,10.7845,10.7724,10.7669,10.7253,10.6403,10.5038,10.4056,10.355,10.3086,10.2895,10.2979,10.2731,10.2646,8.7733,8.8829,8.9883,9.4743,9.3723,9.2419,9.5826,9.6595,9.699,9.8327,10.0955,10.2572,10.1281,10.3438,10.487,10.3195,10.4084,10.4952,10.4886,10.5043,10.5194,10.5413,10.5457,10.5534,10.5716,10.5753,10.5714,10.5741,10.5748,10.5075,10.3584,10.2823,10.3163,10.4703,10.4693,10.4921,10.5508,10.5132,10.5469,10.6485,10.6503,10.6724,10.7121,10.6843,10.674,10.6719,10.6719,10.6719,10.6719,10.6719,10.6719,10.6719,10.6719,10.6319,10.5776,10.6009,10.584,10.5597,10.6389,10.6809,10.7183,10.7831,10.7937,10.7822,10.7914,10.7799,10.7632,10.7583,10.7558,10.7607,10.7822,10.7891,10.7959,10.822,10.8278,10.8236,10.8178,10.8004,10.7868,10.7959,10.7752,10.7656,10.7937,10.8092,10.8199,10.8278,10.8278,10.8299,10.834,10.834,10.8452,10.8731,10.8506,10.8564,10.9105,10.8598,10.8411,10.8731,10.8175,10.7592,10.6957,10.7197,10.6779,10.5603,10.4477,10.3989,10.4199,10.4124,10.3578,10.2689,10.2646,10.2646,8.8155,8.793,8.7804,9.2669,9.2762,9.246,9.5611,9.6941,9.7745,9.8476,9.9926,10.0828,10.009,10.1816,10.2877,10.1303,10.2245,10.3208,10.3208,10.3208,10.2993,10.245,10.365,10.4193,10.3325,10.4744,10.5762,10.5762,10.4847,10.3919,10.3044,10.337,10.3941,10.482,10.518,10.5544,10.5938,10.5642,10.5847,10.6622,10.6551,10.6632,10.6764,10.6669,10.6669,10.6719,10.6719,10.6719,10.6719,10.6719,10.6719,10.6719,10.6719,10.6506,10.6196,10.6258,10.6221,10.6148,10.6609,10.6938,10.7283,10.7643,10.7799,10.7799,10.7799,10.7704,10.7558,10.7357,10.7279,10.7331,10.7421,10.7583,10.7752,10.8004,10.7868,10.7728,10.7845,10.7775,10.7752,10.7937,10.7822,10.7799,10.8113,10.8113,10.8113,10.8257,10.8278,10.8278,10.8278,10.8278,10.8278,10.8278,10.8278,10.8319,10.836,10.8319,10.8282,10.836,10.807,10.7677,10.7248,10.7066,10.5958,10.3684,10.3158,10.3064,10.3475,10.3271,10.2923,10.2437,10.2377,10.2289,8.8753,8.7612,8.6509,9.0339,9.1743,9.2973,9.5792,9.744,9.8319,9.8289,9.8463,9.8488,9.8159,9.9626,10.0397,9.8823,9.9887,10.0908,10.0908,10.0908,10.0585,9.9756,10.157,10.2441,10.1324,10.3507,10.5215,10.5686,10.4419,10.363,10.363,10.41,10.4353,10.4353,10.5277,10.5857,10.6072,10.5945,10.6077,10.6459,10.6306,10.6337,10.652,10.6429,10.652,10.6661,10.669,10.6719,10.6719,10.6719,10.6719,10.6719,10.6719,10.6661,10.6499,10.6536,10.6529,10.658,10.6732,10.7012,10.7268,10.7484,10.7632,10.7728,10.7632,10.7607,10.7509,10.712,10.7039,10.7066,10.7093,10.7253,10.7484,10.7752,10.7509,10.7253,10.7534,10.7534,10.7583,10.7845,10.7891,10.7959,10.8236,10.8092,10.8026,10.822,10.8278,10.8278,10.8278,10.8278,10.8278,10.8278,10.8278,10.8319,10.8401,10.834,10.8299,10.834,10.8079,10.7643,10.7185,10.6717,10.5384,10.3123,10.2807,10.2779,10.2826,10.2561,10.2377,10.2445,10.2156,10.2048,8.893,8.9212,8.9128,8.9697,9.1833,9.4357,9.6191,9.6788,9.6954,9.6814,9.7843,9.8274,9.6877,9.8957,10.0397,9.8823,9.9887,10.0908,10.0908,10.0908,10.0872,10.0731,10.0981,10.1451,10.2213,10.2551,10.3568,10.5597,10.558,10.5517,10.5517,10.5553,10.5589,10.5589,10.5693,10.5762,10.5759,10.5759,10.5885,10.616,10.604,10.6176,10.649,10.614,10.6208,10.655,10.6661,10.6719,10.6719,10.6719,10.6719,10.6719,10.6719,10.6343,10.583,10.594,10.5743,10.5434,10.6111,10.6389,10.6564,10.7421,10.7459,10.72,10.7294,10.7253,10.7093,10.6863,10.6826,10.6966,10.7066,10.712,10.72,10.7459,10.7484,10.7534,10.7799,10.7656,10.7583,10.7845,10.7891,10.7959,10.8236,10.8257,10.8257,10.8278,10.8278,10.8278,10.8278,10.8278,10.8278,10.8278,10.8278,10.8299,10.8299,10.8261,10.8156,10.7959,10.7927,10.7126,10.5474,10.5588,10.5839,10.6313,10.5366,10.4421,10.348,10.3499,10.3342,10.3129,10.2377,10.2048,8.7088,8.7332,8.71,8.9197,9.1266,9.2988,9.3755,9.4711,9.5595,9.6326,9.6884,9.7021,9.64,9.7283,9.7879,9.7259,9.766,9.8062,9.8062,9.8062,9.8062,9.8062,9.8901,9.9662,10.0058,10.0945,10.2259,10.4181,10.4006,10.4343,10.5653,10.5762,10.5762,10.5762,10.5762,10.5762,10.5762,10.5762,10.5792,10.5918,10.582,10.589,10.6055,10.5982,10.6014,10.6208,10.649,10.6609,10.6609,10.6661,10.6719,10.6719,10.6719,10.6565,10.6313,10.6386,10.6349,10.6239,10.658,10.6724,10.6865,10.7227,10.7227,10.7093,10.7066,10.7012,10.6966,10.6777,10.6748,10.6834,10.6854,10.6994,10.7147,10.7331,10.7382,10.7484,10.7822,10.7799,10.7822,10.807,10.8113,10.8135,10.8278,10.8278,10.8278,10.8278,10.8278,10.8278,10.8278,10.8278,10.8278,10.8278,10.8278,10.8236,10.8048,10.8026,10.7937,10.768,10.7482,10.7066,10.6359,10.6411,10.6639,10.6954,10.5857,10.5025,10.456,10.424,10.4006,10.3895,10.3129,10.2781,8.5768,8.5617,8.5508,8.8878,9.0104,9.0924,9.2461,9.3318,9.417,9.5595,9.613,9.632,9.629,9.6231,9.6207,9.614,9.6104,9.6073,9.6043,9.6049,9.6049,9.6049,9.7027,9.7683,9.7745,9.8771,9.9938,10.1169,10.172,10.2782,10.4642,10.5371,10.5732,10.5696,10.5696,10.5696,10.5762,10.5762,10.5762,10.5762,10.5762,10.5762,10.5726,10.5857,10.5918,10.5982,10.6176,10.6368,10.652,10.6543,10.6632,10.6719,10.6719,10.6748,10.6777,10.6719,10.6834,10.6966,10.6939,10.6994,10.7039,10.7093,10.7066,10.7012,10.6939,10.6939,10.6939,10.6777,10.6748,10.6777,10.6777,10.6911,10.7066,10.7227,10.7227,10.7242,10.7607,10.7643,10.7728,10.7877,10.7982,10.8048,10.8048,10.8048,10.807,10.8135,10.8135,10.8135,10.8135,10.8236,10.8257,10.8268,10.8129,10.7959,10.7799,10.7775,10.7656,10.7382,10.729,10.7167,10.7105,10.7113,10.7103,10.7105,10.6278,10.583,10.5742,10.5095,10.4785,10.4785,10.3936,10.3579,8.5536,8.4874,8.5324,8.8625,8.825,8.8387,9.3324,9.3282,9.2647,9.4331,9.5713,9.6566,9.6459,9.632,9.614,9.5878,9.5847,9.5785,9.5659,9.5627,9.5627,9.5627,9.5664,9.5727,9.5847,9.5868,9.5977,9.6237,9.9146,10.1373,10.2439,10.4583,10.5676,10.5566,10.5566,10.5598,10.5762,10.5762,10.5762,10.5762,10.5762,10.5762,10.5762,10.5762,10.5824,10.595,10.5824,10.6018,10.649,10.6258,10.6379,10.6719,10.6719,10.6806,10.6883,10.6777,10.6883,10.7093,10.6966,10.6911,10.6939,10.7066,10.7049,10.6911,10.6911,10.7022,10.7039,10.6806,10.6834,10.6911,10.6911,10.6911,10.6966,10.7066,10.6985,10.6966,10.7066,10.712,10.712,10.712,10.7331,10.7509,10.7509,10.7509,10.7583,10.7845,10.7891,10.7891,10.7891,10.8113,10.8268,10.8272,10.7805,10.7509,10.7484,10.7484,10.7382,10.712,10.7364,10.7364,10.712,10.7093,10.7093,10.7093,10.7093,10.7093,10.7093,10.6172,10.5698,10.5698,10.4821,10.4351,8.2869,8.3006,8.3282,8.5643,8.6598,8.7943,9.1839,9.1549,9.117,9.3749,9.4513,9.5039,9.6101,9.7107,9.7411,9.606,9.685,9.7246,9.593,9.5951,9.6049,9.6049,9.6049,9.6043,9.6073,9.6116,9.7027,9.924,10.0298,10.2012,10.4569,10.5334,10.5699,10.5662,10.5662,10.5696,10.5762,10.5762,10.5762,10.5762,10.5762,10.5762,10.5762,10.5762,10.5759,10.5824,10.5853,10.5922,10.6023,10.627,10.6356,10.6349,10.6632,10.6748,10.6777,10.6719,10.6777,10.6826,10.6806,10.6777,10.6806,10.6834,10.6834,10.6777,10.6777,10.6834,10.6798,10.6748,10.6748,10.6769,10.6883,10.6911,10.6966,10.72,10.7227,10.7227,10.7331,10.7382,10.7382,10.7382,10.7433,10.7484,10.7484,10.7484,10.7509,10.7607,10.7632,10.7632,10.7632,10.7606,10.763,10.7743,10.7595,10.7459,10.7382,10.7382,10.7268,10.712,10.729,10.7305,10.7253,10.7405,10.7405,10.7253,10.7253,10.72,10.7093,10.6837,10.6667,10.6521,10.5703,10.5236,8.0462,8.1139,8.2364,8.4859,8.5262,8.5897,8.9341,8.9782,9.0061,9.1927,9.3147,9.4177,9.5121,9.71,9.8177,9.697,9.7761,9.7902,9.6039,9.5847,9.5945,9.5982,9.5982,9.6012,9.6073,9.6073,9.7161,9.9814,10.0543,10.2008,10.4569,10.5334,10.5662,10.5662,10.5662,10.5696,10.5762,10.5762,10.5762,10.5762,10.5762,10.5762,10.5762,10.5762,10.5762,10.5762,10.5759,10.5792,10.5824,10.6018,10.6077,10.6103,10.6379,10.6565,10.6719,10.6719,10.6719,10.6719,10.6719,10.6719,10.6719,10.6719,10.6719,10.6719,10.6719,10.6719,10.6719,10.6719,10.6719,10.6748,10.6798,10.6854,10.6939,10.7039,10.712,10.7147,10.7211,10.7211,10.7211,10.7211,10.7211,10.7211,10.7211,10.7227,10.7279,10.7331,10.7345,10.7334,10.7357,10.7322,10.7297,10.72,10.7279,10.7279,10.7093,10.712,10.712,10.7012,10.7147,10.7227,10.7227,10.7379,10.7379,10.7227,10.7227,10.72,10.7093,10.7039,10.6994,10.6911,10.6373,10.6061,7.848,7.9395,8.2139,8.5509,8.4182,8.2878,8.6304,8.8298,8.9443,8.9553,9.1865,9.3913,9.3848,9.6357,9.8396,9.839,9.8395,9.7745,9.5913,9.5555,9.5518,9.5659,9.5695,9.5759,9.5847,9.5878,9.6595,9.839,9.9887,10.1356,10.2797,10.4365,10.5275,10.5384,10.5384,10.5522,10.5762,10.5762,10.5762,10.5762,10.5762,10.5762,10.5762,10.5762,10.5762,10.5762,10.5632,10.5696,10.5885,10.5553,10.5586,10.595,10.6035,10.6319,10.6661,10.6661,10.669,10.6719,10.6719,10.6719,10.6719,10.6719,10.6719,10.6719,10.6719,10.6719,10.6719,10.6719,10.6719,10.6719,10.6719,10.6834,10.6854,10.6748,10.6834,10.6854,10.6748,10.6719,10.6719,10.6719,10.6719,10.6719,10.6719,10.6798,10.6939,10.7039,10.7063,10.7079,10.7093,10.7168,10.7116,10.674,10.6939,10.6994,10.6748,10.6826,10.6911,10.6911,10.7012,10.7093,10.7093,10.7093,10.7093,10.7093,10.7093,10.7093,10.7093,10.6994,10.6911,10.6911,10.6806,10.6719,7.7786,7.7804,7.8903,8.2305,8.3452,8.4342,8.6436,8.8222,8.971,9.0822,9.2588,9.3848,9.377,9.5391,9.7222,9.8584,9.7647,9.6533,9.5889,9.5945,9.6043,9.6079,9.6079,9.611,9.614,9.6104,9.6827,9.8457,9.8865,9.9777,10.1319,10.1757,10.2559,10.3905,10.3941,10.4489,10.5726,10.5762,10.5762,10.5762,10.5762,10.5762,10.5762,10.5762,10.5762,10.5762,10.5729,10.5662,10.5629,10.5755,10.5686,10.552,10.5849,10.5982,10.6018,10.6196,10.6476,10.6719,10.6719,10.6719,10.6719,10.6719,10.6719,10.6719,10.6719,10.6719,10.6719,10.6719,10.6719,10.6719,10.6719,10.6748,10.6748,10.6719,10.6748,10.6748,10.6719,10.6719,10.6719,10.6719,10.6719,10.6719,10.6719,10.6748,10.6777,10.6769,10.6826,10.6826,10.6834,10.6854,10.6826,10.6719,10.6777,10.6769,10.6719,10.6826,10.6911,10.6911,10.7012,10.7093,10.7093,10.7093,10.7093,10.7093,10.7093,10.7093,10.7093,10.7066,10.6985,10.6911,10.6883,10.6798,7.6366,7.7071,7.8501,8.0413,8.1462,8.2705,8.5136,8.6381,8.7438,8.8902,9.0474,9.1789,9.2507,9.4595,9.6857,9.8823,9.8713,9.7812,9.6225,9.6104,9.6237,9.6237,9.6237,9.6237,9.6237,9.6237,9.6857,9.8457,9.8474,9.9172,10.074,10.0813,10.1542,10.3183,10.2592,10.3354,10.5726,10.4134,10.3704,10.4499,10.4499,10.493,10.5762,10.5762,10.5762,10.5762,0.0,10.5696,10.5665,10.5729,10.5626,10.5457,10.5623,10.5656,10.5589,10.5885,10.6202,10.6366,10.5814,10.5651,10.5651,10.5651,10.5651,10.5798,10.6498,10.6719,10.6719,10.6719,10.6719,10.6719,10.6719,10.6719,10.6719,10.6719,10.6719,10.6719,10.6719,10.6719,10.6719,10.6719,10.6719,10.6719,10.6719,10.6777,10.6806,10.6719,10.6777,10.6769,10.6719,10.6719,10.6719,10.6719,10.6719,10.6719,10.6719,10.6769,10.6826,10.6911,10.6939,10.6939,10.6939,10.6939,10.6939,10.6939,10.6939,10.6939,10.6939,10.6939,10.6883,10.6798,10.6798,10.6769,7.5333,7.6858,7.8963,7.9085,7.9402,8.0496,8.3619,8.4627,8.5252,8.6575,8.8135,8.9668,9.1091,9.3828,9.6493,9.8525,9.9541,9.9213,9.6535,9.6207,9.6237,9.6237,9.6237,9.6237,9.6237,9.617,9.6718,9.8031,9.8021,9.8509,9.9851,9.9924,10.0761,10.2618,10.1186,10.1903,10.493,10.2039,10.139,10.3018,10.3306,10.4247,10.5729,10.5729,10.5659,10.5659,0.0,10.5659,10.5626,10.5528,10.5316,10.5063,10.4954,10.4772,10.4591,10.4797,10.5057,10.5088,10.4175,10.3908,10.3965,10.3993,10.3993,10.4288,10.5872,10.6388,10.6396,10.6587,10.6661,10.6661,10.6661,10.6506,10.6425,10.6653,10.6506,10.6425,10.6646,10.6719,10.6719,10.6719,10.6719,10.6719,10.6719,10.6834,10.6863,10.6719,10.6834,10.6826,10.6719,10.6719,10.6719,10.6719,10.6719,10.6719,10.6719,10.6719,10.6777,10.6883,10.6777,10.6719,10.6719,10.6719,10.6719,10.6719,10.6719,10.6719,10.6719,10.6719,10.6719,10.6719,10.6719,10.6719,7.6687,7.6955,7.7357,7.7344,7.9365,8.1822,8.3745,8.6228,8.8172,8.8427,8.9814,9.1055,9.1347,9.2843,9.4631,9.642,9.6657,9.6419,9.5951,9.6073,9.6237,9.6237,9.6237,9.6237,9.6237,9.6043,9.5987,9.6206,9.6117,9.6168,9.6386,9.6422,9.7831,10.0976,9.9354,9.9361,10.1284,10.0841,10.1453,10.3055,10.4605,10.5407,10.56,10.56,10.5459,10.5249,0.0,0.0,10.5249,10.5214,10.4311,10.2901,10.2901,10.2035,10.0737,10.091,10.101,10.1039,10.1341,10.1698,10.2093,10.2206,10.2234,10.2557,10.4251,10.473,10.4967,10.6092,10.6459,10.652,10.6435,10.5557,10.507,10.6285,10.5609,10.5098,10.6425,10.6719,10.6719,10.6719,10.6719,10.6719,10.6719,10.6719,10.6748,10.6719,10.6719,10.6748,10.6719,10.6719,10.6719,10.6719,10.6719,10.6719,10.6719,10.6719,10.6719,10.6748,10.6719,10.6719,10.6719,10.6719,10.6719,10.6719,10.6719,10.6719,10.6719,10.6719,10.6719,10.6719,10.6719,10.6719,7.6955,7.7612,7.805,7.7174,7.8683,8.0811,8.2442,8.3938,8.5408,8.7141,8.8061,8.8834,8.9622,9.1049,9.2395,9.3172,9.4632,9.5722,9.5722,9.5883,9.6073,9.6201,9.6237,9.6237,9.6237,9.5976,9.5847,9.5847,9.5632,9.554,9.554,9.554,9.6624,9.9045,9.752,9.7451,9.8981,9.7244,9.7639,10.017,10.1033,10.1902,10.2809,10.2809,10.2741,10.2637,10.2637,0.0,10.2637,10.2637,10.2167,10.1375,10.1236,10.0697,10.0013,10.0014,10.008,10.0248,10.0478,10.0382,10.0144,10.0336,10.0485,10.1056,10.3438,10.2902,10.1778,10.3432,10.3969,10.3961,10.3903,10.3474,10.3192,10.3842,10.3438,10.3106,10.3806,10.4652,10.5241,10.5241,10.6035,10.6719,10.6719,10.6719,10.6719,10.6719,10.6719,10.6719,10.6719,10.6719,10.6719,10.6719,10.6719,10.6719,10.6719,10.6719,10.6719,10.6719,10.6719,10.6719,10.6719,10.6719,10.6719,10.6719,10.6719,10.6719,10.6719,10.6719,10.6719,10.6719,10.6719,10.6719,7.6955,0.0,7.9486,7.7904,7.9267,8.1212,0.0,8.2474,8.3395,8.58,8.6245,8.6727,8.8182,8.9714,9.0882,9.1116,9.3681,9.5809,9.6345,9.6403,9.6637,9.7228,9.7003,9.6748,9.6748,9.6194,9.578,9.5785,9.5572,9.5413,9.5343,9.5738,9.6532,9.7724,9.5942,9.5471,9.6571,9.4807,9.5205,9.776,9.8192,9.9126,10.0424,10.0424,10.0391,10.036,10.036,0.0,10.036,10.036,10.0139,9.9743,9.9537,9.9249,9.8889,9.8754,9.8857,9.902,9.9054,9.8586,9.7977,9.8267,9.8505,9.9205,10.1978,10.0885,9.9183,10.1067,10.166,10.1688,10.1717,10.1543,10.1387,10.1727,10.1487,10.1247,10.1615,10.2616,10.3461,10.3461,10.4549,10.5491,10.5491,10.5756,10.6043,10.6072,10.644,10.6661,10.6719,10.6719,10.6719,10.6719,10.6719,10.6719,10.6719,10.669,10.6632,10.6602,10.6632,10.6632,10.6602,10.6632,10.6698,10.6698,10.6698,10.6661,10.6719,10.6719,10.6719,10.6719,10.6719,10.6719,0.0,7.9157,8.1103,7.9559,8.2588,8.56,8.4153,8.4917,0.0,8.6133,8.6112,8.6584,8.8153,8.9714,9.1099,9.2048,9.4143,9.6381,9.8432,9.8395,9.8786,10.0366,9.9266,9.8384,9.8384,9.6845,9.5785,9.5659,9.5507,9.5343,9.5105,9.6682,9.7652,9.776,9.4626,9.2973,9.3082,9.5959,9.7543,9.7796,9.9486,10.0248,10.0115,10.0115,10.0047,0.0,9.9945,9.9945,0.0,9.9945,9.9006,9.7597,9.7597,9.666,9.5396,9.5261,9.5227,9.5261,9.5396,9.5455,9.5543,9.5962,9.6177,9.6649,9.87,9.8792,9.8604,10.0434,10.1059,10.1212,10.1435,10.0602,10.0034,10.1357,10.0641,10.0061,10.1534,10.1827,10.1815,10.1815,10.1838,10.1824,10.1824,10.3035,10.4056,10.4167,10.5557,10.658,10.669,10.6719,10.6719,10.6719,10.6719,10.6719,10.6719,10.6609,10.6459,10.6374,10.6459,10.6459,10.6374,10.6459,10.652,10.652,10.652,10.6609,10.6719,10.6719,10.6719,10.6719,10.6719,10.6719,7.7929,8.0047,8.1375,7.973,8.2223,8.4861,8.4116,8.4417,8.5053,8.5844,8.6004,8.612,8.6581,8.7962,8.9337,9.0034,9.2078,9.4307,9.6471,9.804,9.8609,9.7708,9.8303,9.8286,9.699,9.6242,9.5816,9.5754,9.4593,9.3856,9.3755,9.3397,9.3614,9.4593,9.4478,9.4337,9.4168,9.4452,9.5099,9.6075,9.6927,9.7217,9.6943,9.715,9.7083,9.6876,9.6876,9.6876,0.0,9.6876,9.6515,9.5938,9.5938,9.5576,9.5071,9.5003,9.4969,9.4969,9.5037,9.5172,9.5406,9.5627,9.5816,9.6043,9.6905,9.6875,9.6772,9.7605,9.8061,9.8333,9.8428,9.8213,9.8073,9.8535,9.8148,9.7835,9.8338,9.9198,9.9836,9.9836,10.0738,10.1758,10.2748,10.3415,10.4179,10.5267,10.5995,10.6031,10.5027,10.4969,10.5028,10.5028,10.5152,10.5688,10.6646,10.6698,10.6602,10.658,10.6639,10.658,10.6466,10.6526,10.5982,10.4863,10.4826,10.4343,10.344,10.344,10.4013,10.5028,10.5028,10.5638,7.8793,8.0937,8.2314,8.1204,8.3297,8.5481,8.4872,8.5081,8.5632,8.643,8.6985,8.7136,8.6472,8.8066,8.951,8.9338,9.2019,9.4605,9.5985,9.8267,9.9087,9.7403,9.8149,9.8208,9.6658,9.5639,9.4808,9.4201,9.2929,9.2155,9.2127,9.2059,9.1926,9.1864,9.3518,9.4313,9.4144,9.3635,9.3923,9.5003,9.5208,9.5208,9.5071,9.5241,9.5208,9.5071,9.5071,9.5071,0.0,9.5071,9.5071,9.5071,9.5071,9.5071,9.5071,9.5071,9.5071,9.5071,9.5071,9.5174,9.5343,9.5438,9.5532,9.5591,9.5686,9.5591,9.5499,9.5686,9.6031,9.6364,9.6566,9.6761,9.6861,9.6861,9.6816,9.6706,9.6622,9.738,9.8121,9.8121,9.9095,10.0261,10.1265,10.2291,10.3141,10.3831,10.5223,10.5474,10.3305,10.3579,10.3961,10.3984,10.4145,10.4873,10.6366,10.6446,10.6446,10.6423,10.6416,10.6423,10.6275,10.6301,10.5756,10.4527,10.449,10.3751,10.2198,10.2198,10.2551,10.319,10.319,10.3873,7.9463,8.1752,8.421,8.4339,8.66,8.8363,8.6729,8.7397,8.8354,8.8056,8.9258,8.9871,8.8355,9.0594,9.2182,9.063,9.4609,9.7854,9.7721,9.9401,10.0547,10.0418,9.9266,9.8362,9.7919,9.5083,9.2551,9.0702,9.0557,9.0531,9.0409,9.357,9.3758,9.0117,9.1425,9.2148,9.2148,9.3973,9.4834,9.4868,9.5003,9.5071,9.5071,9.5071,9.5071,9.5071,9.5071,9.5071,0.0,9.5071,9.5071,9.5071,9.5071,9.5071,9.5071,9.5071,9.5071,9.5071,9.5071,9.5071,9.5071,9.5071,9.5071,9.5071,9.5071,9.5071,9.5071,9.5071,9.5337,9.5754,9.6451,9.6594,9.6678,9.6941,9.6994,9.702,9.6994,9.6888,9.6789,9.6789,9.6678,9.6566,9.6459,9.9035,10.0541,9.9035,10.2877,10.4842,10.1875,10.2858,10.3842,10.3984,10.3984,10.4526,10.5799,10.5913,10.5885,10.5762,10.589,10.5885,10.5726,10.5853,10.595,10.5913,10.5913,10.5203,10.3782,10.3782,10.2975,10.1464,10.1464,10.1464,8.0145,8.1752,8.3081,8.5332,8.6556,8.7286,8.7717,8.7303,8.6686,8.6322,8.6786,8.7425,8.7953,8.8882,8.9776,9.0301,9.1725,9.2757,9.2725,9.433,9.4942,9.353,9.407,9.3707,9.1489,9.1322,9.1225,9.0742,8.9635,8.9404,9.0459,9.1372,9.1857,9.1807,9.3353,9.4146,9.4045,9.4685,9.5003,9.5003,9.5244,9.5208,9.5071,9.5241,9.5208,9.5071,9.5071,9.5071,0.0,9.5559,9.5463,9.5068,9.5559,9.5463,9.5071,9.5071,9.5071,9.5071,9.5071,9.5071,9.5071,9.5071,9.5071,9.5071,9.5071,9.5071,9.5071,9.5071,9.5138,9.5337,9.5785,9.6217,9.6451,9.6349,9.6472,9.6566,9.6459,9.6401,9.6408,9.6408,9.6379,9.6649,9.7715,9.9584,10.119,10.1916,10.4217,10.5094,10.3075,10.3316,10.3702,10.3727,10.3727,10.4386,10.6066,10.6213,10.6213,10.615,10.6182,10.6114,10.5885,10.5918,10.5369,10.4181,10.4144,10.3372,10.1759,10.1759,10.1503,10.1065,10.2395,10.2969,8.0898,8.1676,8.2468,8.569,8.6475,8.6639,8.7483,8.7332,8.6969,8.6665,8.7086,8.7534,8.7828,8.8942,8.9699,8.9343,9.1055,9.1878,9.0549,9.1874,9.2308,9.0457,9.0677,9.0353,8.8774,8.8549,8.8887,8.9925,8.8276,8.7895,8.9487,8.9402,9.0288,9.2455,9.3392,9.415,9.4693,9.4867,9.4969,9.4969,9.5174,9.5208,9.5071,9.5208,9.5208,9.5071,9.5071,9.5071,0.0,9.578,9.5811,9.5495,9.5872,9.5811,9.5398,9.5135,9.5071,9.5071,9.5071,9.5071,9.5071,9.5071,9.5071,9.5071,9.5071,9.5071,9.5071,9.5071,9.5071,9.5105,9.5337,9.5754,9.6128,9.6151,9.621,9.6276,9.6342,9.635,9.632,9.6342,9.6379,9.6635,9.7526,9.8993,10.0162,10.0595,10.3016,10.4043,10.1843,10.2715,10.3545,10.3608,10.369,10.4209,10.5291,10.5841,10.6087,10.6087,10.6087,10.6114,10.616,10.616,10.5774,10.4962,10.4759,10.3837,10.2188,10.1984,10.1529,10.0908,10.2025,10.2527,8.1526,8.1547,8.2295,8.5791,8.6502,8.6365,8.663,8.7483,8.8196,8.8023,8.877,8.9053,8.7857,8.9877,9.085,8.8073,9.1471,9.3269,9.0009,9.0906,9.1267,8.9724,8.8523,8.7984,8.8453,8.6602,8.6202,8.835,8.6658,8.6194,8.7741,8.7728,8.9106,9.2169,9.2214,9.29,9.4265,9.4691,9.4868,9.4868,9.5003,9.5105,9.5172,9.5172,9.5169,9.5235,9.5235,9.5235,0.0,9.5927,9.6108,9.6055,9.6078,9.6048,9.5964,9.5301,9.5102,9.5202,9.5105,9.5105,9.5102,9.5071,9.5105,9.5172,9.5172,9.503,9.4885,9.4885,9.4852,9.4888,9.4921,9.5228,9.5695,9.6187,9.6181,9.6144,9.648,9.6509,9.6509,9.6574,9.665,9.6614,9.6415,9.7762,9.8377,9.6985,10.0529,10.2328,9.9447,10.1554,10.3389,10.3476,10.369,10.3846,10.3846,10.4845,10.5414,10.5414,10.5561,10.5847,10.6343,10.6482,10.68,10.7286,10.6827,10.5921,10.4474,10.3855,10.2741,10.1211,10.1101,10.1101,8.0618,8.1299,8.2497,8.6924,8.7163,8.6601,8.776,8.7353,8.6613,8.605,8.6302,8.6705,8.7126,8.8076,8.8489,8.7651,8.867,8.8765,8.6501,8.6566,8.6701,8.6218,8.6066,8.5922,8.593,8.5595,8.555,8.6039,8.5643,8.5535,8.5895,8.7215,8.8734,9.0477,9.1873,9.2702,9.2928,9.4322,9.5003,9.5003,9.5037,9.5333,9.5805,9.5805,9.6041,9.643,9.643,9.643,0.0,9.7005,9.6757,9.6048,9.6467,9.6419,9.5964,9.5301,9.5644,9.6317,9.5395,9.5398,9.5748,9.5238,9.5398,9.5805,9.5805,9.4808,9.3697,9.3697,9.3609,9.355,9.3635,9.4359,9.5141,9.554,9.5939,9.613,9.6024,9.6531,9.6884,9.6401,9.6868,9.713,9.6385,9.8157,9.9634,9.9497,10.1297,10.2395,10.1718,10.221,10.2654,10.268,10.272,10.277,10.277,10.3002,10.3146,10.3146,10.4319,10.5001,10.513,10.6441,10.7185,10.7286,10.7185,10.6986,10.6652,10.5201,10.4308,10.3938,10.2691,10.2655,7.9586,8.062,8.1953,8.432,8.4836,8.5046,8.5902,8.6018,8.5837,8.5478,8.5931,8.6278,8.5963,8.6957,8.7592,8.6751,8.7744,8.7963,8.604,8.5852,8.5793,8.5569,8.5508,8.5453,8.5239,8.5239,8.5239,8.5167,8.5203,8.5483,8.6039,8.6989,8.8066,8.9295,9.0282,9.1504,9.297,9.3863,9.485,9.5915,9.5915,9.6064,9.6419,9.6137,9.6196,9.6439,9.6439,9.6439,9.6495,9.7265,9.7265,9.6784,9.7093,9.7017,9.6704,9.6087,9.6289,9.673,9.6087,9.6123,9.6041,9.4045,9.3601,9.3893,9.3893,9.3251,9.247,9.247,9.2413,9.2391,9.2442,9.2892,9.3334,9.3554,9.3835,9.3989,9.3748,9.476,9.5637,9.5364,9.6405,9.7155,9.6683,9.7656,9.8635,9.8941,10.0238,10.1177,10.1307,10.1018,10.0759,10.0759,10.1263,10.1617,10.1617,10.212,10.2757,10.35,10.4341,10.5279,10.6318,10.7197,10.7758,10.8033,10.7817,10.7668,10.7668,10.6529,10.5961,10.5961,10.5145,10.5132,7.859,7.9686,8.0873,8.1118,8.2124,8.3111,8.3689,8.4452,8.517,8.5655,8.6225,8.6278,8.5052,8.638,8.7339,8.6403,8.7952,8.8688,8.7029,8.6899,8.671,8.6052,8.5873,8.5764,8.5533,8.5416,8.5324,8.5216,8.5293,8.5778,8.6774,8.6825,8.7281,8.8307,8.8345,8.9889,9.317,9.382,9.4989,9.681,9.681,9.6826,9.6903,9.6495,9.6334,9.6456,9.6456,0.0,9.6484,9.7351,9.7631,9.7562,9.7548,9.7548,9.7493,9.6955,9.6914,9.698,9.6541,9.6405,9.5941,9.2851,9.1776,9.167,9.167,9.146,9.1213,9.1177,9.1213,9.1177,9.1266,9.137,9.1535,9.1562,9.1633,9.1686,9.1545,9.2625,9.3688,9.3832,9.5189,9.6216,9.5867,9.6228,9.6674,9.6788,9.8406,9.965,9.9867,9.8835,9.8043,9.8111,9.8961,9.9549,9.9549,10.0704,10.1975,10.3277,10.3895,10.5028,10.6846,10.722,10.7695,10.8411,10.7995,10.7952,10.8193,10.7497,10.7142,10.7142,10.6882,10.6858,7.7889,7.8634,7.9495,8.1277,8.195,8.2622,8.4345,8.386,8.3687,8.6206,8.5752,8.5077,8.5773,8.6437,8.7165,8.8114,8.8908,8.905,8.8139,8.8519,8.8149,8.6301,8.6247,8.6381,8.6328,8.6328,8.6301,8.6301,8.6229,8.6283,8.6549,8.6575,8.6748,8.7103,8.7121,8.8741,9.2141,9.4974,9.6536,9.681,9.681,9.7031,9.7479,9.7409,9.7645,9.8043,9.8043,9.8,9.7876,9.8043,9.7809,9.7413,9.7385,9.7398,9.7364,9.6977,9.7302,9.7668,9.5402,9.481,9.4886,9.3514,9.2701,9.2231,9.2231,9.1062,8.9745,8.9846,8.9796,8.9734,8.9958,9.0685,9.1398,9.1535,9.1562,9.1643,9.1953,9.1959,9.191,9.2047,9.2925,9.309,9.1406,9.3242,9.4701,9.3852,9.6743,9.9058,9.9096,9.6445,9.4591,9.4728,9.4849,9.4969,9.4969,9.6462,9.7444,9.7669,10.0351,10.2036,10.2311,10.3776,10.5258,10.6811,10.6761,10.742,10.8756,10.7331,10.6621,10.6583,10.5136,10.5032,7.6745,7.821,7.928,7.9303,8.0625,8.2167,8.3174,8.4197,8.5249,8.6449,8.7612,8.7991,8.6427,8.6619,8.7234,8.7884,8.7686,8.7642,8.8177,8.8484,8.8211,8.7026,8.6941,8.6916,8.6539,8.6513,8.6487,8.6408,8.6929,8.7336,8.7382,8.7382,8.7464,8.765,8.8291,8.9362,9.0956,9.4267,9.6542,9.7794,9.7794,9.7904,9.8094,9.7742,9.7698,9.7926,0.0,9.7861,9.7757,9.8127,9.7543,9.6375,9.6404,9.5862,9.509,9.48,9.5016,9.5291,9.4044,9.3078,9.2153,9.0806,9.0203,8.9952,8.9952,8.9345,8.8663,8.873,8.8708,8.8686,8.8797,8.9158,8.9513,8.9583,8.9583,8.9606,8.969,8.962,8.9808,9.0804,9.2026,9.2611,9.1658,9.2657,9.3455,9.3161,9.4612,9.6051,9.6779,9.5707,9.5016,9.5344,9.5397,9.5036,9.4178,9.478,9.5968,9.7802,9.9267,10.0867,10.2695,10.348,10.421,10.4962,10.5065,10.5908,10.7563,10.6848,10.6961,10.7826,10.7074,10.7045,7.6001,7.7673,7.8828,7.7841,7.9287,8.1095,8.1802,8.3675,8.5487,8.6216,8.8387,8.9332,8.6499,8.6468,8.6837,8.6889,8.6247,8.6275,8.7749,8.8115,8.8019,8.7478,8.7456,8.7326,8.683,8.6805,8.6449,8.5531,8.6275,8.6767,8.6767,8.6787,8.6864,8.6923,8.7781,8.8534,8.9027,9.2012,9.477,9.7229,9.6781,9.6818,9.7173,9.6681,9.6472,9.6449,9.6449,9.6383,9.6292,9.6756,9.6152,9.4935,9.4956,9.4248,9.3202,9.3182,9.3182,9.307,9.2095,9.0897,8.9609,8.8421,8.8049,8.7971,8.7971,8.8285,8.8465,8.8078,8.8243,8.8465,8.8041,8.7967,8.7967,8.7967,8.8264,8.8465,8.7856,8.8093,8.8649,8.9419,9.0529,9.1321,9.1214,9.1306,9.1648,9.2458,9.2214,9.2689,9.465,9.5018,9.5304,9.5733,9.5771,9.5283,9.4142,9.4383,9.5667,9.8082,9.8645,9.998,10.2425,10.2515,10.2716,10.3146,10.325,10.4163,10.5871,10.5871,10.6472,10.76,10.76,10.7863,7.6105,7.6749,7.7474,7.8131,7.8319,7.8859,8.0824,8.1342,8.2228,8.5326,8.6217,8.6252,8.5809,8.5675,8.5535,8.5307,8.5295,8.576,8.6951,8.7766,8.8029,8.7363,8.7538,8.765,8.7591,8.7591,8.6341,8.3394,8.3212,8.3253,8.3253,8.3369,8.3369,8.3253,8.3446,8.4321,8.5959,8.7841,9.0432,9.3563,9.1942,9.2016,9.3563,9.3543,9.3446,9.3343,9.3343,9.3281,9.3153,9.3174,9.3137,9.3084,9.3174,9.3116,9.2973,9.3202,9.3141,9.2447,8.9244,8.8152,8.8161,8.807,8.7988,8.7867,8.7867,8.8804,8.9593,8.8116,8.8752,8.9556,8.8079,8.7694,8.7694,8.7694,8.8915,8.9633,8.787,8.8771,8.9389,8.7759,8.7514,8.7551,8.7551,8.7626,8.8494,9.073,8.9526,8.9704,9.3472,9.3867,9.3846,9.4006,9.4019,9.4008,9.3896,9.5245,9.6183,9.6354,9.7887,9.8825,9.9012,9.9012,9.9759,10.1381,10.1419,10.2294,10.4141,10.4141,10.4179,10.4254,10.4254,10.5119,7.3585,7.4348,7.5148,7.6613,7.8563,8.0562,8.2242,8.3439,8.4783,8.6965,8.7486,8.7542,8.7356,8.7318,8.6866,8.5589,8.4452,8.3872,8.4374,8.4695,8.4736,8.4442,8.4442,8.4405,8.4405,8.4273,8.3771,8.2842,8.2218,8.2165,8.2835,8.4992,8.5659,8.4538,8.6574,8.7992,8.8586,9.0459,9.1449,9.1426,9.0911,9.1566,9.3302,9.3302,9.3282,9.3242,9.3242,9.3182,9.3021,9.3021,9.2347,9.1317,9.1322,9.0728,8.9795,8.9816,8.9816,8.9609,8.8417,8.8029,8.807,8.807,8.7951,8.7846,8.7846,8.8145,8.8404,8.782,8.8094,8.8368,8.782,8.8486,8.93,8.93,8.9744,9.0299,9.0637,8.9528,8.8936,9.0369,8.8895,8.7755,8.8825,8.8111,8.8078,9.0283,9.1057,9.2373,9.4928,9.6323,9.6687,9.5636,9.523,9.4742,9.4052,9.454,9.5261,9.6265,9.6903,9.7641,9.8571,9.8716,9.9029,9.9646,9.9646,10.0522,10.2257,10.2245,10.2812,10.3863,10.3863,10.4201,7.2319,7.3052,7.3769,7.5209,7.7174,7.9182,8.0731,8.2437,8.4066,8.5637,8.6578,8.7022,8.6829,8.6697,8.6201,8.4991,8.3161,8.214,8.2798,8.237,8.2197,8.261,8.2517,8.2473,8.2539,8.1308,8.066,8.0979,8.0947,8.1227,8.1934,8.4644,8.5607,8.4448,8.6553,8.7692,8.7692,8.9011,8.8734,8.7002,8.7641,8.8613,8.9866,9.1023,9.1544,9.1544,9.1544,9.1504,9.1405,9.1405,9.0695,8.9609,8.9609,8.8978,8.8049,8.7967,8.7988,8.807,8.807,8.807,8.807,8.807,8.8008,8.7909,8.7867,8.8189,8.8375,8.7776,8.799,8.8263,8.7708,8.8373,8.9223,8.9223,8.9667,9.0184,9.0664,8.9519,8.8854,9.0442,8.8969,8.7755,8.8885,8.8053,8.7778,8.9195,9.1046,9.313,9.5566,9.7152,9.785,9.7326,9.6919,9.6409,9.5705,9.5645,9.6102,9.7144,9.7181,9.7604,9.8571,9.8763,9.8806,9.8876,9.8931,9.9531,10.068,10.0675,10.1262,10.2376,10.2268,10.252,7.2466,7.2887,7.3322,7.4072,7.4084,7.4409,7.6242,7.7943,7.9561,8.113,8.2924,8.4157,8.4012,8.3664,8.3409,8.3403,8.1569,8.0694,8.233,8.11,8.0571,8.2089,8.203,8.2007,8.2259,7.9173,7.7357,7.771,7.9301,8.0225,8.0204,8.1876,8.28,8.2619,8.2779,8.2895,8.2932,8.2937,8.2087,8.0344,8.2087,8.2909,8.3047,8.6375,8.7901,8.7975,8.8012,8.807,8.807,8.807,8.807,8.807,8.807,8.807,8.807,8.809,8.8053,8.8053,8.8053,8.8053,8.8053,8.8053,8.8053,8.8033,8.793,8.8914,8.9781,8.8004,8.8567,8.9356,8.7711,8.7306,8.7343,8.7343,8.8632,8.9369,8.7748,8.8632,8.9258,8.7711,8.7343,8.7306,8.7343,8.7306,8.7353,8.7603,8.896,9.128,9.4885,9.5678,9.6637,9.8511,9.8687,9.8675,9.8675,9.8692,9.8692,9.8767,9.8783,9.8746,9.8708,9.8818,9.8887,9.8992,9.9114,9.9269,9.9432,9.9384,9.9384,9.9422,9.9157,9.9859,7.0376,7.026,7.0922,7.3481,7.5053,7.6369,7.7938,7.8627,7.9441,8.1241,8.1049,8.1297,8.3704,8.405,8.3878,8.3685,8.2124,8.0985,8.1067,7.9601,7.8552,7.8622,7.8524,7.8701,7.9117,7.8116,7.7579,7.7884,7.8602,7.8943,7.8747,8.2218,8.3674,8.251,8.369,8.4892,8.6035,8.6126,8.4724,8.1868,8.374,8.336,8.11,8.3259,8.4934,8.6166,8.7472,8.8154,8.8324,8.8153,8.8174,8.8324,8.8153,8.807,8.8093,8.8475,8.863,8.863,8.863,8.863,8.863,8.863,8.8546,8.8461,8.8429,8.8509,8.8562,8.8039,8.8089,8.8152,8.758,8.8332,8.9231,8.9135,8.9479,8.9958,9.0658,8.9332,8.8521,9.0437,8.889,8.7674,8.889,8.8079,8.8151,9.0734,8.7789,8.6144,8.8567,8.9065,9.0312,9.3293,9.5412,9.6734,9.7047,9.7146,9.7736,9.9056,9.9238,9.8689,9.7392,9.7361,9.6843,9.5629,9.5678,9.6298,9.7531,9.6308,9.6363,9.7511,9.6222,9.6202,6.9271,6.8983,6.9607,7.1678,7.2991,7.4368,7.6691,7.6621,7.6793,7.9254,7.898,7.9102,8.1811,8.2774,8.3402,8.4006,8.2448,8.106,8.0843,7.9261,7.802,7.7762,7.7682,7.78,7.8184,7.8114,7.8023,7.803,7.9091,7.9934,8.0313,8.227,8.3094,8.2434,8.4699,8.6017,8.6236,8.537,8.3906,8.188,8.2293,8.1867,8.0715,8.17,8.3483,8.5845,8.7631,8.8479,8.8589,8.8445,8.8442,8.8589,8.8445,8.8376,8.8428,8.8721,8.8826,8.884,8.885,8.8836,8.8836,8.8845,8.8285,8.7611,8.7581,8.6871,8.6088,8.6034,8.5919,8.5795,8.5696,8.6416,8.7136,8.7072,8.705,8.7309,8.8241,8.6967,8.621,8.8121,8.6951,8.5967,8.693,8.6257,8.6527,8.936,8.7334,8.568,8.6178,8.6948,8.8009,8.938,9.1682,9.3239,9.3477,9.355,9.4065,9.5116,9.5234,9.4815,9.3741,9.3831,9.3432,9.2415,9.2486,9.2987,9.3984,9.298,9.335,9.5001,9.3872,9.2842,6.8407,6.8286,6.8658,6.9194,6.9467,7.0487,0.0,7.3434,7.3246,7.6258,7.6896,7.7319,7.8858,8.0339,8.1913,8.3737,8.2265,8.101,8.1258,7.9656,7.8494,7.8634,7.8352,7.8243,7.8611,7.8717,7.8627,7.8318,8.0087,8.1697,8.282,8.1828,8.154,8.2233,8.5081,8.5936,8.4599,8.2651,8.1455,8.1043,7.9728,7.9759,8.0941,8.1143,8.2903,8.5831,8.7544,8.8371,8.8554,8.8737,8.8864,8.8874,8.8864,8.8754,8.8656,8.8665,8.8528,8.838,8.8389,8.8375,8.8399,8.8404,8.7266,8.5953,8.5967,8.4809,8.3428,8.3344,8.3292,8.3257,8.3239,8.3239,8.3239,8.3221,8.3221,8.3239,8.3381,8.3398,8.3378,8.3391,8.3524,8.3602,8.3436,8.3625,8.4196,8.5301,8.6605,8.7038,8.5822,8.7073,8.7653,8.6599,8.7902,8.8969,8.912,8.9138,8.9232,8.9421,8.9636,8.9569,8.922,8.9601,8.9615,8.9268,8.9396,8.9544,8.9696,8.9544,9.0303,9.1935,9.1534,8.9606,0.0,0.0,0.0,0.0,0.0,0.0,0.0,7.3476,7.4339,7.4983,7.5053,7.5106,7.555,7.6984,7.8638,8.0367,8.0342,8.0461,8.1424,8.0065,7.909,7.9424,7.7777,7.7341,7.9134,7.9164,7.9091,7.9225,7.955,7.9729,7.9782,7.9625,8.0096,8.1289,8.1941,8.2709,8.3648,8.3237,8.2357,8.1081,8.2093,8.136,7.9108,8.0492,8.151,8.2311,8.401,8.5531,8.6925,8.8286,8.9008,8.9276,8.8942,8.8316,8.7568,8.7597,8.671,8.554,8.5531,8.5531,8.5531,8.5559,8.5286,8.5002,8.504,8.4556,8.4028,8.3978,8.3828,8.3643,8.3527,8.3511,8.3494,8.3374,8.3358,8.3374,8.3391,8.3391,8.3391,8.3408,8.4585,8.5119,8.3648,8.5705,8.6482,8.3285,8.1879,8.1674,8.2831,8.3208,8.3813,8.4983,8.5351,8.6013,8.7278,8.7472,8.8119,8.9504,9.0944,9.0567,8.7969,8.9121,8.8548,8.5945,8.5902,8.6609,8.7954,8.6588,8.6784,8.8427,8.6995,8.5964,0.0,0.0,0.0,0.0,0.0,0.0,0.0,0.0,0.0,0.0,0.0,7.4553,7.4561,0.0,7.7432,7.831,7.8448,7.899,8.0558,7.9239,7.8223,7.8484,7.7371,7.6697,7.6943,7.6393,7.6061,7.6207,7.7101,7.7423,7.6931,7.7433,7.8541,8.0205,8.0293,8.1195,8.3062,8.2022,8.1483,8.1558,8.3249,8.2723,8.029,8.1156,8.2057,8.3056,8.3908,8.5709,8.8123,8.8953,8.944,8.9412,8.7552,8.6503,8.5999,8.5938,8.5438,8.4757,8.4657,8.4648,8.4648,8.466,8.4105,8.3369,8.3369,8.2603,8.1723,8.1723,8.1631,8.1508,8.1469,8.1456,8.1644,8.243,8.2617,8.2856,8.3709,8.3873,8.3887,8.3951,8.4027,8.3777,8.2859,8.6331,8.7882,8.3896,8.3337,8.3082,8.2229,8.2061,8.2724,8.4463,8.4585,8.4905,8.5732,8.6664,8.6496,8.4879,8.6419,8.6639,8.5004,8.5687,8.4928,8.2463,8.2432,8.286,8.3666,8.2832,8.329,8.4892,8.2336,8.2041,0.0,0.0,0.0,0.0,0.0,0.0,0.0,0.0,0.0,0.0,0.0,0.0,0.0,0.0,0.0,7.6675,7.686,7.7715,7.9601,7.7754,7.641,7.6823,7.6378,7.5627,7.4607,7.3698,7.3169,7.3193,7.4776,7.5445,7.4833,7.5912,7.7318,7.8999,7.9356,8.0384,8.2199,8.0452,8.0225,8.1594,0.0,0.0,8.1544,8.1858,8.2686,8.379,8.4138,8.5824,8.8397,8.875,8.8857,8.8605,8.5843,8.4797,8.4727,8.4274,8.3971,8.3759,8.3652,8.3628,8.3619,8.3577,8.266,8.1536,8.1536,8.0526,0.0,7.9353,7.9353,7.9353,7.9353,7.9353,7.9693,8.106,8.14,8.1749,8.3111,8.3423,8.3546,8.4001,8.3236,8.25,8.2517,8.5489,8.7104,8.4917,8.5288,8.5137,8.326,8.2712,8.3047,8.4398,8.4538,8.4614,8.4727,8.5989,8.4959,8.0623,8.194,8.2724,8.2398,8.2701,8.2073,8.0388,8.0008,7.9705,7.9399,7.9058,7.9779,8.1375,7.8928,7.9053,0.0,0.0,0.0,0.0,0.0,0.0,0.0,0.0,0.0,0.0,0.0,0.0,0.0,0.0,0.0,0.0,7.6163,7.7805,7.965,7.5833,7.3421,7.4934,7.3681,7.3235,7.4653,7.4494,7.4255,7.426,7.4592,7.4771,7.4658,7.6181,0.0,0.0,0.0,7.9807,8.0035,7.9796,7.978,8.0007,8.1572,8.1422,7.9829,8.1346,8.1375,8.0353,8.1856,8.2806,8.3384,8.4874,8.5491,8.5467,8.5076,8.4925,8.4743,8.3097,8.1529,8.0259,8.0239,0.0,0.0,8.01,7.9971,7.981,7.981,7.9659,7.9499,7.9499,7.9499,7.9499,7.9499,7.9499,7.9537,7.9726,7.9763,7.9801,7.9999,8.0037,8.049,8.201,8.3367,8.4253,8.4275,8.2255,8.1602,8.4327,8.2335,8.2034,8.6145,8.5287,8.434,8.4529,0.0,0.0,8.4576,8.4868,8.4153,8.2083,8.3532,8.3808,8.2297,8.37,8.3673,8.1999,8.048,7.9039,7.7636,7.6157,7.6268,7.793,7.8852,7.8772,0.0,0.0,0.0,0.0,0.0,0.0,0.0,0.0,0.0,0.0,0.0,0.0,0.0,0.0,0.0,0.0,7.3876,7.4605,7.5373,7.3649,7.2583,7.3267,7.2701,7.2131,7.1911,7.182,7.1782,7.1842,7.1916,7.2331,7.3239,7.3972,7.5218,7.7121,7.6976,7.7321,7.8225,7.8279,7.884,7.983,8.1391,8.1793,8.11,8.1815,8.1826,8.1325,8.2012,8.291,8.3926,8.4653,8.4927,0.0,0.0,0.0,0.0,0.0,7.7347,7.6771,7.678,7.6769,7.6724,7.6686,7.7337,7.8137,7.8137,7.8781,7.9545,7.9606,7.9629,7.9612,7.9621,7.9606,7.9886,8.0823,8.1066,8.1345,8.2255,8.2425,8.2651,8.3369,8.3293,0.0,8.1801,8.0422,8.0018,8.1473,8.1346,8.1442,8.2518,8.2895,8.3454,8.4454,8.4549,8.4585,8.466,8.5625,0.0,0.0,0.0,8.4101,8.239,8.2051,0.0,0.0,0.0,0.0,0.0,0.0,0.0,0.0,7.7063,7.7558,0.0,0.0,0.0,0.0,0.0,0.0,0.0,0.0,0.0,0.0,0.0,0.0,0.0,0.0,0.0,0.0,7.132,7.1463,7.0982,7.0915,7.0929,7.0875,7.133,7.0989,6.9243,6.9547,6.9892,6.997,6.997,7.0464,7.1603,7.2135,7.3424,7.5799,7.5233,7.5423,7.6558,7.6631,7.7276,7.8494,7.9655,8.0216,8.0219,8.0207,8.0248,8.0338,8.0338,8.1067,8.2216,8.2216,8.2219,8.1735,7.6638,7.4674,7.4674,7.4548,7.4598,7.4716,7.5244,7.5695,7.6072,7.6061,7.6587,7.7235,7.7235,7.7685,7.8244,7.8347,7.8604,7.8778,7.8472,7.8563,7.9003,7.9985,8.0189,8.0506,8.164,8.188,8.2015,8.2424,8.1183,7.9658,7.8449,7.8214,7.8382,7.8856,7.9562,0.0,7.946,8.0112,8.1254,8.2955,8.3119,8.3343,8.3969,8.5135,8.4124,8.0073,8.219,8.2607,8.0411,7.9602,7.8056,7.5568,7.6275,7.6631,0.0,0.0,0.0,0.0,0.0,0.0,0.0,0.0,0.0,0.0,0.0,0.0,0.0,0.0,0.0,0.0,0.0,0.0,0.0,0.0,0.0,0.0,0.0,0.0,6.7635,6.7404,6.7372,6.7251,6.89,6.9333,6.75,6.8923,6.9983,6.9983,6.9996,7.0004,7.0042,7.16,7.2551,7.2627,7.4186,7.5058,7.5096,7.498,7.4944,7.4982,7.5068,7.5079,7.5079,7.5076,7.5066,7.5054,7.5054,7.5172,7.534,7.534,7.5334,7.5275,7.456,7.4281,7.4274,7.4274,7.4424,7.4896,7.667,7.8361,7.9727,7.9587,7.8566,7.7369,7.7369,7.6249,7.5004,7.5008,7.5809,7.6416,7.5278,7.5738,7.6269,7.5316,7.5084,7.5084,7.5117,7.5155,7.5585,7.7094,7.6136,7.5035,7.5008,7.4966,7.5532,7.7198,7.5951,0.0,7.9258,7.8205,7.7744,7.9326,7.9452,8.0183,8.1965,8.2149,8.1498,7.9803,7.9928,7.8555,7.5209,7.6609,7.739,7.7272,7.5752,7.4788,7.4538,0.0,0.0,0.0,0.0,0.0,0.0,0.0,0.0,0.0,0.0,0.0,0.0,0.0,0.0,0.0,0.0,0.0,0.0,0.0,0.0,0.0,0.0,0.0,0.0,6.321,6.4691,6.6814,6.6733,6.6678,6.7209,6.7831,6.8134,6.8058,6.9024,6.9579,6.9579,7.0115,7.0535,7.0688,7.1261,7.1589,7.1673,7.1614,7.2193,7.3294,7.3647,7.3802,7.3878,7.532,7.6002,7.6039,7.6456,7.6036,7.5118,7.6066,7.4377,7.1182,7.1056,7.1022,7.1041,7.1041,7.0435,6.9853,7.1515,7.105,6.9883,7.1052,7.2626,7.4015,7.402,7.4402,7.4837,7.482,7.5134,7.5374,7.5056,7.521,7.5399,7.4933,7.4852,7.4845,7.4842,7.4831,7.501,7.5534,7.3337,7.1351,7.1345,7.1346,7.1541,7.215,7.2715,7.3523,7.4663,7.5248,7.5772,7.6291,7.6358,7.661,7.7319,7.7289,7.7026,7.6495,7.6501,7.6006,7.4868,7.4307,7.4007,7.4026,7.2346,7.2472,7.4434,0.0,0.0,0.0,0.0,0.0,0.0,0.0,0.0,0.0,0.0,0.0,0.0,0.0,0.0,0.0,0.0,0.0,0.0,0.0,0.0,0.0,0.0,0.0,0.0,0.0,0.0,6.4894,6.4331,0.0,6.4509,6.5111,6.5181,6.4479,6.6405,6.7624,6.7654,6.8145,6.8795,6.9691,6.9697,6.9762,6.9858,6.9829,7.0355,7.1399,7.1791,7.2398,7.3151,7.3791,7.4103,7.4121,7.4492,7.4007,7.3106,7.4004,7.1598,6.7348,6.732,6.7257,6.7213,6.7909,6.7159,6.6201,6.8526,6.7614,6.5845,6.8275,7.0524,7.2322,7.2318,7.2628,7.2965,7.3046,7.3045,7.3082,7.3222,7.3216,7.3222,7.312,7.3121,7.3122,7.3112,7.3075,7.304,7.3106,7.1298,6.9705,6.9653,6.9681,6.9675,6.967,7.0605,7.1345,7.1395,7.236,7.3257,7.3851,7.3832,7.4107,7.4906,7.4258,7.3838,7.3916,7.3382,7.3302,7.39,7.2304,7.1661,7.215,7.0509,7.0593,0.0,0.0,0.0,0.0,0.0,0.0,0.0,0.0,0.0,0.0,0.0,0.0,0.0,0.0,0.0,0.0,0.0,0.0,0.0,0.0,0.0,0.0,0.0,0.0,0.0,0.0,0.0,6.1522,6.1667,0.0,0.0,0.0,0.0,5.9634,6.2373,6.4126,6.4251,6.5546,6.7177,6.9124,6.9206,6.9313,6.9474,6.9471,6.9443,6.9399,6.952,7.0661,7.2641,7.0539,6.9587,6.9587,6.9546,6.9454,6.9295,6.911,6.7092,6.4025,6.3667,6.3293,6.3225,6.5077,6.4837,6.4133,6.7797,6.8035,6.7391,7.0982,7.2124,7.2059,7.2138,7.0962,0.0,0.0,6.9783,6.9797,6.9952,6.9959,6.9997,6.996,6.996,6.996,6.996,6.9898,6.9838,0.0,6.9945,6.9936,6.9787,0.0,6.9749,6.9765,6.9656,6.9665,6.9751,6.978,7.04,7.2019,7.1947,7.2549,7.4397,7.285,7.19,7.2137,7.0669,7.0546,7.223,7.0666,7.0456,7.1861,7.0213,0.0,0.0,0.0,0.0,0.0,0.0,0.0,0.0,0.0,0.0,0.0,0.0,0.0,0.0,0.0,0.0,0.0,0.0,0.0,0.0,0.0,0.0,0.0,0.0,0.0,0.0,5.6162,5.7376,5.9758,5.8995,5.8099,0.0,0.0,0.0,0.0,0.0,0.0,6.0319,6.079,6.1843,6.3611,6.3847,6.5206,6.7813,6.7757,6.8336,6.9526,6.9467,6.9755,7.0291,6.9694,6.9443,6.9526,7.0842,7.0024,6.766,6.5505,6.4928,6.5252,6.3858,6.3225,6.3197,6.3807,6.2983,6.2116,6.5742,6.5178,6.3682,6.8576,0.0,6.867,7.0015,0.0,0.0,0.0,0.0,6.9655,6.9818,6.9828,6.9873,6.9971,6.9974,6.9974,6.9974,6.9966,6.9907,0.0,6.975,6.9676,6.9659,0.0,0.0,0.0,0.0,6.9759,6.9769,6.9774,6.9961,7.0393,7.019,7.0241,7.0745,7.0341,7.0127,7.027,6.9874,7.0433,7.2246,7.0523,7.0133,7.1456,0.0,0.0,0.0,0.0,0.0,0.0,0.0,0.0,0.0,0.0,0.0,0.0,0.0,0.0,0.0,0.0,0.0,0.0,0.0,0.0,0.0,0.0,0.0,0.0,0.0,0.0,0.0,5.3988,5.5082,5.6702,5.5476,5.4494,0.0,0.0,0.0,0.0,0.0,0.0,0.0,0.0,0.0,6.0538,6.0736,6.1737,6.3652,6.4475,6.566,6.7215,6.7928,6.8674,6.9298,6.9317,6.9335,6.9373,7.0315,6.7874,6.3075,6.1609,6.0548,5.982,0.0,0.0,0.0,0.0,6.0986,5.9925,6.2877,6.2232,0.0,6.445,0.0,0.0,0.0,0.0,0.0,0.0,0.0,0.0,0.0,0.0,0.0,6.9773,6.9849,6.9917,6.9917,6.9858,6.9783,0.0,6.9635,6.955,6.9436,0.0,0.0,0.0,0.0,6.9631,6.9685,6.9689,6.9723,6.9711,6.9484,6.9354,6.9491,6.9354,6.9384,6.9579,7.0213,7.1076,7.2083,7.0936,7.0498,0.0,0.0,0.0,0.0,0.0,0.0,0.0,0.0,0.0,0.0,0.0,0.0,0.0,0.0,0.0,0.0,0.0,0.0,0.0,0.0,0.0,0.0,0.0,0.0,0.0,0.0,0.0,0.0,0.0,5.3738,5.3377,0.0,0.0,0.0,0.0,0.0,0.0,0.0,0.0,0.0,0.0,0.0,0.0,0.0,5.8254,5.8514,6.041,6.2022,6.3337,6.5048,6.6646,6.8087,6.7763,6.7925,6.8387,6.7888,0.0,5.8476,5.827,0.0,0.0,0.0,0.0,0.0,0.0,0.0,0.0,0.0,0.0,0.0,0.0,0.0,0.0,0.0,0.0,0.0,0.0,0.0,0.0,0.0,0.0,6.9559,6.9567,6.967,6.9653,0.0,6.9412,6.9558,6.9498,6.9535,0.0,0.0,0.0,0.0,0.0,0.0,0.0,6.9534,6.9589,6.9545,6.954,6.9303,6.927,6.9484,6.9317,6.9269,6.949,7.0661,7.1465,7.163,7.107,0.0,0.0,0.0,0.0,0.0,0.0,0.0,0.0,0.0,0.0,0.0,0.0,0.0,0.0,0.0,0.0,0.0,0.0,0.0,0.0,0.0,0.0,0.0,0.0,0.0,0.0,0.0,0.0,0.0,0.0,0.0,0.0,0.0,0.0,0.0,0.0,0.0,0.0,0.0,0.0,0.0,0.0,0.0,0.0,0.0,0.0,0.0,0.0,0.0,0.0,6.0156,6.1254,6.2085,6.0363,6.1321,6.423,6.1646,6.091,6.1329,5.774,0.0,0.0,0.0,0.0,0.0,0.0,0.0,0.0,0.0,0.0,0.0,0.0,0.0,0.0,0.0,0.0,0.0,0.0,0.0,0.0,0.0,0.0,0.0,0.0,6.9553,6.9047,0.0,0.0,0.0,0.0,0.0,0.0,0.0,0.0,0.0,0.0,0.0,0.0,6.9437,6.9437,6.9406,6.9265,6.9129,6.906,6.9109,6.9048,6.9046,6.9085,6.8643,6.8969,0.0,0.0,0.0,0.0,0.0,0.0,0.0,0.0,0.0,0.0,0.0,0.0,0.0,0.0,0.0,0.0,0.0,0.0,0.0,0.0,0.0,0.0,0.0,0.0,0.0,0.0,0.0,0.0,0.0,0.0,0.0,0.0,0.0,0.0,0.0,0.0,0.0,0.0,0.0,0.0,0.0,0.0,0.0,0.0,0.0,0.0,0.0,0.0,0.0,0.0,0.0,0.0,0.0,0.0,0.0,0.0,0.0,0.0,0.0,5.4517,0.0,0.0,0.0,0.0,0.0,0.0,0.0,0.0,0.0,0.0,0.0,0.0,0.0,0.0,0.0,0.0,0.0,0.0,0.0,0.0,0.0,0.0,0.0,0.0,0.0,0.0,0.0,0.0,0.0,0.0,0.0,0.0,0.0,0.0,0.0,0.0,0.0,0.0,0.0,0.0,6.8011,6.878,6.8968,6.7813,6.7613,6.7186,6.6188,6.609,6.6323,6.6944,6.6435,0.0,0.0,0.0,0.0,0.0,0.0,0.0,0.0,0.0,0.0,0.0,0.0,0.0,0.0,0.0,0.0,0.0,0.0,0.0,0.0,0.0,0.0,0.0,0.0,0.0,0.0,0.0,0.0,0.0,0.0,0.0,0.0,0.0,0.0,0.0,0.0,0.0,0.0,0.0,0.0,0.0,0.0,0.0,0.0,0.0,0.0,0.0,0.0,0.0,0.0,0.0,0.0,0.0,0.0,0.0,0.0,0.0,0.0,0.0,5.2275,0.0,0.0,0.0,0.0,0.0,0.0,0.0,0.0,0.0,0.0,0.0,0.0,0.0,0.0,0.0,0.0,0.0,0.0,0.0,0.0,0.0,0.0,0.0,0.0,0.0,0.0,0.0,0.0,0.0,0.0,0.0,0.0,0.0,0.0,0.0,0.0,0.0,0.0,0.0,0.0,0.0,6.6628,6.7808,6.8132,6.6465,6.5938,6.507,6.3488,6.3302,6.3627,6.4503,6.3894,0.0,0.0,0.0,0.0,0.0,0.0,0.0,0.0,0.0,0.0,0.0,0.0,0.0,0.0,0.0,0.0,0.0,0.0,0.0,0.0,0.0,0.0,0.0,0.0,0.0,0.0,0.0,0.0,0.0,0.0,0.0,0.0,0.0,0.0,0.0,0.0,0.0,0.0,0.0,0.0,0.0,0.0,0.0,0.0,0.0,0.0,0.0,0.0,0.0,0.0,0.0,0.0,0.0,0.0,0.0,0.0,0.0,0.0,0.0,0.0,0.0,0.0,0.0,0.0,0.0,0.0,0.0,0.0,0.0,0.0,0.0,0.0,0.0,0.0,0.0,0.0,0.0,0.0,0.0,0.0,0.0,0.0,0.0,0.0,0.0,0.0,0.0,0.0,0.0,0.0,0.0,0.0,0.0,0.0,0.0,0.0,0.0,0.0,0.0,0.0,0.0,6.6478,6.6653,6.6628,6.6314,6.4795,6.3695,6.3369,6.3035,6.2839,6.2817,0.0,0.0,0.0,0.0,0.0,0.0,0.0,0.0,0.0,0.0,0.0,0.0,0.0,0.0,0.0,0.0,0.0,0.0,0.0,0.0,0.0,0.0,0.0,0.0,0.0,0.0,0.0,0.0,0.0,0.0,0.0,0.0,0.0,0.0,0.0,0.0,0.0,0.0,0.0,0.0,0.0,0.0,0.0,0.0,0.0,0.0,0.0,0.0,0.0,0.0,0.0,0.0,0.0,0.0,0.0,0.0,0.0,0.0,0.0,0.0,0.0,0.0,0.0,0.0,0.0,0.0,0.0,0.0,0.0,0.0,0.0,0.0,0.0,0.0,0.0,0.0,0.0,0.0,0.0,0.0,0.0,0.0,0.0,0.0,0.0,0.0,0.0,0.0,0.0,0.0,0.0,0.0,0.0,0.0,0.0,0.0,0.0,0.0,0.0,0.0,0.0,0.0,6.2885,6.3892,6.425,6.302,6.2005,6.0937,5.9597,5.9079,5.8885,5.9056,0.0,0.0,0.0,0.0,0.0,0.0,0.0,0.0,0.0,0.0,0.0,0.0,0.0,0.0,0.0,0.0,0.0,0.0,0.0,0.0,0.0,0.0,0.0,0.0,0.0,0.0,0.0,0.0,0.0,0.0,0.0,0.0,0.0,0.0,0.0,0.0,0.0,0.0,0.0,0.0,0.0,0.0,0.0,0.0,0.0,0.0,0.0,0.0,0.0,0.0,0.0,0.0,0.0,0.0,0.0,0.0,0.0,0.0,0.0,0.0,0.0,0.0,0.0,0.0,0.0,0.0,0.0,0.0,0.0,0.0,0.0,0.0,0.0,0.0,0.0,0.0,0.0,0.0,0.0,0.0,0.0,0.0,0.0,0.0,0.0,0.0,0.0,0.0,0.0,0.0,0.0,0.0,0.0,0.0,0.0,0.0,0.0,0.0,0.0,0.0,0.0,0.0,6.0108,6.1315,6.1773,6.0405,5.956,5.8459,5.6912,5.6344,5.6048,5.5986,0.0,0.0,0.0,0.0,0.0,0.0,0.0,0.0,0.0,0.0,0.0,0.0,0.0,0.0,0.0,0.0,0.0,0.0,0.0,0.0,0.0,0.0,0.0,0.0,0.0,0.0,0.0,0.0,0.0,0.0,0.0,0.0,0.0,0.0,0.0,0.0,0.0,0.0,0.0,0.0,0.0,0.0,0.0,0.0,0.0,0.0,0.0,0.0,0.0,0.0,0.0,0.0,0.0,0.0,0.0,0.0,0.0,0.0,0.0,0.0,0.0,0.0,0.0,0.0,0.0,0.0,0.0,0.0,0.0,0.0,0.0,0.0,0.0,0.0,0.0,0.0,0.0,0.0,0.0,0.0,0.0,0.0,0.0,0.0,0.0,0.0,0.0,0.0,0.0,0.0,0.0,0.0,0.0,0.0,0.0,0.0,0.0,0.0,0.0,0.0,0.0,0.0,5.9245,5.9342,5.9342,5.9305,5.7792,5.6673,5.6402,5.6019,5.5312,0.0,0.0,0.0,0.0,0.0,0.0,0.0,0.0,0.0,0.0,0.0,0.0,0.0,0.0,0.0,0.0,0.0,0.0,0.0,0.0,0.0,0.0,0.0,0.0,0.0,0.0,0.0,0.0,0.0,0.0,0.0,0.0,0.0,0.0,0.0,0.0,0.0,0.0,0.0,0.0,0.0,0.0,0.0,0.0,0.0,0.0,0.0,0.0,0.0,0.0,0.0,0.0,0.0,0.0,0.0,0.0,0.0,0.0,0.0,0.0,0.0,0.0,0.0,0.0,0.0,0.0,0.0,0.0,0.0,0.0,0.0,0.0,0.0,0.0,0.0,0.0,0.0,0.0,0.0,0.0,0.0,0.0,0.0,0.0,0.0,0.0,0.0,0.0,0.0,0.0,0.0,0.0,0.0,0.0,0.0,0.0,0.0,0.0,0.0,0.0,0.0,0.0,0.0,5.6751,5.7076,5.7369,0.0,5.5316,5.4211,5.522,5.3868,5.2751,5.2229,0.0,0.0,0.0,0.0,0.0,0.0,0.0,0.0,0.0,0.0,0.0,0.0,0.0,0.0,0.0,0.0,0.0,0.0,0.0,0.0,0.0,0.0,0.0,0.0,0.0,0.0,0.0,0.0,0.0,0.0,0.0,0.0,0.0,0.0,0.0,0.0,0.0,0.0,0.0,0.0,0.0,0.0,0.0,0.0,0.0,0.0,0.0,0.0,0.0,0.0,0.0,0.0,0.0,0.0,0.0,0.0,0.0,0.0,0.0,0.0,0.0,0.0,0.0,0.0,0.0,0.0,0.0,0.0,0.0,0.0,0.0,0.0,0.0,0.0,0.0,0.0,0.0,0.0,0.0,0.0,0.0,0.0,0.0,0.0,0.0,0.0,0.0,0.0,0.0,0.0,0.0,0.0,0.0,0.0,0.0,0.0,0.0,0.0,0.0,0.0,0.0,0.0,0.0,5.5658,5.5965,0.0,5.4332,5.3594,5.4852,5.3018,5.1667,5.1456,0.0,0.0,0.0,0.0,0.0,0.0,0.0,0.0,0.0,0.0,0.0,0.0,0.0,0.0,0.0,0.0,0.0,0.0,0.0,0.0,0.0,0.0,0.0,0.0,0.0,0.0,0.0,0.0,0.0,0.0,0.0,0.0,0.0,0.0,0.0,0.0,0.0,0.0,0.0,0.0,0.0,0.0,0.0,0.0,0.0,0.0,0.0,0.0,0.0,0.0,0.0,0.0,0.0,0.0,0.0,0.0,0.0,0.0,0.0,0.0,0.0,0.0,0.0,0.0,0.0,0.0,0.0,0.0,0.0,0.0,0.0,0.0,0.0,0.0,0.0,0.0,0.0,0.0,0.0,0.0,0.0,0.0,0.0,0.0,0.0,0.0,0.0,0.0,0.0,0.0,0.0,0.0,0.0,0.0,0.0,0.0,0.0,0.0,0.0,0.0,0.0,0.0,0.0,5.4879,5.5037,5.5166,5.4385,5.4125,5.495,5.2987,5.1586,5.1326,4.737,0.0,0.0,0.0,0.0,0.0,0.0,0.0,0.0,0.0,0.0,0.0,0.0,0.0,0.0,0.0,0.0,0.0,0.0,0.0,0.0,0.0,0.0,0.0,0.0,0.0,0.0,0.0,0.0,0.0,0.0,0.0,0.0,0.0,0.0,0.0,0.0,0.0,0.0,0.0,0.0,0.0,0.0,0.0,0.0,0.0,0.0,0.0,0.0,0.0,0.0,0.0,0.0,0.0,0.0,0.0,0.0,0.0,0.0,0.0,0.0,0.0,0.0,0.0,0.0,0.0,0.0,0.0,0.0,0.0,0.0,0.0,0.0,0.0,0.0,0.0,0.0,0.0,0.0,0.0,0.0,0.0,0.0,0.0,0.0,0.0,0.0,0.0,0.0,0.0,0.0,0.0,0.0,0.0,0.0,0.0,0.0,0.0,0.0,0.0,0.0,0.0,0.0,5.453,5.4693,5.5037,5.2928,5.2003,5.3168,5.1141,4.9201,4.7621,4.6725,0.0,0.0,0.0,0.0,0.0,0.0,0.0,0.0,0.0,0.0,0.0,0.0,0.0,0.0,0.0,0.0,0.0,0.0,0.0,0.0,0.0,0.0,0.0,0.0,0.0,0.0,0.0,0.0,0.0,0.0,0.0,0.0,0.0,0.0,0.0,0.0,0.0,0.0,0.0,0.0,0.0,0.0,0.0,0.0,0.0,0.0,0.0,0.0,0.0,0.0,0.0,0.0,0.0,0.0,0.0,0.0,0.0,0.0,0.0,0.0,0.0,0.0,0.0,0.0,0.0,0.0,0.0,0.0,0.0,0.0,0.0,0.0,0.0,0.0,0.0,0.0,0.0,0.0,0.0,0.0,0.0,0.0,0.0,0.0,0.0,0.0,0.0,0.0,0.0,0.0,0.0,0.0,0.0,0.0,0.0,0.0,0.0,0.0,0.0,0.0,0.0,0.0,5.4372,5.4035,5.3291,5.1409,5.05,5.1285,4.9203,4.7673,4.7259,4.5549,0.0,0.0,0.0,0.0,0.0,0.0,0.0,0.0,0.0,0.0,0.0,0.0,0.0,0.0,0.0,0.0,0.0,0.0,0.0,0.0,0.0,0.0,0.0,0.0,0.0,0.0,0.0,0.0,0.0,0.0,0.0,0.0,0.0,0.0,0.0,0.0,0.0,0.0,0.0,0.0,0.0,0.0,0.0,0.0,0.0,0.0,0.0,0.0,0.0,0.0,0.0,0.0,0.0,0.0,0.0,0.0,0.0,0.0,0.0,0.0,0.0,0.0,0.0,0.0,0.0,0.0,0.0,0.0,0.0,0.0,0.0,0.0,0.0,0.0,0.0,0.0,0.0,0.0,0.0,0.0,0.0,0.0,0.0,0.0,0.0,0.0,0.0,0.0,0.0,0.0,0.0,0.0,0.0,0.0,0.0,0.0,0.0,0.0,0.0,0.0,0.0,0.0,0.0,5.355,5.1713,5.0361,4.9583,4.9508,4.7569,4.6715,4.7602,0.0,0.0,0.0,0.0,0.0,0.0,0.0,0.0,0.0,0.0,0.0,0.0,0.0,0.0,0.0,0.0,0.0,0.0,0.0,0.0,0.0,0.0,0.0,0.0,0.0,0.0,0.0,0.0,0.0,0.0,0.0,0.0,0.0,0.0,0.0,0.0,0.0,0.0,0.0,0.0,0.0,0.0,0.0,0.0,0.0,0.0,0.0,0.0,0.0,0.0,0.0,0.0,0.0,0.0,0.0,0.0,0.0,0.0,0.0,0.0,0.0,0.0,0.0,0.0,0.0,0.0,0.0,0.0,0.0,0.0,0.0,0.0,0.0,0.0,0.0,0.0,0.0,0.0,0.0,0.0,0.0,0.0,0.0,0.0,0.0,0.0,0.0,0.0,0.0,0.0,0.0,0.0,0.0,0.0,0.0,0.0,0.0,0.0,0.0,0.0,0.0,0.0,0.0,0.0,5.4017,5.3477,5.1202,4.933,4.8356,4.7352,4.6018,4.427,0.0,0.0,0.0,0.0,0.0,0.0,0.0,0.0,0.0,0.0,0.0,0.0,0.0,0.0]}]]]